Time,TemperatureF,DewpointF,PressureIn,WindDirection,WindDirectionDegrees,WindSpeedMPH,WindSpeedGustMPH,Humidity,HourlyPrecipIn,Conditions,Clouds,dailyrainin,SoftwareType,DateUTC
2013-08-06 00:00:00,82.8,70.3,29.95,SSE,148,5.0,5.0,66,0.00,,CLR,0.00,VWS V14.01,2013-08-06 05:00:00,
2013-08-06 00:01:00,83.0,70.9,29.95,SSE,153,0.0,6.0,67,0.00,,CLR,0.00,VWS V14.01,2013-08-06 05:01:00,
2013-08-06 00:02:00,82.8,70.3,29.95,ESE,115,11.0,12.0,66,0.00,,CLR,0.00,VWS V14.01,2013-08-06 05:02:00,
2013-08-06 00:03:00,82.8,70.3,29.95,ESE,112,1.0,12.0,66,0.00,,CLR,0.00,VWS V14.01,2013-08-06 05:03:00,
2013-08-06 00:04:00,82.8,70.3,29.95,SE,132,4.0,12.0,66,0.00,,CLR,0.00,VWS V14.01,2013-08-06 05:04:00,
2013-08-06 00:05:00,82.8,70.3,29.95,South,171,5.0,12.0,66,0.00,,CLR,0.00,VWS V14.01,2013-08-06 05:05:00,
2013-08-06 00:06:00,83.0,70.9,29.95,SSE,151,0.0,6.0,67,0.00,,CLR,0.00,VWS V14.01,2013-08-06 05:06:00,
2013-08-06 00:07:00,82.8,70.7,29.95,SSE,147,2.0,12.0,67,0.00,,CLR,0.00,VWS V14.01,2013-08-06 05:07:00,
2013-08-06 00:08:00,82.6,70.5,29.95,SSE,147,0.0,12.0,67,0.00,,CLR,0.00,VWS V14.01,2013-08-06 05:08:00,
2013-08-06 00:09:00,82.6,70.5,29.95,SSE,147,0.0,12.0,67,0.00,,CLR,0.00,VWS V14.01,2013-08-06 05:09:00,
2013-08-06 00:10:00,82.6,70.5,29.95,SSE,148,0.0,5.0,67,0.00,,CLR,0.00,VWS V14.01,2013-08-06 05:10:00,
2013-08-06 00:11:00,82.8,70.3,29.95,South,170,3.0,6.0,66,0.00,,CLR,0.00,VWS V14.01,2013-08-06 05:11:00,
2013-08-06 00:12:00,82.6,70.5,29.95,South,169,3.0,5.0,67,0.00,,CLR,0.00,VWS V14.01,2013-08-06 05:12:00,
2013-08-06 00:13:00,82.6,70.5,29.95,ESE,110,0.0,5.0,67,0.00,,CLR,0.00,VWS V14.01,2013-08-06 05:13:00,
2013-08-06 00:14:00,82.6,70.5,29.95,SE,130,0.0,5.0,67,0.00,,CLR,0.00,VWS V14.01,2013-08-06 05:14:00,
2013-08-06 00:15:00,82.6,70.5,29.95,ESE,116,0.0,5.0,67,0.00,,CLR,0.00,VWS V14.01,2013-08-06 05:15:00,
2013-08-06 00:16:00,82.8,70.3,29.95,SE,138,3.0,12.0,66,0.00,,CLR,0.00,VWS V14.01,2013-08-06 05:16:00,
2013-08-06 00:17:00,82.6,70.5,29.95,ESE,116,0.0,5.0,67,0.00,,CLR,0.00,VWS V14.01,2013-08-06 05:17:00,
2013-08-06 00:18:00,82.6,70.5,29.95,ESE,116,0.0,5.0,67,0.00,,CLR,0.00,VWS V14.01,2013-08-06 05:18:00,
2013-08-06 00:19:00,82.4,70.3,29.95,ESE,115,4.0,5.0,67,0.00,,CLR,0.00,VWS V14.01,2013-08-06 05:19:00,
2013-08-06 00:20:00,82.4,70.3,29.95,SE,134,0.0,0.0,67,0.00,,CLR,0.00,VWS V14.01,2013-08-06 05:20:00,
2013-08-06 00:21:00,82.6,70.5,29.95,SE,128,3.0,5.0,67,0.00,,CLR,0.00,VWS V14.01,2013-08-06 05:21:00,
2013-08-06 00:22:00,82.4,70.8,29.95,SE,128,0.0,3.0,68,0.00,,CLR,0.00,VWS V14.01,2013-08-06 05:22:00,
2013-08-06 00:23:00,82.4,70.8,29.95,SE,128,0.0,3.0,68,0.00,,CLR,0.00,VWS V14.01,2013-08-06 05:23:00,
2013-08-06 00:24:00,82.4,70.8,29.95,SSE,155,0.0,3.0,68,0.00,,CLR,0.00,VWS V14.01,2013-08-06 05:24:00,
2013-08-06 00:25:00,82.2,70.6,29.95,ESE,108,0.0,3.0,68,0.00,,CLR,0.00,VWS V14.01,2013-08-06 05:25:00,
2013-08-06 00:26:00,82.6,70.5,29.95,ESE,116,0.0,5.0,67,0.00,,CLR,0.00,VWS V14.01,2013-08-06 05:26:00,
2013-08-06 00:27:00,82.2,70.6,29.95,ESE,111,0.0,3.0,68,0.00,,CLR,0.00,VWS V14.01,2013-08-06 05:27:00,
2013-08-06 00:28:00,82.2,70.6,29.95,ESE,109,2.0,7.0,68,0.00,,CLR,0.00,VWS V14.01,2013-08-06 05:28:00,
2013-08-06 00:29:00,82.2,70.6,29.95,East,92,2.0,7.0,68,0.00,,CLR,0.00,VWS V14.01,2013-08-06 05:29:00,
2013-08-06 00:30:00,82.2,70.6,29.95,SSE,163,4.0,4.0,68,0.00,,CLR,0.00,VWS V14.01,2013-08-06 05:30:00,
2013-08-06 00:31:00,82.4,70.8,29.95,ESE,107,2.0,3.0,68,0.00,,CLR,0.00,VWS V14.01,2013-08-06 05:31:00,
2013-08-06 00:32:00,82.2,70.6,29.95,East,101,0.0,4.0,68,0.00,,CLR,0.00,VWS V14.01,2013-08-06 05:32:00,
2013-08-06 00:33:00,82.0,70.4,29.95,SE,128,0.0,4.0,68,0.00,,CLR,0.00,VWS V14.01,2013-08-06 05:33:00,
2013-08-06 00:34:00,82.0,70.4,29.95,ESE,123,0.0,4.0,68,0.00,,CLR,0.00,VWS V14.01,2013-08-06 05:34:00,
2013-08-06 00:35:00,82.0,70.4,29.95,SE,134,0.0,4.0,68,0.00,,CLR,0.00,VWS V14.01,2013-08-06 05:35:00,
2013-08-06 00:36:00,82.2,70.6,29.95,ESE,111,0.0,3.0,68,0.00,,CLR,0.00,VWS V14.01,2013-08-06 05:36:00,
2013-08-06 00:37:00,82.0,70.8,29.95,South,169,5.0,6.0,69,0.00,,CLR,0.00,VWS V14.01,2013-08-06 05:37:00,
2013-08-06 00:38:00,82.0,70.8,29.95,SSE,158,4.0,7.0,69,0.00,,CLR,0.00,VWS V14.01,2013-08-06 05:38:00,
2013-08-06 00:39:00,81.8,70.6,29.95,SE,146,0.0,7.0,69,0.00,,CLR,0.00,VWS V14.01,2013-08-06 05:39:00,
2013-08-06 00:40:00,81.8,70.6,29.95,SSE,160,0.0,5.0,69,0.00,,CLR,0.00,VWS V14.01,2013-08-06 05:40:00,
2013-08-06 00:41:00,82.2,70.6,29.95,East,98,1.0,4.0,68,0.00,,CLR,0.00,VWS V14.01,2013-08-06 05:41:00,
2013-08-06 00:42:00,81.8,70.6,29.95,SSE,150,4.0,7.0,69,0.00,,CLR,0.00,VWS V14.01,2013-08-06 05:42:00,
2013-08-06 00:43:00,81.8,70.6,29.95,SSE,167,4.0,7.0,69,0.00,,CLR,0.00,VWS V14.01,2013-08-06 05:43:00,
2013-08-06 00:44:00,81.8,70.6,29.96,SSE,156,0.0,7.0,69,0.00,,CLR,0.00,VWS V14.01,2013-08-06 05:44:00,
2013-08-06 00:45:00,81.8,70.6,29.96,SE,139,9.0,9.0,69,0.00,,CLR,0.00,VWS V14.01,2013-08-06 05:45:00,
2013-08-06 00:46:00,82.0,70.4,29.95,SE,134,0.0,4.0,68,0.00,,CLR,0.00,VWS V14.01,2013-08-06 05:46:00,
2013-08-06 00:47:00,81.8,70.6,29.96,ESE,106,0.0,9.0,69,0.00,,CLR,0.00,VWS V14.01,2013-08-06 05:47:00,
2013-08-06 00:48:00,81.8,70.6,29.96,SSE,160,0.0,9.0,69,0.00,,CLR,0.00,VWS V14.01,2013-08-06 05:48:00,
2013-08-06 00:49:00,81.6,70.4,29.96,ESE,123,0.0,9.0,69,0.00,,CLR,0.00,VWS V14.01,2013-08-06 05:49:00,
2013-08-06 00:50:00,81.6,70.4,29.96,SE,127,0.0,0.0,69,0.00,,CLR,0.00,VWS V14.01,2013-08-06 05:50:00,
2013-08-06 00:51:00,81.8,70.6,29.95,South,171,3.0,7.0,69,0.00,,CLR,0.00,VWS V14.01,2013-08-06 05:51:00,
2013-08-06 00:52:00,81.6,70.4,29.96,NE,49,2.0,5.0,69,0.00,,CLR,0.00,VWS V14.01,2013-08-06 05:52:00,
2013-08-06 00:53:00,81.6,70.4,29.96,SSE,151,1.0,6.0,69,0.00,,CLR,0.00,VWS V14.01,2013-08-06 05:53:00,
2013-08-06 00:54:00,81.6,70.4,29.96,ESE,117,3.0,9.0,69,0.00,,CLR,0.00,VWS V14.01,2013-08-06 05:54:00,
2013-08-06 00:55:00,81.6,70.4,29.96,SSE,160,0.0,9.0,69,0.00,,CLR,0.00,VWS V14.01,2013-08-06 05:55:00,
2013-08-06 00:56:00,81.8,70.6,29.96,SE,128,0.0,9.0,69,0.00,,CLR,0.00,VWS V14.01,2013-08-06 05:56:00,
2013-08-06 00:57:00,81.6,70.4,29.96,SSE,153,0.0,9.0,69,0.00,,CLR,0.00,VWS V14.01,2013-08-06 05:57:00,
2013-08-06 00:58:00,81.4,70.3,29.96,SE,145,2.0,9.0,69,0.00,,CLR,0.00,VWS V14.01,2013-08-06 05:58:00,
2013-08-06 00:59:00,81.4,70.7,29.94,SE,136,0.0,10.0,70,0.00,,CLR,0.00,VWS V14.01,2013-08-06 05:59:00,
2013-08-06 01:00:00,81.4,70.7,29.94,SE,128,0.0,0.0,70,0.00,,CLR,0.00,VWS V14.01,2013-08-06 06:00:00,
2013-08-06 01:01:00,81.6,70.4,29.96,SE,137,0.0,0.0,69,0.00,,CLR,0.00,VWS V14.01,2013-08-06 06:01:00,
2013-08-06 01:02:00,81.4,70.7,29.94,SSE,159,5.0,6.0,70,0.00,,CLR,0.00,VWS V14.01,2013-08-06 06:02:00,
2013-08-06 01:03:00,81.4,70.7,29.94,SSE,152,6.0,7.0,70,0.00,,CLR,0.00,VWS V14.01,2013-08-06 06:03:00,
2013-08-06 01:04:00,81.2,70.5,29.94,SE,140,2.0,7.0,70,0.00,,CLR,0.00,VWS V14.01,2013-08-06 06:04:00,
2013-08-06 01:05:00,81.2,70.5,29.94,SE,144,0.0,7.0,70,0.00,,CLR,0.00,VWS V14.01,2013-08-06 06:05:00,
2013-08-06 01:06:00,81.6,70.4,29.96,SSE,153,0.0,9.0,69,0.00,,CLR,0.00,VWS V14.01,2013-08-06 06:06:00,
2013-08-06 01:07:00,81.2,70.5,29.94,SSE,162,8.0,8.0,70,0.00,,CLR,0.00,VWS V14.01,2013-08-06 06:07:00,
2013-08-06 01:08:00,81.2,70.5,29.94,SSE,147,0.0,8.0,70,0.00,,CLR,0.00,VWS V14.01,2013-08-06 06:08:00,
2013-08-06 01:09:00,81.2,70.5,29.94,ESE,114,6.0,9.0,70,0.00,,CLR,0.00,VWS V14.01,2013-08-06 06:09:00,
2013-08-06 01:10:00,81.1,70.4,29.94,SSE,166,2.0,5.0,70,0.00,,CLR,0.00,VWS V14.01,2013-08-06 06:10:00,
2013-08-06 01:11:00,81.4,70.7,29.94,SSE,165,1.0,6.0,70,0.00,,CLR,0.00,VWS V14.01,2013-08-06 06:11:00,
2013-08-06 01:12:00,81.1,70.8,29.94,North,360,7.0,10.0,71,0.00,,CLR,0.00,VWS V14.01,2013-08-06 06:12:00,
2013-08-06 01:13:00,81.1,70.8,29.94,SSE,155,3.0,10.0,71,0.00,,CLR,0.00,VWS V14.01,2013-08-06 06:13:00,
2013-08-06 01:14:00,81.1,70.8,29.94,East,90,0.0,10.0,71,0.00,,CLR,0.00,VWS V14.01,2013-08-06 06:14:00,
2013-08-06 01:15:00,81.1,70.8,29.94,ESE,121,0.0,10.0,71,0.00,,CLR,0.00,VWS V14.01,2013-08-06 06:15:00,
2013-08-06 01:16:00,81.2,70.5,29.94,SSE,155,0.0,7.0,70,0.00,,CLR,0.00,VWS V14.01,2013-08-06 06:16:00,
2013-08-06 01:17:00,81.1,70.8,29.94,SE,137,0.0,10.0,71,0.00,,CLR,0.00,VWS V14.01,2013-08-06 06:17:00,
2013-08-06 01:18:00,80.9,70.6,29.94,SSE,159,1.0,10.0,71,0.00,,CLR,0.00,VWS V14.01,2013-08-06 06:18:00,
2013-08-06 01:19:00,80.9,71.0,29.94,SE,131,2.0,10.0,72,0.00,,CLR,0.00,VWS V14.01,2013-08-06 06:19:00,
2013-08-06 01:20:00,80.9,71.0,29.94,SSE,155,0.0,5.0,72,0.00,,CLR,0.00,VWS V14.01,2013-08-06 06:20:00,
2013-08-06 01:21:00,81.1,70.8,29.94,SSE,155,1.0,8.0,71,0.00,,CLR,0.00,VWS V14.01,2013-08-06 06:21:00,
2013-08-06 01:22:00,80.9,70.2,29.94,SSE,161,5.0,6.0,70,0.00,,CLR,0.00,VWS V14.01,2013-08-06 06:22:00,
2013-08-06 01:23:00,80.9,71.0,29.94,SE,146,0.0,6.0,72,0.00,,CLR,0.00,VWS V14.01,2013-08-06 06:23:00,
2013-08-06 01:24:00,80.9,71.0,29.94,SSE,165,0.0,6.0,72,0.00,,CLR,0.00,VWS V14.01,2013-08-06 06:24:00,
2013-08-06 01:25:00,80.9,71.0,29.94,SE,126,3.0,6.0,72,0.00,,CLR,0.00,VWS V14.01,2013-08-06 06:25:00,
2013-08-06 01:26:00,81.1,70.8,29.94,South,170,7.0,10.0,71,0.00,,CLR,0.00,VWS V14.01,2013-08-06 06:26:00,
2013-08-06 01:27:00,80.9,71.0,29.94,SSE,156,0.0,9.0,72,0.00,,CLR,0.00,VWS V14.01,2013-08-06 06:27:00,
2013-08-06 01:28:00,80.7,71.2,29.94,SSW,192,0.0,9.0,73,0.00,,CLR,0.00,VWS V14.01,2013-08-06 06:28:00,
2013-08-06 01:29:00,80.7,71.2,29.94,South,184,0.0,9.0,73,0.00,,CLR,0.00,VWS V14.01,2013-08-06 06:29:00,
2013-08-06 01:30:00,80.7,71.2,29.94,SSE,155,4.0,4.0,73,0.00,,CLR,0.00,VWS V14.01,2013-08-06 06:30:00,
2013-08-06 01:31:00,80.9,71.0,29.94,SE,139,2.0,5.0,72,0.00,,CLR,0.00,VWS V14.01,2013-08-06 06:31:00,
2013-08-06 01:32:00,80.7,71.2,29.94,SSE,162,0.0,10.0,73,0.00,,CLR,0.00,VWS V14.01,2013-08-06 06:32:00,
2013-08-06 01:33:00,80.7,71.2,29.94,SE,127,0.0,10.0,73,0.00,,CLR,0.00,VWS V14.01,2013-08-06 06:33:00,
2013-08-06 01:34:00,80.7,71.2,29.94,SE,137,1.0,10.0,73,0.00,,CLR,0.00,VWS V14.01,2013-08-06 06:34:00,
2013-08-06 01:35:00,80.7,71.2,29.94,SE,144,1.0,10.0,73,0.00,,CLR,0.00,VWS V14.01,2013-08-06 06:35:00,
2013-08-06 01:36:00,80.9,71.0,29.94,South,169,0.0,9.0,72,0.00,,CLR,0.00,VWS V14.01,2013-08-06 06:36:00,
2013-08-06 01:37:00,80.5,71.5,29.94,South,174,4.0,10.0,74,0.00,,CLR,0.00,VWS V14.01,2013-08-06 06:37:00,
2013-08-06 01:38:00,80.5,71.5,29.94,ESE,109,2.0,10.0,74,0.00,,CLR,0.00,VWS V14.01,2013-08-06 06:38:00,
2013-08-06 01:39:00,80.5,71.5,29.94,ESE,106,4.0,10.0,74,0.00,,CLR,0.00,VWS V14.01,2013-08-06 06:39:00,
2013-08-06 01:40:00,80.5,71.5,29.94,SSE,166,6.0,7.0,74,0.00,,CLR,0.00,VWS V14.01,2013-08-06 06:40:00,
2013-08-06 01:41:00,80.7,71.2,29.94,SSE,147,4.0,10.0,73,0.00,,CLR,0.00,VWS V14.01,2013-08-06 06:41:00,
2013-08-06 01:42:00,80.5,71.5,29.94,SSE,157,2.0,8.0,74,0.00,,CLR,0.00,VWS V14.01,2013-08-06 06:42:00,
2013-08-06 01:43:00,80.5,71.5,29.94,South,171,4.0,8.0,74,0.00,,CLR,0.00,VWS V14.01,2013-08-06 06:43:00,
2013-08-06 01:44:00,80.3,71.3,29.93,SE,144,3.0,8.0,74,0.00,,CLR,0.00,VWS V14.01,2013-08-06 06:44:00,
2013-08-06 01:45:00,80.3,71.3,29.93,SSE,160,1.0,8.0,74,0.00,,CLR,0.00,VWS V14.01,2013-08-06 06:45:00,
2013-08-06 01:46:00,80.5,71.1,29.94,SE,127,0.0,10.0,73,0.00,,CLR,0.00,VWS V14.01,2013-08-06 06:46:00,
2013-08-06 01:47:00,80.3,71.3,29.93,SSE,165,3.0,10.0,74,0.00,,CLR,0.00,VWS V14.01,2013-08-06 06:47:00,
2013-08-06 01:48:00,80.3,71.3,29.93,SSE,153,0.0,10.0,74,0.00,,CLR,0.00,VWS V14.01,2013-08-06 06:48:00,
2013-08-06 01:49:00,80.3,71.3,29.93,SE,140,5.0,10.0,74,0.00,,CLR,0.00,VWS V14.01,2013-08-06 06:49:00,
2013-08-06 01:50:00,80.3,71.3,29.93,SSE,158,0.0,6.0,74,0.00,,CLR,0.00,VWS V14.01,2013-08-06 06:50:00,
2013-08-06 01:51:00,80.5,71.5,29.94,SSE,147,5.0,7.0,74,0.00,,CLR,0.00,VWS V14.01,2013-08-06 06:51:00,
2013-08-06 01:52:00,80.3,71.7,29.93,SE,142,9.0,9.0,75,0.00,,CLR,0.00,VWS V14.01,2013-08-06 06:52:00,
2013-08-06 01:53:00,80.3,71.7,29.93,SSE,152,3.0,9.0,75,0.00,,CLR,0.00,VWS V14.01,2013-08-06 06:53:00,
2013-08-06 01:54:00,80.3,71.7,29.93,SE,130,2.0,9.0,75,0.00,,CLR,0.00,VWS V14.01,2013-08-06 06:54:00,
2013-08-06 01:55:00,80.1,71.5,29.93,SSE,163,0.0,9.0,75,0.00,,CLR,0.00,VWS V14.01,2013-08-06 06:55:00,
2013-08-06 01:56:00,80.3,71.3,29.93,SE,134,2.0,8.0,74,0.00,,CLR,0.00,VWS V14.01,2013-08-06 06:56:00,
2013-08-06 01:57:00,80.1,71.5,29.93,ESE,115,0.0,9.0,75,0.00,,CLR,0.00,VWS V14.01,2013-08-06 06:57:00,
2013-08-06 01:58:00,80.1,71.5,29.93,SSE,160,0.0,9.0,75,0.00,,CLR,0.00,VWS V14.01,2013-08-06 06:58:00,
2013-08-06 01:59:00,80.1,71.5,29.93,SSE,153,0.0,9.0,75,0.00,,CLR,0.00,VWS V14.01,2013-08-06 06:59:00,
2013-08-06 02:00:00,80.1,71.5,29.93,SSE,163,9.0,9.0,75,0.00,,CLR,0.00,VWS V14.01,2013-08-06 07:00:00,
2013-08-06 02:01:00,80.3,71.7,29.93,SSE,159,6.0,7.0,75,0.00,,CLR,0.00,VWS V14.01,2013-08-06 07:01:00,
2013-08-06 02:02:00,80.1,71.9,29.93,SSW,194,0.0,13.0,76,0.00,,CLR,0.00,VWS V14.01,2013-08-06 07:02:00,
2013-08-06 02:03:00,80.1,71.9,29.93,South,178,3.0,13.0,76,0.00,,CLR,0.00,VWS V14.01,2013-08-06 07:03:00,
2013-08-06 02:04:00,80.1,71.9,29.93,SSE,149,1.0,13.0,76,0.00,,CLR,0.00,VWS V14.01,2013-08-06 07:04:00,
2013-08-06 02:05:00,80.1,71.9,29.93,South,171,5.0,13.0,76,0.00,,CLR,0.00,VWS V14.01,2013-08-06 07:05:00,
2013-08-06 02:06:00,80.1,71.5,29.93,SSE,159,1.0,9.0,75,0.00,,CLR,0.00,VWS V14.01,2013-08-06 07:06:00,
2013-08-06 02:07:00,80.1,71.9,29.93,South,169,0.0,13.0,76,0.00,,CLR,0.00,VWS V14.01,2013-08-06 07:07:00,
2013-08-06 02:08:00,79.9,71.7,29.93,South,185,0.0,13.0,76,0.00,,CLR,0.00,VWS V14.01,2013-08-06 07:08:00,
2013-08-06 02:09:00,79.9,71.7,29.93,SSE,158,5.0,13.0,76,0.00,,CLR,0.00,VWS V14.01,2013-08-06 07:09:00,
2013-08-06 02:10:00,79.9,71.7,29.93,SE,144,2.0,5.0,76,0.00,,CLR,0.00,VWS V14.01,2013-08-06 07:10:00,
2013-08-06 02:11:00,80.1,71.9,29.93,South,173,3.0,13.0,76,0.00,,CLR,0.00,VWS V14.01,2013-08-06 07:11:00,
2013-08-06 02:12:00,79.9,71.7,29.93,SSW,198,3.0,5.0,76,0.00,,CLR,0.00,VWS V14.01,2013-08-06 07:12:00,
2013-08-06 02:13:00,79.9,71.7,29.93,South,178,0.0,5.0,76,0.00,,CLR,0.00,VWS V14.01,2013-08-06 07:13:00,
2013-08-06 02:14:00,79.9,71.7,29.93,ESE,117,1.0,10.0,76,0.00,,CLR,0.00,VWS V14.01,2013-08-06 07:14:00,
2013-08-06 02:15:00,79.9,71.7,29.93,South,179,0.0,10.0,76,0.00,,CLR,0.00,VWS V14.01,2013-08-06 07:15:00,
2013-08-06 02:16:00,80.1,71.9,29.93,South,182,0.0,13.0,76,0.00,,CLR,0.00,VWS V14.01,2013-08-06 07:16:00,
2013-08-06 02:17:00,79.9,71.7,29.93,SE,146,2.0,11.0,76,0.00,,CLR,0.00,VWS V14.01,2013-08-06 07:17:00,
2013-08-06 02:18:00,79.9,71.7,29.93,SSE,155,0.0,11.0,76,0.00,,CLR,0.00,VWS V14.01,2013-08-06 07:18:00,
2013-08-06 02:19:00,79.9,72.1,29.93,South,180,0.0,11.0,77,0.00,,CLR,0.00,VWS V14.01,2013-08-06 07:19:00,
2013-08-06 02:20:00,79.9,72.1,29.93,South,188,0.0,0.0,77,0.00,,CLR,0.00,VWS V14.01,2013-08-06 07:20:00,
2013-08-06 02:21:00,79.9,71.7,29.93,ESE,119,0.0,5.0,76,0.00,,CLR,0.00,VWS V14.01,2013-08-06 07:21:00,
2013-08-06 02:22:00,79.9,72.1,29.93,SSE,164,0.0,6.0,77,0.00,,CLR,0.00,VWS V14.01,2013-08-06 07:22:00,
2013-08-06 02:23:00,79.9,72.1,29.93,ESE,121,0.0,6.0,77,0.00,,CLR,0.00,VWS V14.01,2013-08-06 07:23:00,
2013-08-06 02:24:00,79.9,72.1,29.93,SE,127,0.0,6.0,77,0.00,,CLR,0.00,VWS V14.01,2013-08-06 07:24:00,
2013-08-06 02:25:00,79.9,72.1,29.93,ESE,121,5.0,6.0,77,0.00,,CLR,0.00,VWS V14.01,2013-08-06 07:25:00,
2013-08-06 02:26:00,79.9,71.7,29.93,ESE,121,4.0,11.0,76,0.00,,CLR,0.00,VWS V14.01,2013-08-06 07:26:00,
2013-08-06 02:27:00,79.9,72.1,29.93,SSE,149,3.0,6.0,77,0.00,,CLR,0.00,VWS V14.01,2013-08-06 07:27:00,
2013-08-06 02:28:00,79.9,72.1,29.93,SE,131,8.0,8.0,77,0.00,,CLR,0.00,VWS V14.01,2013-08-06 07:28:00,
2013-08-06 02:29:00,79.9,72.1,29.93,SSE,158,0.0,8.0,77,0.00,,CLR,0.00,VWS V14.01,2013-08-06 07:29:00,
2013-08-06 02:30:00,79.9,72.1,29.93,South,178,0.0,2.0,77,0.00,,CLR,0.00,VWS V14.01,2013-08-06 07:30:00,
2013-08-06 02:31:00,79.9,72.1,29.93,SSE,148,0.0,6.0,77,0.00,,CLR,0.00,VWS V14.01,2013-08-06 07:31:00,
2013-08-06 02:32:00,79.8,71.9,29.93,SSW,192,5.0,5.0,77,0.00,,CLR,0.00,VWS V14.01,2013-08-06 07:32:00,
2013-08-06 02:33:00,79.8,71.9,29.93,South,180,7.0,7.0,77,0.00,,CLR,0.00,VWS V14.01,2013-08-06 07:33:00,
2013-08-06 02:34:00,79.8,71.9,29.93,South,180,4.0,9.0,77,0.00,,CLR,0.00,VWS V14.01,2013-08-06 07:34:00,
2013-08-06 02:35:00,79.8,71.9,29.93,SSE,160,0.0,9.0,77,0.00,,CLR,0.00,VWS V14.01,2013-08-06 07:35:00,
2013-08-06 02:36:00,79.9,72.1,29.93,South,190,1.0,6.0,77,0.00,,CLR,0.00,VWS V14.01,2013-08-06 07:36:00,
2013-08-06 02:37:00,79.8,71.9,29.93,SSW,193,2.0,9.0,77,0.00,,CLR,0.00,VWS V14.01,2013-08-06 07:37:00,
2013-08-06 02:38:00,79.8,71.9,29.93,SE,134,5.0,9.0,77,0.00,,CLR,0.00,VWS V14.01,2013-08-06 07:38:00,
2013-08-06 02:39:00,79.8,71.9,29.93,SSW,195,7.0,9.0,77,0.00,,CLR,0.00,VWS V14.01,2013-08-06 07:39:00,
2013-08-06 02:40:00,79.8,71.9,29.93,SSE,161,0.0,6.0,77,0.00,,CLR,0.00,VWS V14.01,2013-08-06 07:40:00,
2013-08-06 02:41:00,79.8,71.9,29.93,South,182,3.0,4.0,77,0.00,,CLR,0.00,VWS V14.01,2013-08-06 07:41:00,
2013-08-06 02:42:00,79.8,71.9,29.93,SSE,161,0.0,6.0,77,0.00,,CLR,0.00,VWS V14.01,2013-08-06 07:42:00,
2013-08-06 02:43:00,79.8,71.9,29.93,SE,138,0.0,6.0,77,0.00,,CLR,0.00,VWS V14.01,2013-08-06 07:43:00,
2013-08-06 02:44:00,79.8,71.9,29.93,South,176,3.0,10.0,77,0.00,,CLR,0.00,VWS V14.01,2013-08-06 07:44:00,
2013-08-06 02:45:00,79.8,71.9,29.93,SSE,153,0.0,10.0,77,0.00,,CLR,0.00,VWS V14.01,2013-08-06 07:45:00,
2013-08-06 02:46:00,79.8,71.9,29.93,South,171,2.0,9.0,77,0.00,,CLR,0.00,VWS V14.01,2013-08-06 07:46:00,
2013-08-06 02:47:00,79.8,71.9,29.93,SSE,151,0.0,10.0,77,0.00,,CLR,0.00,VWS V14.01,2013-08-06 07:47:00,
2013-08-06 02:48:00,79.6,71.8,29.93,SSE,153,0.0,10.0,77,0.00,,CLR,0.00,VWS V14.01,2013-08-06 07:48:00,
2013-08-06 02:49:00,79.6,71.8,29.93,SSE,166,0.0,10.0,77,0.00,,CLR,0.00,VWS V14.01,2013-08-06 07:49:00,
2013-08-06 02:50:00,79.6,71.8,29.93,South,176,0.0,4.0,77,0.00,,CLR,0.00,VWS V14.01,2013-08-06 07:50:00,
2013-08-06 02:51:00,79.8,71.9,29.93,SSE,161,0.0,6.0,77,0.00,,CLR,0.00,VWS V14.01,2013-08-06 07:51:00,
2013-08-06 02:52:00,79.6,72.1,29.93,SSE,154,4.0,4.0,78,0.00,,CLR,0.00,VWS V14.01,2013-08-06 07:52:00,
2013-08-06 02:53:00,79.6,72.1,29.93,SSE,162,4.0,7.0,78,0.00,,CLR,0.00,VWS V14.01,2013-08-06 07:53:00,
2013-08-06 02:54:00,79.6,72.1,29.93,South,188,5.0,7.0,78,0.00,,CLR,0.00,VWS V14.01,2013-08-06 07:54:00,
2013-08-06 02:55:00,79.6,72.1,29.93,South,182,0.0,7.0,78,0.00,,CLR,0.00,VWS V14.01,2013-08-06 07:55:00,
2013-08-06 02:56:00,79.8,71.9,29.93,SSE,150,1.0,10.0,77,0.00,,CLR,0.00,VWS V14.01,2013-08-06 07:56:00,
2013-08-06 02:57:00,79.6,72.1,29.93,SSE,164,0.0,7.0,78,0.00,,CLR,0.00,VWS V14.01,2013-08-06 07:57:00,
2013-08-06 02:58:00,79.6,72.1,29.93,SSE,164,0.0,7.0,78,0.00,,CLR,0.00,VWS V14.01,2013-08-06 07:58:00,
2013-08-06 02:59:00,79.6,72.1,29.94,SSE,168,0.0,7.0,78,0.00,,CLR,0.00,VWS V14.01,2013-08-06 07:59:00,
2013-08-06 03:00:00,79.6,72.1,29.94,SSE,167,0.0,0.0,78,0.00,,CLR,0.00,VWS V14.01,2013-08-06 08:00:00,
2013-08-06 03:01:00,79.6,71.8,29.93,SSE,153,0.0,4.0,77,0.00,,CLR,0.00,VWS V14.01,2013-08-06 08:01:00,
2013-08-06 03:02:00,79.6,72.1,29.94,SSE,167,0.0,1.0,78,0.00,,CLR,0.00,VWS V14.01,2013-08-06 08:02:00,
2013-08-06 03:03:00,79.6,72.1,29.94,SSE,163,0.0,1.0,78,0.00,,CLR,0.00,VWS V14.01,2013-08-06 08:03:00,
2013-08-06 03:04:00,79.6,72.1,29.94,SSE,161,6.0,9.0,78,0.00,,CLR,0.00,VWS V14.01,2013-08-06 08:04:00,
2013-08-06 03:05:00,79.6,72.1,29.94,South,184,0.0,9.0,78,0.00,,CLR,0.00,VWS V14.01,2013-08-06 08:05:00,
2013-08-06 03:06:00,79.6,72.1,29.93,South,180,0.0,7.0,78,0.00,,CLR,0.00,VWS V14.01,2013-08-06 08:06:00,
2013-08-06 03:07:00,79.4,71.9,29.94,South,184,0.0,9.0,78,0.00,,CLR,0.00,VWS V14.01,2013-08-06 08:07:00,
2013-08-06 03:08:00,79.4,71.9,29.94,SSE,159,0.0,9.0,78,0.00,,CLR,0.00,VWS V14.01,2013-08-06 08:08:00,
2013-08-06 03:09:00,79.4,71.9,29.94,SSE,159,0.0,9.0,78,0.00,,CLR,0.00,VWS V14.01,2013-08-06 08:09:00,
2013-08-06 03:10:00,79.4,71.9,29.94,SSE,148,0.0,0.0,78,0.00,,CLR,0.00,VWS V14.01,2013-08-06 08:10:00,
2013-08-06 03:11:00,79.6,72.1,29.94,SSE,167,0.0,1.0,78,0.00,,CLR,0.00,VWS V14.01,2013-08-06 08:11:00,
2013-08-06 03:12:00,79.4,71.9,29.94,South,184,3.0,6.0,78,0.00,,CLR,0.00,VWS V14.01,2013-08-06 08:12:00,
2013-08-06 03:13:00,79.4,71.9,29.94,South,186,2.0,6.0,78,0.00,,CLR,0.00,VWS V14.01,2013-08-06 08:13:00,
2013-08-06 03:14:00,79.4,71.9,29.93,SSE,168,0.0,6.0,78,0.00,,CLR,0.00,VWS V14.01,2013-08-06 08:14:00,
2013-08-06 03:15:00,79.4,71.9,29.93,SSE,168,1.0,6.0,78,0.00,,CLR,0.00,VWS V14.01,2013-08-06 08:15:00,
2013-08-06 03:16:00,79.4,71.9,29.94,South,184,0.0,9.0,78,0.00,,CLR,0.00,VWS V14.01,2013-08-06 08:16:00,
2013-08-06 03:17:00,79.4,71.9,29.93,South,171,2.0,6.0,78,0.00,,CLR,0.00,VWS V14.01,2013-08-06 08:17:00,
2013-08-06 03:18:00,79.4,71.9,29.93,South,189,4.0,6.0,78,0.00,,CLR,0.00,VWS V14.01,2013-08-06 08:18:00,
2013-08-06 03:19:00,79.4,71.9,29.93,SSE,167,3.0,6.0,78,0.00,,CLR,0.00,VWS V14.01,2013-08-06 08:19:00,
2013-08-06 03:20:00,79.2,71.8,29.93,South,185,0.0,3.0,78,0.00,,CLR,0.00,VWS V14.01,2013-08-06 08:20:00,
2013-08-06 03:21:00,79.4,71.9,29.94,South,172,0.0,5.0,78,0.00,,CLR,0.00,VWS V14.01,2013-08-06 08:21:00,
2013-08-06 03:22:00,79.2,71.8,29.93,South,173,0.0,6.0,78,0.00,,CLR,0.00,VWS V14.01,2013-08-06 08:22:00,
2013-08-06 03:23:00,79.2,71.8,29.93,South,173,0.0,6.0,78,0.00,,CLR,0.00,VWS V14.01,2013-08-06 08:23:00,
2013-08-06 03:24:00,79.2,71.8,29.93,South,173,0.0,6.0,78,0.00,,CLR,0.00,VWS V14.01,2013-08-06 08:24:00,
2013-08-06 03:25:00,79.2,71.8,29.93,South,173,0.0,6.0,78,0.00,,CLR,0.00,VWS V14.01,2013-08-06 08:25:00,
2013-08-06 03:26:00,79.4,71.9,29.93,SSW,193,0.0,6.0,78,0.00,,CLR,0.00,VWS V14.01,2013-08-06 08:26:00,
2013-08-06 03:27:00,79.2,71.8,29.93,SSE,167,0.0,6.0,78,0.00,,CLR,0.00,VWS V14.01,2013-08-06 08:27:00,
2013-08-06 03:28:00,79.2,71.8,29.93,SSE,167,0.0,6.0,78,0.00,,CLR,0.00,VWS V14.01,2013-08-06 08:28:00,
2013-08-06 03:29:00,79.2,71.8,29.93,SSE,167,0.0,6.0,78,0.00,,CLR,0.00,VWS V14.01,2013-08-06 08:29:00,
2013-08-06 03:30:00,79.2,71.8,29.93,South,186,0.0,6.0,78,0.00,,CLR,0.00,VWS V14.01,2013-08-06 08:30:00,
2013-08-06 03:31:00,79.2,71.8,29.93,South,173,5.0,6.0,78,0.00,,CLR,0.00,VWS V14.01,2013-08-06 08:31:00,
2013-08-06 03:32:00,79.2,71.8,29.93,South,176,0.0,6.0,78,0.00,,CLR,0.00,VWS V14.01,2013-08-06 08:32:00,
2013-08-06 03:33:00,79.2,71.8,29.93,South,182,2.0,8.0,78,0.00,,CLR,0.00,VWS V14.01,2013-08-06 08:33:00,
2013-08-06 03:34:00,79.0,71.6,29.93,South,171,0.0,8.0,78,0.00,,CLR,0.00,VWS V14.01,2013-08-06 08:34:00,
2013-08-06 03:35:00,79.0,71.6,29.93,South,190,1.0,8.0,78,0.00,,CLR,0.00,VWS V14.01,2013-08-06 08:35:00,
2013-08-06 03:36:00,79.2,71.8,29.93,SSE,167,0.0,6.0,78,0.00,,CLR,0.00,VWS V14.01,2013-08-06 08:36:00,
2013-08-06 03:37:00,79.0,71.6,29.93,South,182,5.0,8.0,78,0.00,,CLR,0.00,VWS V14.01,2013-08-06 08:37:00,
2013-08-06 03:38:00,79.0,71.6,29.93,SSE,163,1.0,8.0,78,0.00,,CLR,0.00,VWS V14.01,2013-08-06 08:38:00,
2013-08-06 03:39:00,79.0,71.6,29.93,South,185,2.0,8.0,78,0.00,,CLR,0.00,VWS V14.01,2013-08-06 08:39:00,
2013-08-06 03:40:00,79.0,71.6,29.93,South,185,0.0,0.0,78,0.00,,CLR,0.00,VWS V14.01,2013-08-06 08:40:00,
2013-08-06 03:41:00,79.2,71.8,29.93,South,176,0.0,6.0,78,0.00,,CLR,0.00,VWS V14.01,2013-08-06 08:41:00,
2013-08-06 03:42:00,79.0,71.6,29.93,South,185,0.0,0.0,78,0.00,,CLR,0.00,VWS V14.01,2013-08-06 08:42:00,
2013-08-06 03:43:00,79.0,71.6,29.93,South,185,0.0,0.0,78,0.00,,CLR,0.00,VWS V14.01,2013-08-06 08:43:00,
2013-08-06 03:44:00,79.0,71.6,29.93,South,180,7.0,7.0,78,0.00,,CLR,0.00,VWS V14.01,2013-08-06 08:44:00,
2013-08-06 03:45:00,79.0,71.6,29.93,South,176,0.0,9.0,78,0.00,,CLR,0.00,VWS V14.01,2013-08-06 08:45:00,
2013-08-06 03:46:00,79.0,71.6,29.93,South,190,0.0,8.0,78,0.00,,CLR,0.00,VWS V14.01,2013-08-06 08:46:00,
2013-08-06 03:47:00,79.0,71.6,29.93,South,172,0.0,9.0,78,0.00,,CLR,0.00,VWS V14.01,2013-08-06 08:47:00,
2013-08-06 03:48:00,79.0,71.9,29.93,SSE,148,0.0,9.0,79,0.00,,CLR,0.00,VWS V14.01,2013-08-06 08:48:00,
2013-08-06 03:49:00,79.0,71.9,29.93,SSE,148,0.0,9.0,79,0.00,,CLR,0.00,VWS V14.01,2013-08-06 08:49:00,
2013-08-06 03:50:00,79.0,71.9,29.93,SSE,148,0.0,0.0,79,0.00,,CLR,0.00,VWS V14.01,2013-08-06 08:50:00,
2013-08-06 03:51:00,79.0,71.6,29.93,South,185,0.0,0.0,78,0.00,,CLR,0.00,VWS V14.01,2013-08-06 08:51:00,
2013-08-06 03:52:00,79.0,71.9,29.93,South,176,0.0,3.0,79,0.00,,CLR,0.00,VWS V14.01,2013-08-06 08:52:00,
2013-08-06 03:53:00,79.0,71.9,29.93,South,176,0.0,3.0,79,0.00,,CLR,0.00,VWS V14.01,2013-08-06 08:53:00,
2013-08-06 03:54:00,79.0,71.9,29.93,South,176,0.0,3.0,79,0.00,,CLR,0.00,VWS V14.01,2013-08-06 08:54:00,
2013-08-06 03:55:00,79.0,71.9,29.93,South,176,0.0,3.0,79,0.00,,CLR,0.00,VWS V14.01,2013-08-06 08:55:00,
2013-08-06 03:56:00,79.0,71.6,29.93,South,173,1.0,9.0,78,0.00,,CLR,0.00,VWS V14.01,2013-08-06 08:56:00,
2013-08-06 03:57:00,79.0,71.9,29.93,SSW,193,0.0,6.0,79,0.00,,CLR,0.00,VWS V14.01,2013-08-06 08:57:00,
2013-08-06 03:58:00,79.0,71.9,29.93,SSW,192,0.0,6.0,79,0.00,,CLR,0.00,VWS V14.01,2013-08-06 08:58:00,
2013-08-06 03:59:00,79.0,71.9,29.93,SSW,192,0.0,6.0,79,0.00,,CLR,0.00,VWS V14.01,2013-08-06 08:59:00,
2013-08-06 04:00:00,79.0,71.9,29.93,SSW,192,0.0,0.0,79,0.00,,CLR,0.00,VWS V14.01,2013-08-06 09:00:00,
2013-08-06 04:01:00,79.0,71.9,29.93,South,176,0.0,3.0,79,0.00,,CLR,0.00,VWS V14.01,2013-08-06 09:01:00,
2013-08-06 04:02:00,79.0,71.9,29.93,South,171,0.0,0.0,79,0.00,,CLR,0.00,VWS V14.01,2013-08-06 09:02:00,
2013-08-06 04:03:00,79.0,71.9,29.93,South,171,0.0,0.0,79,0.00,,CLR,0.00,VWS V14.01,2013-08-06 09:03:00,
2013-08-06 04:04:00,79.0,71.9,29.93,South,172,0.0,0.0,79,0.00,,CLR,0.00,VWS V14.01,2013-08-06 09:04:00,
2013-08-06 04:05:00,79.0,71.9,29.93,South,186,1.0,2.0,79,0.00,,CLR,0.00,VWS V14.01,2013-08-06 09:05:00,
2013-08-06 04:06:00,79.0,71.9,29.93,SSE,159,5.0,6.0,79,0.00,,CLR,0.00,VWS V14.01,2013-08-06 09:06:00,
2013-08-06 04:07:00,79.0,71.9,29.93,South,185,0.0,4.0,79,0.00,,CLR,0.00,VWS V14.01,2013-08-06 09:07:00,
2013-08-06 04:08:00,79.0,71.9,29.93,South,176,0.0,4.0,79,0.00,,CLR,0.00,VWS V14.01,2013-08-06 09:08:00,
2013-08-06 04:09:00,79.0,71.9,29.93,South,184,3.0,8.0,79,0.00,,CLR,0.00,VWS V14.01,2013-08-06 09:09:00,
2013-08-06 04:10:00,79.0,71.9,29.93,South,182,0.0,0.0,79,0.00,,CLR,0.00,VWS V14.01,2013-08-06 09:10:00,
2013-08-06 04:11:00,79.0,71.9,29.93,South,171,0.0,0.0,79,0.00,,CLR,0.00,VWS V14.01,2013-08-06 09:11:00,
2013-08-06 04:12:00,79.0,71.9,29.93,South,178,0.0,1.0,79,0.00,,CLR,0.00,VWS V14.01,2013-08-06 09:12:00,
2013-08-06 04:13:00,79.0,71.9,29.93,South,188,0.0,1.0,79,0.00,,CLR,0.00,VWS V14.01,2013-08-06 09:13:00,
2013-08-06 04:14:00,79.0,71.9,29.93,SSE,165,5.0,5.0,79,0.00,,CLR,0.00,VWS V14.01,2013-08-06 09:14:00,
2013-08-06 04:15:00,79.0,71.9,29.93,SSE,167,0.0,5.0,79,0.00,,CLR,0.00,VWS V14.01,2013-08-06 09:15:00,
2013-08-06 04:16:00,79.0,71.9,29.93,South,185,0.0,4.0,79,0.00,,CLR,0.00,VWS V14.01,2013-08-06 09:16:00,
2013-08-06 04:17:00,79.0,71.9,29.93,South,171,0.0,5.0,79,0.00,,BKN019,0.00,VWS V14.01,2013-08-06 09:17:00,
2013-08-06 04:18:00,79.0,71.9,29.93,SSE,165,0.0,5.0,79,0.00,,BKN019,0.00,VWS V14.01,2013-08-06 09:18:00,
2013-08-06 04:19:00,79.0,71.9,29.93,South,182,0.0,5.0,79,0.00,,BKN019,0.00,VWS V14.01,2013-08-06 09:19:00,
2013-08-06 04:20:00,79.0,71.9,29.93,South,182,0.0,0.0,79,0.00,,BKN019,0.00,VWS V14.01,2013-08-06 09:20:00,
2013-08-06 04:21:00,79.0,71.9,29.93,South,178,0.0,1.0,79,0.00,,CLR,0.00,VWS V14.01,2013-08-06 09:21:00,
2013-08-06 04:22:00,79.0,71.9,29.93,South,182,0.0,0.0,79,0.00,,BKN019,0.00,VWS V14.01,2013-08-06 09:22:00,
2013-08-06 04:23:00,79.0,71.9,29.93,South,182,2.0,2.0,79,0.00,,BKN019,0.00,VWS V14.01,2013-08-06 09:23:00,
2013-08-06 04:24:00,79.2,72.1,29.93,SSW,197,0.0,6.0,79,0.00,,BKN019,0.00,VWS V14.01,2013-08-06 09:24:00,
2013-08-06 04:25:00,79.2,72.1,29.93,SSW,197,0.0,6.0,79,0.00,,BKN019,0.00,VWS V14.01,2013-08-06 09:25:00,
2013-08-06 04:26:00,79.0,71.9,29.93,South,171,0.0,5.0,79,0.00,,BKN019,0.00,VWS V14.01,2013-08-06 09:26:00,
2013-08-06 04:27:00,79.2,72.1,29.93,SSE,168,0.0,8.0,79,0.00,,BKN019,0.00,VWS V14.01,2013-08-06 09:27:00,
2013-08-06 04:28:00,79.2,72.1,29.93,South,188,7.0,8.0,79,0.00,,BKN019,0.00,VWS V14.01,2013-08-06 09:28:00,
2013-08-06 04:29:00,79.2,72.1,29.94,SSW,194,0.0,9.0,79,0.00,,BKN019,0.00,VWS V14.01,2013-08-06 09:29:00,
2013-08-06 04:30:00,79.2,72.1,29.94,South,180,0.0,0.0,79,0.00,,BKN019,0.00,VWS V14.01,2013-08-06 09:30:00,
2013-08-06 04:31:00,79.0,71.9,29.93,South,182,0.0,0.0,79,0.00,,BKN019,0.00,VWS V14.01,2013-08-06 09:31:00,
2013-08-06 04:32:00,79.2,72.5,29.94,South,171,0.0,7.0,80,0.00,,BKN019,0.00,VWS V14.01,2013-08-06 09:32:00,
2013-08-06 04:33:00,79.2,72.5,29.94,SSE,168,0.0,7.0,80,0.00,,BKN019,0.00,VWS V14.01,2013-08-06 09:33:00,
2013-08-06 04:34:00,79.2,72.5,29.94,South,171,0.0,10.0,80,0.00,,BKN019,0.00,VWS V14.01,2013-08-06 09:34:00,
2013-08-06 04:35:00,79.2,72.5,29.94,SSE,163,3.0,10.0,80,0.00,,BKN019,0.00,VWS V14.01,2013-08-06 09:35:00,
2013-08-06 04:36:00,79.2,72.1,29.93,SSE,168,0.0,8.0,79,0.00,,BKN019,0.00,VWS V14.01,2013-08-06 09:36:00,
2013-08-06 04:37:00,79.2,72.5,29.94,South,175,0.0,10.0,80,0.00,,BKN019,0.00,VWS V14.01,2013-08-06 09:37:00,
2013-08-06 04:38:00,79.2,72.5,29.94,South,190,4.0,10.0,80,0.00,,BKN019,0.00,VWS V14.01,2013-08-06 09:38:00,
2013-08-06 04:39:00,79.2,72.5,29.94,South,187,0.0,10.0,80,0.00,,BKN019,0.00,VWS V14.01,2013-08-06 09:39:00,
2013-08-06 04:40:00,79.2,72.5,29.94,South,187,0.0,0.0,80,0.00,,BKN019,0.00,VWS V14.01,2013-08-06 09:40:00,
2013-08-06 04:41:00,79.2,72.5,29.94,SSE,167,3.0,7.0,80,0.00,,BKN019,0.00,VWS V14.01,2013-08-06 09:41:00,
2013-08-06 04:42:00,79.2,72.5,29.94,South,171,0.0,5.0,80,0.00,,BKN019,0.00,VWS V14.01,2013-08-06 09:42:00,
2013-08-06 04:43:00,79.0,72.3,29.94,South,178,0.0,5.0,80,0.00,,BKN019,0.00,VWS V14.01,2013-08-06 09:43:00,
2013-08-06 04:44:00,79.0,72.3,29.94,SSE,165,0.0,5.0,80,0.00,,BKN019,0.00,VWS V14.01,2013-08-06 09:44:00,
2013-08-06 04:45:00,79.0,72.3,29.94,South,179,0.0,5.0,80,0.00,,BKN019,0.00,VWS V14.01,2013-08-06 09:45:00,
2013-08-06 04:46:00,79.2,72.5,29.94,South,175,0.0,10.0,80,0.00,,BKN019,0.00,VWS V14.01,2013-08-06 09:46:00,
2013-08-06 04:47:00,79.0,72.3,29.94,South,177,1.0,6.0,80,0.00,,OVC019,0.00,VWS V14.01,2013-08-06 09:47:00,
2013-08-06 04:48:00,79.0,72.3,29.94,SSE,165,0.0,6.0,80,0.00,,OVC019,0.00,VWS V14.01,2013-08-06 09:48:00,
2013-08-06 04:49:00,79.0,72.7,29.94,SSE,165,0.0,6.0,81,0.00,,OVC019,0.00,VWS V14.01,2013-08-06 09:49:00,
2013-08-06 04:50:00,79.0,72.3,29.94,SSW,193,3.0,5.0,80,0.00,,OVC019,0.00,VWS V14.01,2013-08-06 09:50:00,
2013-08-06 04:51:00,79.2,72.5,29.94,South,171,4.0,5.0,80,0.00,,BKN019,0.00,VWS V14.01,2013-08-06 09:51:00,
2013-08-06 04:52:00,79.0,72.7,29.94,South,175,1.0,5.0,81,0.00,,OVC019,0.00,VWS V14.01,2013-08-06 09:52:00,
2013-08-06 04:53:00,79.0,72.7,29.94,South,175,0.0,5.0,81,0.00,,OVC019,0.00,VWS V14.01,2013-08-06 09:53:00,
2013-08-06 04:54:00,79.0,72.7,29.94,South,175,0.0,5.0,81,0.00,,OVC019,0.00,VWS V14.01,2013-08-06 09:54:00,
2013-08-06 04:55:00,79.0,72.7,29.94,South,186,6.0,6.0,81,0.00,,OVC019,0.00,VWS V14.01,2013-08-06 09:55:00,
2013-08-06 04:56:00,79.0,72.3,29.94,South,171,6.0,6.0,80,0.00,,OVC019,0.00,VWS V14.01,2013-08-06 09:56:00,
2013-08-06 04:57:00,79.0,72.7,29.94,SSE,155,2.0,6.0,81,0.00,,OVC019,0.00,VWS V14.01,2013-08-06 09:57:00,
2013-08-06 04:58:00,79.0,72.7,29.94,South,173,0.0,6.0,81,0.00,,OVC019,0.00,VWS V14.01,2013-08-06 09:58:00,
2013-08-06 04:59:00,79.0,72.7,29.94,SSW,204,0.0,6.0,81,0.00,,OVC019,0.00,VWS V14.01,2013-08-06 09:59:00,
2013-08-06 05:00:00,79.0,72.7,29.94,SSW,193,0.0,0.0,81,0.00,,OVC019,0.00,VWS V14.01,2013-08-06 10:00:00,
2013-08-06 05:01:00,79.0,72.7,29.94,South,178,5.0,5.0,81,0.00,,OVC019,0.00,VWS V14.01,2013-08-06 10:01:00,
2013-08-06 05:02:00,79.0,72.7,29.94,SSW,196,0.0,7.0,81,0.00,,OVC019,0.00,VWS V14.01,2013-08-06 10:02:00,
2013-08-06 05:03:00,79.0,72.7,29.94,SSE,151,0.0,7.0,81,0.00,,OVC019,0.00,VWS V14.01,2013-08-06 10:03:00,
2013-08-06 05:04:00,79.0,72.7,29.94,SSE,151,0.0,7.0,81,0.00,,OVC019,0.00,VWS V14.01,2013-08-06 10:04:00,
2013-08-06 05:05:00,79.0,72.7,29.94,SSE,151,0.0,7.0,81,0.00,,OVC019,0.00,VWS V14.01,2013-08-06 10:05:00,
2013-08-06 05:06:00,79.0,72.7,29.94,South,190,0.0,6.0,81,0.00,,OVC019,0.00,VWS V14.01,2013-08-06 10:06:00,
2013-08-06 05:07:00,79.0,72.7,29.94,South,180,0.0,7.0,81,0.00,,OVC019,0.00,VWS V14.01,2013-08-06 10:07:00,
2013-08-06 05:08:00,79.0,72.7,29.94,South,180,0.0,7.0,81,0.00,,OVC019,0.00,VWS V14.01,2013-08-06 10:08:00,
2013-08-06 05:09:00,79.0,72.7,29.94,South,180,0.0,7.0,81,0.00,,OVC019,0.00,VWS V14.01,2013-08-06 10:09:00,
2013-08-06 05:10:00,79.2,72.9,29.94,South,180,0.0,0.0,81,0.00,,OVC019,0.00,VWS V14.01,2013-08-06 10:10:00,
2013-08-06 05:11:00,79.0,72.7,29.94,SSW,196,0.0,7.0,81,0.00,,OVC019,0.00,VWS V14.01,2013-08-06 10:11:00,
2013-08-06 05:12:00,79.2,72.9,29.94,South,180,0.0,0.0,81,0.00,,OVC019,0.00,VWS V14.01,2013-08-06 10:12:00,
2013-08-06 05:13:00,79.2,72.9,29.94,South,179,0.0,0.0,81,0.00,,OVC019,0.00,VWS V14.01,2013-08-06 10:13:00,
2013-08-06 05:14:00,79.2,72.9,29.94,South,179,0.0,0.0,81,0.00,,OVC019,0.00,VWS V14.01,2013-08-06 10:14:00,
2013-08-06 05:15:00,79.2,72.9,29.94,South,179,0.0,0.0,81,0.00,,OVC019,0.00,VWS V14.01,2013-08-06 10:15:00,
2013-08-06 05:16:00,79.0,72.7,29.94,South,180,0.0,7.0,81,0.00,,OVC019,0.00,VWS V14.01,2013-08-06 10:16:00,
2013-08-06 05:17:00,79.2,72.9,29.94,South,178,0.0,0.0,81,0.00,,OVC019,0.00,VWS V14.01,2013-08-06 10:17:00,
2013-08-06 05:18:00,79.2,72.9,29.94,South,169,0.0,0.0,81,0.00,,OVC019,0.00,VWS V14.01,2013-08-06 10:18:00,
2013-08-06 05:19:00,79.2,72.9,29.94,South,170,0.0,0.0,81,0.00,,OVC019,0.00,VWS V14.01,2013-08-06 10:19:00,
2013-08-06 05:20:00,79.2,72.9,29.94,South,170,0.0,0.0,81,0.00,,OVC019,0.00,VWS V14.01,2013-08-06 10:20:00,
2013-08-06 05:21:00,79.2,72.9,29.94,South,179,0.0,0.0,81,0.00,,OVC019,0.00,VWS V14.01,2013-08-06 10:21:00,
2013-08-06 05:22:00,79.2,72.9,29.94,South,171,1.0,4.0,81,0.00,,OVC019,0.00,VWS V14.01,2013-08-06 10:22:00,
2013-08-06 05:23:00,79.2,72.9,29.94,South,173,0.0,4.0,81,0.00,,OVC019,0.00,VWS V14.01,2013-08-06 10:23:00,
2013-08-06 05:24:00,79.2,72.9,29.94,South,173,0.0,4.0,81,0.00,,OVC019,0.00,VWS V14.01,2013-08-06 10:24:00,
2013-08-06 05:25:00,79.2,72.9,29.94,South,169,3.0,7.0,81,0.00,,OVC019,0.00,VWS V14.01,2013-08-06 10:25:00,
2013-08-06 05:26:00,79.2,72.9,29.94,South,178,0.0,0.0,81,0.00,,OVC019,0.00,VWS V14.01,2013-08-06 10:26:00,
2013-08-06 05:27:00,79.2,72.9,29.94,South,169,0.0,7.0,81,0.00,,OVC019,0.00,VWS V14.01,2013-08-06 10:27:00,
2013-08-06 05:28:00,79.2,72.9,29.94,SSE,161,0.0,7.0,81,0.00,,OVC019,0.00,VWS V14.01,2013-08-06 10:28:00,
2013-08-06 05:29:00,79.2,72.9,29.94,SSE,161,0.0,7.0,81,0.00,,OVC019,0.00,VWS V14.01,2013-08-06 10:29:00,
2013-08-06 05:30:00,79.2,72.9,29.94,SE,132,0.0,0.0,81,0.00,,OVC019,0.00,VWS V14.01,2013-08-06 10:30:00,
2013-08-06 05:31:00,79.2,72.9,29.94,SSW,192,0.0,4.0,81,0.00,,OVC019,0.00,VWS V14.01,2013-08-06 10:31:00,
2013-08-06 05:32:00,79.2,72.9,29.94,South,169,0.0,1.0,81,0.00,,OVC019,0.00,VWS V14.01,2013-08-06 10:32:00,
2013-08-06 05:33:00,79.2,72.9,29.94,SSE,163,0.0,1.0,81,0.00,,OVC019,0.00,VWS V14.01,2013-08-06 10:33:00,
2013-08-06 05:34:00,79.2,72.9,29.94,SE,143,4.0,5.0,81,0.00,,OVC019,0.00,VWS V14.01,2013-08-06 10:34:00,
2013-08-06 05:35:00,79.2,72.9,29.94,SSE,155,0.0,7.0,81,0.00,,OVC019,0.00,VWS V14.01,2013-08-06 10:35:00,
2013-08-06 05:36:00,79.2,72.9,29.94,South,169,0.0,7.0,81,0.00,,OVC019,0.00,VWS V14.01,2013-08-06 10:36:00,
2013-08-06 05:37:00,79.2,72.9,29.94,South,175,0.0,7.0,81,0.00,,OVC019,0.00,VWS V14.01,2013-08-06 10:37:00,
2013-08-06 05:38:00,79.2,72.9,29.94,South,173,6.0,7.0,81,0.00,,OVC019,0.00,VWS V14.01,2013-08-06 10:38:00,
2013-08-06 05:39:00,79.2,73.2,29.94,South,172,0.0,7.0,82,0.00,,OVC019,0.00,VWS V14.01,2013-08-06 10:39:00,
2013-08-06 05:40:00,79.2,73.2,29.94,South,176,4.0,4.0,82,0.00,,OVC019,0.00,VWS V14.01,2013-08-06 10:40:00,
2013-08-06 05:41:00,79.2,72.9,29.94,South,169,0.0,1.0,81,0.00,,OVC019,0.00,VWS V14.01,2013-08-06 10:41:00,
2013-08-06 05:42:00,79.2,73.2,29.94,South,188,0.0,4.0,82,0.00,,OVC019,0.00,VWS V14.01,2013-08-06 10:42:00,
2013-08-06 05:43:00,79.2,73.2,29.94,SSE,167,4.0,4.0,82,0.00,,OVC019,0.00,VWS V14.01,2013-08-06 10:43:00,
2013-08-06 05:44:00,79.2,73.2,29.94,SSE,167,0.0,4.0,82,0.00,,OVC019,0.00,VWS V14.01,2013-08-06 10:44:00,
2013-08-06 05:45:00,79.0,73.0,29.94,SSE,167,0.0,4.0,82,0.00,,OVC019,0.00,VWS V14.01,2013-08-06 10:45:00,
2013-08-06 05:46:00,79.2,72.9,29.94,SSW,194,0.0,7.0,81,0.00,,OVC019,0.00,VWS V14.01,2013-08-06 10:46:00,
2013-08-06 05:47:00,79.0,73.0,29.94,SSE,164,0.0,9.0,82,0.00,,OVC017,0.00,VWS V14.01,2013-08-06 10:47:00,
2013-08-06 05:48:00,79.0,73.0,29.94,South,190,5.0,9.0,82,0.00,,OVC017,0.00,VWS V14.01,2013-08-06 10:48:00,
2013-08-06 05:49:00,79.0,73.0,29.94,South,172,1.0,9.0,82,0.00,,OVC017,0.00,VWS V14.01,2013-08-06 10:49:00,
2013-08-06 05:50:00,79.0,73.0,29.94,South,182,3.0,4.0,82,0.00,,OVC017,0.00,VWS V14.01,2013-08-06 10:50:00,
2013-08-06 05:51:00,79.2,73.2,29.94,South,190,0.0,4.0,82,0.00,,OVC019,0.00,VWS V14.01,2013-08-06 10:51:00,
2013-08-06 05:52:00,78.8,72.8,29.94,South,175,0.0,6.0,82,0.00,,OVC017,0.00,VWS V14.01,2013-08-06 10:52:00,
2013-08-06 05:53:00,78.8,73.2,29.94,South,175,0.0,6.0,83,0.00,,OVC017,0.00,VWS V14.01,2013-08-06 10:53:00,
2013-08-06 05:54:00,78.8,73.2,29.94,South,175,0.0,6.0,83,0.00,,OVC017,0.00,VWS V14.01,2013-08-06 10:54:00,
2013-08-06 05:55:00,78.8,73.2,29.94,South,175,0.0,6.0,83,0.00,,OVC017,0.00,VWS V14.01,2013-08-06 10:55:00,
2013-08-06 05:56:00,79.0,73.0,29.94,South,188,5.0,6.0,82,0.00,,OVC017,0.00,VWS V14.01,2013-08-06 10:56:00,
2013-08-06 05:57:00,78.8,73.2,29.94,SSE,147,0.0,7.0,83,0.00,,OVC017,0.00,VWS V14.01,2013-08-06 10:57:00,
2013-08-06 05:58:00,78.8,73.2,29.94,SSE,147,0.0,7.0,83,0.00,,OVC017,0.00,VWS V14.01,2013-08-06 10:58:00,
2013-08-06 05:59:00,78.8,73.2,29.94,SSE,148,0.0,7.0,83,0.00,,OVC017,0.00,VWS V14.01,2013-08-06 10:59:00,
2013-08-06 06:00:00,78.8,73.2,29.94,SSE,163,0.0,0.0,83,0.00,,OVC017,0.00,VWS V14.01,2013-08-06 11:00:00,
2013-08-06 06:01:00,78.8,72.8,29.94,South,180,0.0,6.0,82,0.00,,OVC017,0.00,VWS V14.01,2013-08-06 11:01:00,
2013-08-06 06:02:00,78.6,73.0,29.94,SSE,163,0.0,0.0,83,0.00,,OVC017,0.00,VWS V14.01,2013-08-06 11:02:00,
2013-08-06 06:03:00,78.6,73.0,29.94,SSE,163,0.0,0.0,83,0.00,,OVC017,0.00,VWS V14.01,2013-08-06 11:03:00,
2013-08-06 06:04:00,78.6,73.0,29.94,SSE,163,0.0,0.0,83,0.00,,OVC017,0.00,VWS V14.01,2013-08-06 11:04:00,
2013-08-06 06:05:00,78.6,73.0,29.94,SSE,164,0.0,0.0,83,0.00,,OVC017,0.00,VWS V14.01,2013-08-06 11:05:00,
2013-08-06 06:06:00,78.8,73.2,29.94,South,170,5.0,6.0,83,0.00,,OVC017,0.00,VWS V14.01,2013-08-06 11:06:00,
2013-08-06 06:07:00,78.6,73.0,29.94,South,174,0.0,0.0,83,0.00,,OVC017,0.00,VWS V14.01,2013-08-06 11:07:00,
2013-08-06 06:08:00,78.6,73.0,29.94,South,174,0.0,0.0,83,0.00,,OVC017,0.00,VWS V14.01,2013-08-06 11:08:00,
2013-08-06 06:09:00,78.6,73.0,29.94,South,174,0.0,0.0,83,0.00,,OVC017,0.00,VWS V14.01,2013-08-06 11:09:00,
2013-08-06 06:10:00,78.5,72.9,29.94,South,174,0.0,0.0,83,0.00,,OVC017,0.00,VWS V14.01,2013-08-06 11:10:00,
2013-08-06 06:11:00,78.8,73.2,29.94,SSE,163,0.0,0.0,83,0.00,,OVC017,0.00,VWS V14.01,2013-08-06 11:11:00,
2013-08-06 06:12:00,78.5,72.9,29.94,South,174,0.0,0.0,83,0.00,,OVC017,0.00,VWS V14.01,2013-08-06 11:12:00,
2013-08-06 06:13:00,78.5,72.9,29.94,South,174,0.0,0.0,83,0.00,,OVC017,0.00,VWS V14.01,2013-08-06 11:13:00,
2013-08-06 06:14:00,78.5,72.9,29.94,South,174,0.0,0.0,83,0.00,,OVC017,0.00,VWS V14.01,2013-08-06 11:14:00,
2013-08-06 06:15:00,78.5,73.3,29.94,South,174,0.0,0.0,84,0.00,,OVC017,0.00,VWS V14.01,2013-08-06 11:15:00,
2013-08-06 06:16:00,78.6,73.0,29.94,South,174,0.0,0.0,83,0.00,,OVC017,0.00,VWS V14.01,2013-08-06 11:16:00,
2013-08-06 06:17:00,78.5,73.3,29.94,South,170,0.0,0.0,84,0.00,,OVC017,0.00,VWS V14.01,2013-08-06 11:17:00,
2013-08-06 06:18:00,78.3,73.1,29.94,South,170,0.0,0.0,84,0.00,,OVC017,0.00,VWS V14.01,2013-08-06 11:18:00,
2013-08-06 06:19:00,78.3,73.1,29.94,South,170,0.0,0.0,84,0.00,,OVC017,0.00,VWS V14.01,2013-08-06 11:19:00,
2013-08-06 06:20:00,78.3,73.1,29.94,South,170,0.0,0.0,84,0.00,,OVC017,0.00,VWS V14.01,2013-08-06 11:20:00,
2013-08-06 06:21:00,78.5,72.9,29.94,South,174,0.0,0.0,83,0.00,,OVC017,0.00,VWS V14.01,2013-08-06 11:21:00,
2013-08-06 06:22:00,78.3,73.1,29.94,South,170,0.0,0.0,84,0.00,,OVC017,0.00,VWS V14.01,2013-08-06 11:22:00,
2013-08-06 06:23:00,78.3,73.1,29.94,South,170,0.0,0.0,84,0.00,,OVC017,0.00,VWS V14.01,2013-08-06 11:23:00,
2013-08-06 06:24:00,78.3,73.1,29.94,South,170,0.0,0.0,84,0.00,,OVC017,0.00,VWS V14.01,2013-08-06 11:24:00,
2013-08-06 06:25:00,78.1,72.9,29.94,South,170,0.0,0.0,84,0.00,,OVC017,0.00,VWS V14.01,2013-08-06 11:25:00,
2013-08-06 06:26:00,78.5,73.3,29.94,South,170,0.0,0.0,84,0.00,,OVC017,0.00,VWS V14.01,2013-08-06 11:26:00,
2013-08-06 06:27:00,78.1,72.9,29.94,South,170,0.0,0.0,84,0.00,,OVC017,0.00,VWS V14.01,2013-08-06 11:27:00,
2013-08-06 06:28:00,78.1,72.9,29.94,South,170,0.0,0.0,84,0.00,,OVC017,0.00,VWS V14.01,2013-08-06 11:28:00,
2013-08-06 06:29:00,78.1,72.9,29.94,South,170,0.0,0.0,84,0.00,,OVC017,0.00,VWS V14.01,2013-08-06 11:29:00,
2013-08-06 06:30:00,78.1,72.9,29.94,South,170,0.0,0.0,84,0.00,,OVC017,0.00,VWS V14.01,2013-08-06 11:30:00,
2013-08-06 06:31:00,78.3,73.1,29.94,South,170,0.0,0.0,84,0.00,,OVC017,0.00,VWS V14.01,2013-08-06 11:31:00,
2013-08-06 06:32:00,78.1,73.2,29.94,SSE,149,0.0,0.0,85,0.00,,OVC017,0.00,VWS V14.01,2013-08-06 11:32:00,
2013-08-06 06:33:00,77.9,73.0,29.94,SSE,150,0.0,3.0,85,0.00,,OVC017,0.00,VWS V14.01,2013-08-06 11:33:00,
2013-08-06 06:34:00,77.9,73.0,29.94,SSE,150,0.0,3.0,85,0.00,,OVC017,0.00,VWS V14.01,2013-08-06 11:34:00,
2013-08-06 06:35:00,77.9,73.0,29.94,SSE,150,0.0,3.0,85,0.00,,OVC017,0.00,VWS V14.01,2013-08-06 11:35:00,
2013-08-06 06:36:00,78.1,72.9,29.94,South,170,0.0,0.0,84,0.00,,OVC017,0.00,VWS V14.01,2013-08-06 11:36:00,
2013-08-06 06:37:00,77.9,73.0,29.94,SSE,148,0.0,3.0,85,0.00,,OVC017,0.00,VWS V14.01,2013-08-06 11:37:00,
2013-08-06 06:38:00,77.7,72.8,29.94,SSE,148,0.0,3.0,85,0.00,,OVC017,0.00,VWS V14.01,2013-08-06 11:38:00,
2013-08-06 06:39:00,77.7,72.8,29.94,SSE,148,0.0,3.0,85,0.00,,OVC017,0.00,VWS V14.01,2013-08-06 11:39:00,
2013-08-06 06:40:00,77.7,72.8,29.94,SSE,148,0.0,0.0,85,0.00,,OVC017,0.00,VWS V14.01,2013-08-06 11:40:00,
2013-08-06 06:41:00,78.1,73.2,29.94,South,170,0.0,0.0,85,0.00,,OVC017,0.00,VWS V14.01,2013-08-06 11:41:00,
2013-08-06 06:42:00,77.7,72.8,29.94,SSE,148,0.0,0.0,85,0.00,,OVC017,0.00,VWS V14.01,2013-08-06 11:42:00,
2013-08-06 06:43:00,77.7,73.2,29.94,SSE,148,0.0,0.0,86,0.00,,OVC017,0.00,VWS V14.01,2013-08-06 11:43:00,
2013-08-06 06:44:00,77.6,73.1,29.94,SSE,148,0.0,0.0,86,0.00,,OVC017,0.00,VWS V14.01,2013-08-06 11:44:00,
2013-08-06 06:45:00,77.6,73.1,29.94,SSE,148,0.0,0.0,86,0.00,,OVC017,0.00,VWS V14.01,2013-08-06 11:45:00,
2013-08-06 06:46:00,77.9,73.0,29.94,SSE,150,0.0,3.0,85,0.00,,OVC017,0.00,VWS V14.01,2013-08-06 11:46:00,
2013-08-06 06:47:00,77.6,73.1,29.94,SSE,148,0.0,0.0,86,0.00,,OVC015,0.00,VWS V14.01,2013-08-06 11:47:00,
2013-08-06 06:48:00,77.6,73.1,29.94,SSE,148,0.0,0.0,86,0.00,,OVC015,0.00,VWS V14.01,2013-08-06 11:48:00,
2013-08-06 06:49:00,77.6,73.1,29.94,SSE,148,0.0,0.0,86,0.00,,OVC015,0.00,VWS V14.01,2013-08-06 11:49:00,
2013-08-06 06:50:00,77.6,73.1,29.94,SSE,148,0.0,0.0,86,0.00,,OVC015,0.00,VWS V14.01,2013-08-06 11:50:00,
2013-08-06 06:51:00,77.7,72.8,29.94,SSE,148,0.0,0.0,85,0.00,,OVC017,0.00,VWS V14.01,2013-08-06 11:51:00,
2013-08-06 06:52:00,77.6,73.1,29.94,SSE,148,0.0,0.0,86,0.00,,OVC015,0.00,VWS V14.01,2013-08-06 11:52:00,
2013-08-06 06:53:00,77.6,73.1,29.94,SSE,154,0.0,0.0,86,0.00,,OVC015,0.00,VWS V14.01,2013-08-06 11:53:00,
2013-08-06 06:54:00,77.4,72.9,29.94,SSE,155,0.0,0.0,86,0.00,,OVC015,0.00,VWS V14.01,2013-08-06 11:54:00,
2013-08-06 06:55:00,77.4,72.9,29.94,SSE,155,0.0,0.0,86,0.00,,OVC015,0.00,VWS V14.01,2013-08-06 11:55:00,
2013-08-06 06:56:00,77.6,73.1,29.94,SSE,148,0.0,0.0,86,0.00,,OVC015,0.00,VWS V14.01,2013-08-06 11:56:00,
2013-08-06 06:57:00,77.4,72.9,29.94,SSE,155,0.0,0.0,86,0.00,,OVC015,0.00,VWS V14.01,2013-08-06 11:57:00,
2013-08-06 06:58:00,77.4,72.9,29.94,SSE,155,0.0,0.0,86,0.00,,OVC015,0.00,VWS V14.01,2013-08-06 11:58:00,
2013-08-06 06:59:00,77.4,72.9,29.94,SSE,155,0.0,0.0,86,0.00,,OVC015,0.00,VWS V14.01,2013-08-06 11:59:00,
2013-08-06 07:00:00,77.4,72.9,29.94,SSE,155,0.0,0.0,86,0.00,,OVC015,0.00,VWS V14.01,2013-08-06 12:00:00,
2013-08-06 07:01:00,77.6,73.1,29.94,SSE,148,0.0,0.0,86,0.00,,OVC015,0.00,VWS V14.01,2013-08-06 12:01:00,
2013-08-06 07:02:00,77.4,72.9,29.94,SSE,155,0.0,0.0,86,0.00,,OVC015,0.00,VWS V14.01,2013-08-06 12:02:00,
2013-08-06 07:03:00,77.4,72.9,29.94,SSE,155,0.0,0.0,86,0.00,,OVC015,0.00,VWS V14.01,2013-08-06 12:03:00,
2013-08-06 07:04:00,77.4,72.9,29.94,SSE,151,0.0,0.0,86,0.00,,OVC015,0.00,VWS V14.01,2013-08-06 12:04:00,
2013-08-06 07:05:00,77.4,73.2,29.94,SSE,151,0.0,0.0,87,0.00,,OVC015,0.00,VWS V14.01,2013-08-06 12:05:00,
2013-08-06 07:06:00,77.4,72.9,29.94,SSE,155,0.0,0.0,86,0.00,,OVC015,0.00,VWS V14.01,2013-08-06 12:06:00,
2013-08-06 07:07:00,77.4,73.2,29.94,SSE,151,0.0,0.0,87,0.00,,OVC015,0.00,VWS V14.01,2013-08-06 12:07:00,
2013-08-06 07:08:00,77.4,73.2,29.94,SSE,151,0.0,0.0,87,0.00,,OVC015,0.00,VWS V14.01,2013-08-06 12:08:00,
2013-08-06 07:09:00,77.4,73.2,29.94,SSE,151,0.0,0.0,87,0.00,,OVC015,0.00,VWS V14.01,2013-08-06 12:09:00,
2013-08-06 07:10:00,77.4,73.2,29.94,SSE,151,0.0,0.0,87,0.00,,OVC015,0.00,VWS V14.01,2013-08-06 12:10:00,
2013-08-06 07:11:00,77.4,73.2,29.94,SSE,155,0.0,0.0,87,0.00,,OVC015,0.00,VWS V14.01,2013-08-06 12:11:00,
2013-08-06 07:12:00,77.4,73.2,29.94,SSE,151,0.0,0.0,87,0.00,,OVC015,0.00,VWS V14.01,2013-08-06 12:12:00,
2013-08-06 07:13:00,77.4,73.2,29.94,SSE,151,0.0,3.0,87,0.00,,OVC015,0.00,VWS V14.01,2013-08-06 12:13:00,
2013-08-06 07:14:00,77.2,73.0,29.95,SSE,151,0.0,3.0,87,0.00,,OVC015,0.00,VWS V14.01,2013-08-06 12:14:00,
2013-08-06 07:15:00,77.2,73.0,29.95,SSE,151,0.0,3.0,87,0.00,,OVC015,0.00,VWS V14.01,2013-08-06 12:15:00,
2013-08-06 07:16:00,77.4,73.2,29.94,SSE,151,0.0,0.0,87,0.00,,OVC015,0.00,VWS V14.01,2013-08-06 12:16:00,
2013-08-06 07:17:00,77.4,73.2,29.95,SSE,151,0.0,3.0,87,0.00,,OVC015,0.00,VWS V14.01,2013-08-06 12:17:00,
2013-08-06 07:18:00,77.4,73.2,29.95,SSE,151,0.0,3.0,87,0.00,,OVC015,0.00,VWS V14.01,2013-08-06 12:18:00,
2013-08-06 07:19:00,77.4,73.2,29.95,SSE,151,0.0,3.0,87,0.00,,OVC015,0.00,VWS V14.01,2013-08-06 12:19:00,
2013-08-06 07:20:00,77.4,73.2,29.95,SSE,151,0.0,0.0,87,0.00,,OVC015,0.00,VWS V14.01,2013-08-06 12:20:00,
2013-08-06 07:21:00,77.4,73.2,29.94,SSE,151,0.0,0.0,87,0.00,,OVC015,0.00,VWS V14.01,2013-08-06 12:21:00,
2013-08-06 07:22:00,77.4,73.2,29.95,SSE,151,0.0,0.0,87,0.00,,OVC015,0.00,VWS V14.01,2013-08-06 12:22:00,
2013-08-06 07:23:00,77.4,73.2,29.95,SSE,151,0.0,0.0,87,0.00,,OVC015,0.00,VWS V14.01,2013-08-06 12:23:00,
2013-08-06 07:24:00,77.4,73.2,29.95,SSE,151,0.0,0.0,87,0.00,,OVC015,0.00,VWS V14.01,2013-08-06 12:24:00,
2013-08-06 07:25:00,77.4,73.2,29.95,SSE,151,0.0,0.0,87,0.00,,OVC015,0.00,VWS V14.01,2013-08-06 12:25:00,
2013-08-06 07:26:00,77.2,73.0,29.95,SSE,151,0.0,3.0,87,0.00,,OVC015,0.00,VWS V14.01,2013-08-06 12:26:00,
2013-08-06 07:27:00,77.4,73.2,29.95,SSE,151,0.0,0.0,87,0.00,,OVC015,0.00,VWS V14.01,2013-08-06 12:27:00,
2013-08-06 07:28:00,77.4,73.2,29.95,SSE,151,0.0,0.0,87,0.00,,OVC015,0.00,VWS V14.01,2013-08-06 12:28:00,
2013-08-06 07:29:00,77.4,73.2,29.95,SSE,151,0.0,0.0,87,0.00,,OVC015,0.00,VWS V14.01,2013-08-06 12:29:00,
2013-08-06 07:30:00,77.4,73.2,29.95,SSE,151,0.0,0.0,87,0.00,,OVC015,0.00,VWS V14.01,2013-08-06 12:30:00,
2013-08-06 07:31:00,77.4,73.2,29.95,SSE,151,0.0,0.0,87,0.00,,OVC015,0.00,VWS V14.01,2013-08-06 12:31:00,
2013-08-06 07:32:00,77.4,73.2,29.95,SSE,151,0.0,0.0,87,0.00,,OVC015,0.00,VWS V14.01,2013-08-06 12:32:00,
2013-08-06 07:33:00,77.4,73.2,29.95,SSE,151,0.0,0.0,87,0.00,,OVC015,0.00,VWS V14.01,2013-08-06 12:33:00,
2013-08-06 07:34:00,77.4,73.2,29.95,SSE,151,0.0,0.0,87,0.00,,OVC015,0.00,VWS V14.01,2013-08-06 12:34:00,
2013-08-06 07:35:00,77.4,73.2,29.95,SSE,151,0.0,0.0,87,0.00,,OVC015,0.00,VWS V14.01,2013-08-06 12:35:00,
2013-08-06 07:36:00,77.4,73.2,29.95,SSE,151,0.0,0.0,87,0.00,,OVC015,0.00,VWS V14.01,2013-08-06 12:36:00,
2013-08-06 07:37:00,77.6,73.4,29.95,SE,146,0.0,0.0,87,0.00,,OVC015,0.00,VWS V14.01,2013-08-06 12:37:00,
2013-08-06 07:38:00,77.6,73.4,29.95,SE,146,0.0,0.0,87,0.00,,OVC015,0.00,VWS V14.01,2013-08-06 12:38:00,
2013-08-06 07:39:00,77.6,73.4,29.95,SE,146,0.0,0.0,87,0.00,,OVC015,0.00,VWS V14.01,2013-08-06 12:39:00,
2013-08-06 07:40:00,77.6,73.4,29.95,SE,146,0.0,0.0,87,0.00,,OVC015,0.00,VWS V14.01,2013-08-06 12:40:00,
2013-08-06 07:41:00,77.4,73.2,29.95,SSE,151,0.0,0.0,87,0.00,,OVC015,0.00,VWS V14.01,2013-08-06 12:41:00,
2013-08-06 07:42:00,77.6,73.4,29.95,SE,146,0.0,0.0,87,0.00,,OVC015,0.00,VWS V14.01,2013-08-06 12:42:00,
2013-08-06 07:43:00,77.7,73.2,29.95,SE,143,0.0,0.0,86,0.00,,OVC015,0.00,VWS V14.01,2013-08-06 12:43:00,
2013-08-06 07:44:00,77.7,73.2,29.95,SE,143,0.0,0.0,86,0.00,,OVC015,0.00,VWS V14.01,2013-08-06 12:44:00,
2013-08-06 07:45:00,77.7,73.2,29.95,SE,143,0.0,0.0,86,0.00,,OVC015,0.00,VWS V14.01,2013-08-06 12:45:00,
2013-08-06 07:46:00,77.6,73.4,29.95,SSE,148,0.0,0.0,87,0.00,,OVC015,0.00,VWS V14.01,2013-08-06 12:46:00,
2013-08-06 07:47:00,77.7,73.2,29.95,SE,143,0.0,0.0,86,0.00,,OVC017,0.00,VWS V14.01,2013-08-06 12:47:00,
2013-08-06 07:48:00,77.7,73.2,29.95,SE,143,0.0,0.0,86,0.00,,OVC017,0.00,VWS V14.01,2013-08-06 12:48:00,
2013-08-06 07:49:00,77.7,73.2,29.95,SE,143,0.0,0.0,86,0.00,,OVC017,0.00,VWS V14.01,2013-08-06 12:49:00,
2013-08-06 07:50:00,77.7,73.2,29.95,ESE,113,0.0,0.0,86,0.00,,OVC017,0.00,VWS V14.01,2013-08-06 12:50:00,
2013-08-06 07:51:00,77.6,73.4,29.95,SE,146,0.0,0.0,87,0.00,,OVC015,0.00,VWS V14.01,2013-08-06 12:51:00,
2013-08-06 07:52:00,77.9,73.4,29.95,ESE,113,0.0,0.0,86,0.00,,OVC017,0.00,VWS V14.01,2013-08-06 12:52:00,
2013-08-06 07:53:00,77.9,73.4,29.95,ESE,113,0.0,0.0,86,0.00,,OVC017,0.00,VWS V14.01,2013-08-06 12:53:00,
2013-08-06 07:54:00,77.9,73.4,29.95,ESE,113,0.0,0.0,86,0.00,,OVC017,0.00,VWS V14.01,2013-08-06 12:54:00,
2013-08-06 07:55:00,78.1,73.6,29.95,ESE,113,0.0,0.0,86,0.00,,OVC017,0.00,VWS V14.01,2013-08-06 12:55:00,
2013-08-06 07:56:00,77.7,73.2,29.95,SE,143,0.0,0.0,86,0.00,,OVC017,0.00,VWS V14.01,2013-08-06 12:56:00,
2013-08-06 07:57:00,78.1,73.2,29.95,ESE,113,0.0,0.0,85,0.00,,OVC017,0.00,VWS V14.01,2013-08-06 12:57:00,
2013-08-06 07:58:00,78.1,73.2,29.95,ESE,113,0.0,0.0,85,0.00,,OVC017,0.00,VWS V14.01,2013-08-06 12:58:00,
2013-08-06 07:59:00,78.1,73.2,29.96,ESE,113,0.0,0.0,85,0.00,,OVC017,0.00,VWS V14.01,2013-08-06 12:59:00,
2013-08-06 08:00:00,78.1,73.2,29.96,South,183,0.0,4.0,85,0.00,,OVC017,0.00,VWS V14.01,2013-08-06 13:00:00,
2013-08-06 08:01:00,77.9,73.4,29.95,ESE,113,0.0,0.0,86,0.00,,OVC017,0.00,VWS V14.01,2013-08-06 13:01:00,
2013-08-06 08:02:00,78.3,73.4,29.96,South,183,0.0,4.0,85,0.00,,OVC017,0.00,VWS V14.01,2013-08-06 13:02:00,
2013-08-06 08:03:00,78.3,73.4,29.96,South,183,0.0,4.0,85,0.00,,OVC017,0.00,VWS V14.01,2013-08-06 13:03:00,
2013-08-06 08:04:00,78.3,73.4,29.96,South,183,0.0,4.0,85,0.00,,OVC017,0.00,VWS V14.01,2013-08-06 13:04:00,
2013-08-06 08:05:00,78.5,73.6,29.96,South,183,0.0,4.0,85,0.00,,OVC017,0.00,VWS V14.01,2013-08-06 13:05:00,
2013-08-06 08:06:00,78.1,73.6,29.95,ESE,113,0.0,0.0,86,0.00,,OVC017,0.00,VWS V14.01,2013-08-06 13:06:00,
2013-08-06 08:07:00,78.5,73.3,29.96,South,183,0.0,4.0,84,0.00,,OVC017,0.00,VWS V14.01,2013-08-06 13:07:00,
2013-08-06 08:08:00,78.5,73.3,29.96,South,183,0.0,4.0,84,0.00,,OVC017,0.00,VWS V14.01,2013-08-06 13:08:00,
2013-08-06 08:09:00,78.5,73.3,29.96,South,179,0.0,4.0,84,0.00,,OVC017,0.00,VWS V14.01,2013-08-06 13:09:00,
2013-08-06 08:10:00,78.6,73.4,29.96,South,174,0.0,1.0,84,0.00,,OVC017,0.00,VWS V14.01,2013-08-06 13:10:00,
2013-08-06 08:11:00,78.3,73.4,29.96,South,183,0.0,4.0,85,0.00,,OVC017,0.00,VWS V14.01,2013-08-06 13:11:00,
2013-08-06 08:12:00,78.6,73.4,29.96,SE,132,0.0,1.0,84,0.00,,OVC017,0.00,VWS V14.01,2013-08-06 13:12:00,
2013-08-06 08:13:00,78.6,73.4,29.96,SE,132,0.0,1.0,84,0.00,,OVC017,0.00,VWS V14.01,2013-08-06 13:13:00,
2013-08-06 08:14:00,78.6,73.4,29.97,SE,132,0.0,1.0,84,0.00,,OVC017,0.00,VWS V14.01,2013-08-06 13:14:00,
2013-08-06 08:15:00,78.6,73.4,29.97,SE,132,0.0,1.0,84,0.00,,OVC017,0.00,VWS V14.01,2013-08-06 13:15:00,
2013-08-06 08:16:00,78.5,73.3,29.96,South,183,0.0,4.0,84,0.00,,OVC017,0.00,VWS V14.01,2013-08-06 13:16:00,
2013-08-06 08:17:00,78.6,73.4,29.97,SE,132,0.0,1.0,84,0.00,,OVC017,0.00,VWS V14.01,2013-08-06 13:17:00,
2013-08-06 08:18:00,78.8,73.6,29.97,SE,132,0.0,1.0,84,0.00,,OVC017,0.00,VWS V14.01,2013-08-06 13:18:00,
2013-08-06 08:19:00,78.8,73.6,29.97,SE,144,0.0,1.0,84,0.00,,OVC017,0.00,VWS V14.01,2013-08-06 13:19:00,
2013-08-06 08:20:00,78.8,73.2,29.97,SE,145,0.0,0.0,83,0.00,,OVC017,0.00,VWS V14.01,2013-08-06 13:20:00,
2013-08-06 08:21:00,78.6,73.4,29.96,SE,132,0.0,1.0,84,0.00,,OVC017,0.00,VWS V14.01,2013-08-06 13:21:00,
2013-08-06 08:22:00,79.0,73.4,29.97,SSE,157,5.0,5.0,83,0.00,,OVC017,0.00,VWS V14.01,2013-08-06 13:22:00,
2013-08-06 08:23:00,79.0,73.4,29.97,SSE,157,0.0,5.0,83,0.00,,OVC017,0.00,VWS V14.01,2013-08-06 13:23:00,
2013-08-06 08:24:00,79.0,73.4,29.97,SSE,165,0.0,5.0,83,0.00,,OVC017,0.00,VWS V14.01,2013-08-06 13:24:00,
2013-08-06 08:25:00,79.2,73.6,29.97,SE,132,0.0,5.0,83,0.00,,OVC017,0.00,VWS V14.01,2013-08-06 13:25:00,
2013-08-06 08:26:00,78.6,73.4,29.97,SE,132,0.0,1.0,84,0.00,,OVC017,0.00,VWS V14.01,2013-08-06 13:26:00,
2013-08-06 08:27:00,79.4,73.8,29.97,SE,132,0.0,5.0,83,0.00,,OVC017,0.00,VWS V14.01,2013-08-06 13:27:00,
2013-08-06 08:28:00,79.4,73.8,29.97,SE,138,0.0,5.0,83,0.00,,OVC017,0.00,VWS V14.01,2013-08-06 13:28:00,
2013-08-06 08:29:00,79.4,73.4,29.97,SW,219,0.0,11.0,82,0.00,,OVC017,0.00,VWS V14.01,2013-08-06 13:29:00,
2013-08-06 08:30:00,79.6,73.6,29.97,SSE,151,3.0,4.0,82,0.00,,OVC017,0.00,VWS V14.01,2013-08-06 13:30:00,
2013-08-06 08:31:00,79.0,73.4,29.97,SSE,156,0.0,0.0,83,0.00,,OVC017,0.00,VWS V14.01,2013-08-06 13:31:00,
2013-08-06 08:32:00,79.6,73.3,29.97,South,183,5.0,10.0,81,0.00,,OVC017,0.00,VWS V14.01,2013-08-06 13:32:00,
2013-08-06 08:33:00,79.8,73.4,29.97,South,180,0.0,10.0,81,0.00,,OVC017,0.00,VWS V14.01,2013-08-06 13:33:00,
2013-08-06 08:34:00,79.9,73.6,29.97,SSE,167,0.0,10.0,81,0.00,,OVC017,0.00,VWS V14.01,2013-08-06 13:34:00,
2013-08-06 08:35:00,79.9,73.6,29.97,South,184,3.0,10.0,81,0.00,,OVC017,0.00,VWS V14.01,2013-08-06 13:35:00,
2013-08-06 08:36:00,79.2,73.6,29.97,SE,132,0.0,5.0,83,0.00,,OVC017,0.00,VWS V14.01,2013-08-06 13:36:00,
2013-08-06 08:37:00,80.1,73.4,29.97,SSW,202,11.0,11.0,80,0.00,,OVC017,0.00,VWS V14.01,2013-08-06 13:37:00,
2013-08-06 08:38:00,80.1,73.4,29.97,SSW,194,0.0,11.0,80,0.00,,OVC017,0.00,VWS V14.01,2013-08-06 13:38:00,
2013-08-06 08:39:00,80.1,73.4,29.97,South,190,0.0,11.0,80,0.00,,OVC017,0.00,VWS V14.01,2013-08-06 13:39:00,
2013-08-06 08:40:00,80.3,73.6,29.97,South,186,0.0,6.0,80,0.00,,OVC017,0.00,VWS V14.01,2013-08-06 13:40:00,
2013-08-06 08:41:00,79.6,73.3,29.97,South,183,5.0,10.0,81,0.00,,OVC017,0.00,VWS V14.01,2013-08-06 13:41:00,
2013-08-06 08:42:00,80.5,73.4,29.97,South,172,6.0,6.0,79,0.00,,OVC017,0.00,VWS V14.01,2013-08-06 13:42:00,
2013-08-06 08:43:00,80.7,73.6,29.97,SSE,163,6.0,6.0,79,0.00,,OVC017,0.00,VWS V14.01,2013-08-06 13:43:00,
2013-08-06 08:44:00,80.9,73.8,29.96,SE,138,4.0,9.0,79,0.00,,OVC017,0.00,VWS V14.01,2013-08-06 13:44:00,
2013-08-06 08:45:00,80.9,73.4,29.96,South,182,0.0,9.0,78,0.00,,OVC017,0.00,VWS V14.01,2013-08-06 13:45:00,
2013-08-06 08:46:00,80.1,73.4,29.97,South,178,0.0,10.0,80,0.00,,OVC017,0.00,VWS V14.01,2013-08-06 13:46:00,
2013-08-06 08:47:00,81.1,73.2,29.96,SSE,153,3.0,12.0,77,0.00,,OVC017,0.00,VWS V14.01,2013-08-06 13:47:00,
2013-08-06 08:48:00,81.2,73.3,29.96,SSE,161,5.0,12.0,77,0.00,,OVC017,0.00,VWS V14.01,2013-08-06 13:48:00,
2013-08-06 08:49:00,81.2,73.3,29.96,SSE,160,0.0,12.0,77,0.00,,OVC017,0.00,VWS V14.01,2013-08-06 13:49:00,
2013-08-06 08:50:00,81.2,73.3,29.96,South,177,0.0,0.0,77,0.00,,OVC017,0.00,VWS V14.01,2013-08-06 13:50:00,
2013-08-06 08:51:00,80.5,73.4,29.97,SSW,198,2.0,6.0,79,0.00,,OVC017,0.00,VWS V14.01,2013-08-06 13:51:00,
2013-08-06 08:52:00,81.6,73.3,29.96,South,183,7.0,10.0,76,0.00,,OVC018,0.00,VWS V14.01,2013-08-06 13:52:00,
2013-08-06 08:53:00,81.6,72.9,29.96,WSW,240,7.0,14.0,75,0.00,,OVC018,0.00,VWS V14.01,2013-08-06 13:53:00,
2013-08-06 08:54:00,81.6,72.9,29.96,South,184,3.0,14.0,75,0.00,,OVC018,0.00,VWS V14.01,2013-08-06 13:54:00,
2013-08-06 08:55:00,81.6,72.9,29.96,SSW,205,8.0,14.0,75,0.00,,OVC018,0.00,VWS V14.01,2013-08-06 13:55:00,
2013-08-06 08:56:00,81.1,73.2,29.96,SSE,163,12.0,12.0,77,0.00,,OVC017,0.00,VWS V14.01,2013-08-06 13:56:00,
2013-08-06 08:57:00,81.6,72.9,29.96,SSW,211,5.0,14.0,75,0.00,,OVC018,0.00,VWS V14.01,2013-08-06 13:57:00,
2013-08-06 08:58:00,81.8,73.1,29.96,South,174,5.0,14.0,75,0.00,,OVC018,0.00,VWS V14.01,2013-08-06 13:58:00,
2013-08-06 08:59:00,81.8,73.1,29.97,South,182,4.0,14.0,75,0.00,,OVC018,0.00,VWS V14.01,2013-08-06 13:59:00,
2013-08-06 09:00:00,82.0,73.3,29.97,South,171,0.0,0.0,75,0.00,,OVC018,0.00,VWS V14.01,2013-08-06 14:00:00,
2013-08-06 09:01:00,81.4,73.1,29.96,East,97,3.0,7.0,76,0.00,,OVC018,0.00,VWS V14.01,2013-08-06 14:01:00,
2013-08-06 09:02:00,82.2,73.1,29.97,SW,223,2.0,12.0,74,0.00,,OVC018,0.00,VWS V14.01,2013-08-06 14:02:00,
2013-08-06 09:03:00,82.4,73.3,29.97,SSE,159,2.0,12.0,74,0.00,,OVC018,0.00,VWS V14.01,2013-08-06 14:03:00,
2013-08-06 09:04:00,82.4,72.9,29.97,SSW,193,5.0,12.0,73,0.00,,OVC018,0.00,VWS V14.01,2013-08-06 14:04:00,
2013-08-06 09:05:00,82.4,72.9,29.97,SE,140,3.0,12.0,73,0.00,,OVC018,0.00,VWS V14.01,2013-08-06 14:05:00,
2013-08-06 09:06:00,81.6,72.9,29.96,South,180,7.0,14.0,75,0.00,,OVC018,0.00,VWS V14.01,2013-08-06 14:06:00,
2013-08-06 09:07:00,82.6,73.1,29.97,SSW,192,0.0,12.0,73,0.00,,OVC018,0.00,VWS V14.01,2013-08-06 14:07:00,
2013-08-06 09:08:00,82.6,73.1,29.97,SSW,202,0.0,12.0,73,0.00,,OVC018,0.00,VWS V14.01,2013-08-06 14:08:00,
2013-08-06 09:09:00,82.6,73.1,29.97,SSE,168,4.0,12.0,73,0.00,,OVC018,0.00,VWS V14.01,2013-08-06 14:09:00,
2013-08-06 09:10:00,82.8,72.9,29.97,SSE,157,3.0,5.0,72,0.00,,OVC018,0.00,VWS V14.01,2013-08-06 14:10:00,
2013-08-06 09:11:00,82.2,73.1,29.97,SSE,161,12.0,12.0,74,0.00,,OVC018,0.00,VWS V14.01,2013-08-06 14:11:00,
2013-08-06 09:12:00,83.0,72.6,29.97,SSW,198,0.0,10.0,71,0.00,,OVC018,0.00,VWS V14.01,2013-08-06 14:12:00,
2013-08-06 09:13:00,83.2,72.8,29.97,South,184,3.0,10.0,71,0.00,,OVC018,0.00,VWS V14.01,2013-08-06 14:13:00,
2013-08-06 09:14:00,83.2,72.8,29.98,South,186,9.0,10.0,71,0.00,,OVC018,0.00,VWS V14.01,2013-08-06 14:14:00,
2013-08-06 09:15:00,83.2,72.8,29.98,SSW,205,4.0,10.0,71,0.00,,OVC018,0.00,VWS V14.01,2013-08-06 14:15:00,
2013-08-06 09:16:00,82.6,73.1,29.97,SSW,204,5.0,12.0,73,0.00,,OVC018,0.00,VWS V14.01,2013-08-06 14:16:00,
2013-08-06 09:17:00,83.4,73.0,29.98,SSW,199,0.0,10.0,71,0.00,,SCT018,0.00,VWS V14.01,2013-08-06 14:17:00,
2013-08-06 09:18:00,83.4,72.6,29.98,SSW,202,0.0,10.0,70,0.00,,SCT018,0.00,VWS V14.01,2013-08-06 14:18:00,
2013-08-06 09:19:00,83.6,72.8,29.98,South,173,5.0,10.0,70,0.00,,SCT018,0.00,VWS V14.01,2013-08-06 14:19:00,
2013-08-06 09:20:00,83.6,72.8,29.98,SSW,201,1.0,5.0,70,0.00,,SCT018,0.00,VWS V14.01,2013-08-06 14:20:00,
2013-08-06 09:21:00,83.0,72.6,29.97,South,182,0.0,10.0,71,0.00,,OVC018,0.00,VWS V14.01,2013-08-06 14:21:00,
2013-08-06 09:22:00,83.8,73.0,29.98,SSE,158,0.0,7.0,70,0.00,,SCT018,0.00,VWS V14.01,2013-08-06 14:22:00,
2013-08-06 09:23:00,84.0,73.2,29.98,South,175,7.0,7.0,70,0.00,,SCT018,0.00,VWS V14.01,2013-08-06 14:23:00,
2013-08-06 09:24:00,84.0,73.2,29.98,South,169,7.0,10.0,70,0.00,,SCT018,0.00,VWS V14.01,2013-08-06 14:24:00,
2013-08-06 09:25:00,84.1,72.4,29.98,SSW,192,0.0,10.0,68,0.00,,SCT018,0.00,VWS V14.01,2013-08-06 14:25:00,
2013-08-06 09:26:00,83.4,73.0,29.98,South,181,0.0,10.0,71,0.00,,SCT018,0.00,VWS V14.01,2013-08-06 14:26:00,
2013-08-06 09:27:00,84.1,72.4,29.98,South,182,7.0,12.0,68,0.00,,SCT018,0.00,VWS V14.01,2013-08-06 14:27:00,
2013-08-06 09:28:00,84.1,72.0,29.98,SSW,207,7.0,12.0,67,0.00,,SCT018,0.00,VWS V14.01,2013-08-06 14:28:00,
2013-08-06 09:29:00,84.1,72.0,29.97,South,182,1.0,12.0,67,0.00,,SCT018,0.00,VWS V14.01,2013-08-06 14:29:00,
2013-08-06 09:30:00,84.3,72.2,29.97,South,169,3.0,8.0,67,0.00,,SCT018,0.00,VWS V14.01,2013-08-06 14:30:00,
2013-08-06 09:31:00,83.8,73.0,29.98,SSE,162,0.0,7.0,70,0.00,,SCT018,0.00,VWS V14.01,2013-08-06 14:31:00,
2013-08-06 09:32:00,84.5,72.3,29.97,South,173,13.0,14.0,67,0.00,,SCT018,0.00,VWS V14.01,2013-08-06 14:32:00,
2013-08-06 09:33:00,84.5,71.9,29.97,South,179,7.0,14.0,66,0.00,,SCT018,0.00,VWS V14.01,2013-08-06 14:33:00,
2013-08-06 09:34:00,84.5,71.9,29.97,South,175,0.0,14.0,66,0.00,,SCT018,0.00,VWS V14.01,2013-08-06 14:34:00,
2013-08-06 09:35:00,84.7,72.1,29.97,SSE,167,13.0,14.0,66,0.00,,SCT018,0.00,VWS V14.01,2013-08-06 14:35:00,
2013-08-06 09:36:00,84.1,72.4,29.98,South,186,7.0,10.0,68,0.00,,SCT018,0.00,VWS V14.01,2013-08-06 14:36:00,
2013-08-06 09:37:00,84.5,71.9,29.97,SW,216,6.0,15.0,66,0.00,,SCT018,0.00,VWS V14.01,2013-08-06 14:37:00,
2013-08-06 09:38:00,84.5,71.9,29.97,SSW,193,14.0,15.0,66,0.00,,SCT018,0.00,VWS V14.01,2013-08-06 14:38:00,
2013-08-06 09:39:00,84.5,71.9,29.97,South,179,6.0,15.0,66,0.00,,SCT018,0.00,VWS V14.01,2013-08-06 14:39:00,
2013-08-06 09:40:00,84.7,72.1,29.97,SSE,155,7.0,13.0,66,0.00,,SCT018,0.00,VWS V14.01,2013-08-06 14:40:00,
2013-08-06 09:41:00,84.3,72.2,29.97,South,187,0.0,8.0,67,0.00,,SCT018,0.00,VWS V14.01,2013-08-06 14:41:00,
2013-08-06 09:42:00,84.7,72.1,29.97,SW,222,11.0,13.0,66,0.00,,SCT018,0.00,VWS V14.01,2013-08-06 14:42:00,
2013-08-06 09:43:00,84.7,72.1,29.97,South,186,7.0,13.0,66,0.00,,SCT018,0.00,VWS V14.01,2013-08-06 14:43:00,
2013-08-06 09:44:00,84.7,71.6,29.97,South,186,5.0,13.0,65,0.00,,SCT018,0.00,VWS V14.01,2013-08-06 14:44:00,
2013-08-06 09:45:00,84.9,72.3,29.97,South,187,0.0,13.0,66,0.00,,SCT018,0.00,VWS V14.01,2013-08-06 14:45:00,
2013-08-06 09:46:00,84.5,71.9,29.97,SW,220,7.0,15.0,66,0.00,,SCT018,0.00,VWS V14.01,2013-08-06 14:46:00,
2013-08-06 09:47:00,85.1,72.0,29.97,South,186,6.0,13.0,65,0.00,,SCT018,0.00,VWS V14.01,2013-08-06 14:47:00,
2013-08-06 09:48:00,85.1,71.6,29.97,SSW,198,7.0,13.0,64,0.00,,SCT018,0.00,VWS V14.01,2013-08-06 14:48:00,
2013-08-06 09:49:00,85.1,71.6,29.97,SSE,163,4.0,13.0,64,0.00,,SCT018,0.00,VWS V14.01,2013-08-06 14:49:00,
2013-08-06 09:50:00,85.1,71.6,29.97,SSW,194,3.0,9.0,64,0.00,,SCT018,0.00,VWS V14.01,2013-08-06 14:50:00,
2013-08-06 09:51:00,84.7,72.1,29.97,South,180,0.0,13.0,66,0.00,,SCT018,0.00,VWS V14.01,2013-08-06 14:51:00,
2013-08-06 09:52:00,85.3,71.8,29.97,SSW,210,7.0,9.0,64,0.00,,SCT018,0.00,VWS V14.01,2013-08-06 14:52:00,
2013-08-06 09:53:00,85.5,71.9,29.97,South,174,0.0,9.0,64,0.00,,SCT018,0.00,VWS V14.01,2013-08-06 14:53:00,
2013-08-06 09:54:00,85.5,71.9,29.97,SSE,158,3.0,9.0,64,0.00,,SCT018,0.00,VWS V14.01,2013-08-06 14:54:00,
2013-08-06 09:55:00,85.7,72.1,29.97,SSW,196,1.0,9.0,64,0.00,,SCT018,0.00,VWS V14.01,2013-08-06 14:55:00,
2013-08-06 09:56:00,85.1,72.5,29.97,SSW,200,7.0,13.0,66,0.00,,SCT018,0.00,VWS V14.01,2013-08-06 14:56:00,
2013-08-06 09:57:00,85.9,71.4,29.97,South,186,6.0,11.0,62,0.00,,SCT018,0.00,VWS V14.01,2013-08-06 14:57:00,
2013-08-06 09:58:00,85.9,71.4,29.97,SSE,151,7.0,12.0,62,0.00,,SCT018,0.00,VWS V14.01,2013-08-06 14:58:00,
2013-08-06 09:59:00,85.9,71.4,29.97,South,180,5.0,12.0,62,0.00,,SCT018,0.00,VWS V14.01,2013-08-06 14:59:00,
2013-08-06 10:00:00,86.1,71.6,29.97,SSE,155,2.0,8.0,62,0.00,,SCT018,0.00,VWS V14.01,2013-08-06 15:00:00,
2013-08-06 10:01:00,85.3,71.8,29.97,South,175,2.0,9.0,64,0.00,,SCT018,0.00,VWS V14.01,2013-08-06 15:01:00,
2013-08-06 10:02:00,86.3,71.8,29.97,South,178,0.0,9.0,62,0.00,,SCT018,0.00,VWS V14.01,2013-08-06 15:02:00,
2013-08-06 10:03:00,86.5,71.9,29.97,SE,146,2.0,9.0,62,0.00,,SCT018,0.00,VWS V14.01,2013-08-06 15:03:00,
2013-08-06 10:04:00,86.7,72.1,29.97,SSE,165,12.0,12.0,62,0.00,,SCT018,0.00,VWS V14.01,2013-08-06 15:04:00,
2013-08-06 10:05:00,86.7,71.7,29.97,SSE,159,4.0,14.0,61,0.00,,SCT018,0.00,VWS V14.01,2013-08-06 15:05:00,
2013-08-06 10:06:00,85.7,71.7,29.97,SSE,149,6.0,11.0,63,0.00,,SCT018,0.00,VWS V14.01,2013-08-06 15:06:00,
2013-08-06 10:07:00,86.7,71.7,29.97,South,184,0.0,14.0,61,0.00,,SCT018,0.00,VWS V14.01,2013-08-06 15:07:00,
2013-08-06 10:08:00,87.0,71.9,29.97,South,173,2.0,14.0,61,0.00,,SCT018,0.00,VWS V14.01,2013-08-06 15:08:00,
2013-08-06 10:09:00,87.0,71.9,29.97,SSE,159,5.0,14.0,61,0.00,,SCT018,0.00,VWS V14.01,2013-08-06 15:09:00,
2013-08-06 10:10:00,87.0,71.9,29.97,South,181,5.0,10.0,61,0.00,,SCT018,0.00,VWS V14.01,2013-08-06 15:10:00,
2013-08-06 10:11:00,86.3,71.8,29.97,SSE,163,1.0,9.0,62,0.00,,SCT018,0.00,VWS V14.01,2013-08-06 15:11:00,
2013-08-06 10:12:00,87.0,71.9,29.97,South,175,0.0,10.0,61,0.00,,SCT018,0.00,VWS V14.01,2013-08-06 15:12:00,
2013-08-06 10:13:00,87.0,71.9,29.97,SSW,202,10.0,10.0,61,0.00,,SCT018,0.00,VWS V14.01,2013-08-06 15:13:00,
2013-08-06 10:14:00,87.2,71.6,29.97,SW,219,0.0,10.0,60,0.00,,SCT018,0.00,VWS V14.01,2013-08-06 15:14:00,
2013-08-06 10:15:00,87.2,71.1,29.97,SSW,202,6.0,10.0,59,0.00,,SCT018,0.00,VWS V14.01,2013-08-06 15:15:00,
2013-08-06 10:16:00,86.7,71.7,29.97,South,187,0.0,14.0,61,0.00,,SCT018,0.00,VWS V14.01,2013-08-06 15:16:00,
2013-08-06 10:17:00,87.4,71.3,29.97,SSW,195,5.0,10.0,59,0.00,,SCT018,0.00,VWS V14.01,2013-08-06 15:17:00,
2013-08-06 10:18:00,87.4,71.3,29.97,SSW,211,7.0,10.0,59,0.00,,SCT018,0.00,VWS V14.01,2013-08-06 15:18:00,
2013-08-06 10:19:00,87.4,71.3,29.97,South,173,2.0,12.0,59,0.00,,SCT018,0.00,VWS V14.01,2013-08-06 15:19:00,
2013-08-06 10:20:00,87.6,71.5,29.97,SSW,205,9.0,9.0,59,0.00,,SCT018,0.00,VWS V14.01,2013-08-06 15:20:00,
2013-08-06 10:21:00,86.7,71.7,29.97,South,173,2.0,10.0,61,0.00,,SCT018,0.00,VWS V14.01,2013-08-06 15:21:00,
2013-08-06 10:22:00,88.0,71.4,29.97,WSW,239,0.0,9.0,58,0.00,,SCT018,0.00,VWS V14.01,2013-08-06 15:22:00,
2013-08-06 10:23:00,88.0,71.4,29.97,SSW,204,5.0,9.0,58,0.00,,SCT018,0.00,VWS V14.01,2013-08-06 15:23:00,
2013-08-06 10:24:00,88.2,71.6,29.97,SSW,204,1.0,9.0,58,0.00,,SCT018,0.00,VWS V14.01,2013-08-06 15:24:00,
2013-08-06 10:25:00,88.2,71.6,29.97,SSW,204,1.0,9.0,58,0.00,,SCT018,0.00,VWS V14.01,2013-08-06 15:25:00,
2013-08-06 10:26:00,87.4,71.8,29.97,SSW,213,6.0,10.0,60,0.00,,SCT018,0.00,VWS V14.01,2013-08-06 15:26:00,
2013-08-06 10:27:00,88.2,71.6,29.97,SSW,204,1.0,9.0,58,0.00,,SCT018,0.00,VWS V14.01,2013-08-06 15:27:00,
2013-08-06 10:28:00,88.2,71.6,29.97,SSW,204,1.0,9.0,58,0.00,,SCT018,0.00,VWS V14.01,2013-08-06 15:28:00,
2013-08-06 10:29:00,89.0,72.3,29.98,SSE,165,2.0,9.0,58,0.00,,SCT018,0.00,VWS V14.01,2013-08-06 15:29:00,
2013-08-06 10:30:00,89.0,72.3,29.98,South,172,9.0,9.0,58,0.00,,SCT018,0.00,VWS V14.01,2013-08-06 15:30:00,
2013-08-06 10:31:00,87.8,71.2,29.97,South,177,0.0,9.0,58,0.00,,SCT018,0.00,VWS V14.01,2013-08-06 15:31:00,
2013-08-06 10:32:00,89.0,71.3,29.98,South,180,3.0,9.0,56,0.00,,SCT018,0.00,VWS V14.01,2013-08-06 15:32:00,
2013-08-06 10:33:00,89.0,71.3,29.98,SSW,198,5.0,11.0,56,0.00,,SCT018,0.00,VWS V14.01,2013-08-06 15:33:00,
2013-08-06 10:34:00,89.0,70.8,29.98,South,188,4.0,11.0,55,0.00,,SCT018,0.00,VWS V14.01,2013-08-06 15:34:00,
2013-08-06 10:35:00,88.8,70.6,29.98,South,186,0.0,11.0,55,0.00,,SCT018,0.00,VWS V14.01,2013-08-06 15:35:00,
2013-08-06 10:36:00,88.2,71.6,29.97,SSW,204,1.0,9.0,58,0.00,,SCT018,0.00,VWS V14.01,2013-08-06 15:36:00,
2013-08-06 10:37:00,88.8,70.6,29.98,South,184,11.0,11.0,55,0.00,,SCT018,0.00,VWS V14.01,2013-08-06 15:37:00,
2013-08-06 10:38:00,88.8,71.1,29.98,South,186,2.0,11.0,56,0.00,,SCT018,0.00,VWS V14.01,2013-08-06 15:38:00,
2013-08-06 10:39:00,88.8,71.1,29.98,South,179,5.0,11.0,56,0.00,,SCT018,0.00,VWS V14.01,2013-08-06 15:39:00,
2013-08-06 10:40:00,88.8,71.1,29.98,South,180,6.0,7.0,56,0.00,,SCT018,0.00,VWS V14.01,2013-08-06 15:40:00,
2013-08-06 10:41:00,89.0,71.3,29.98,SSW,198,1.0,9.0,56,0.00,,SCT018,0.00,VWS V14.01,2013-08-06 15:41:00,
2013-08-06 10:42:00,89.0,71.3,29.98,South,173,3.0,7.0,56,0.00,,SCT018,0.00,VWS V14.01,2013-08-06 15:42:00,
2013-08-06 10:43:00,89.0,70.8,29.98,South,190,10.0,10.0,55,0.00,,SCT018,0.00,VWS V14.01,2013-08-06 15:43:00,
2013-08-06 10:44:00,89.3,70.5,29.98,SSE,156,2.0,10.0,54,0.00,,SCT018,0.00,VWS V14.01,2013-08-06 15:44:00,
2013-08-06 10:45:00,89.3,70.5,29.98,South,188,4.0,10.0,54,0.00,,SCT018,0.00,VWS V14.01,2013-08-06 15:45:00,
2013-08-06 10:46:00,88.8,70.6,29.98,SSE,163,6.0,11.0,55,0.00,,SCT018,0.00,VWS V14.01,2013-08-06 15:46:00,
2013-08-06 10:47:00,89.7,70.3,29.98,South,191,1.0,11.0,53,0.00,,FEW031,0.00,VWS V14.01,2013-08-06 15:47:00,
2013-08-06 10:48:00,89.7,70.3,29.98,SE,130,2.0,11.0,53,0.00,,FEW031,0.00,VWS V14.01,2013-08-06 15:48:00,
2013-08-06 10:49:00,89.9,70.5,29.98,South,184,0.0,11.0,53,0.00,,FEW031,0.00,VWS V14.01,2013-08-06 15:49:00,
2013-08-06 10:50:00,89.9,69.9,29.98,South,184,2.0,4.0,52,0.00,,FEW031,0.00,VWS V14.01,2013-08-06 15:50:00,
2013-08-06 10:51:00,88.8,71.1,29.98,South,178,3.0,7.0,56,0.00,,SCT018,0.00,VWS V14.01,2013-08-06 15:51:00,
2013-08-06 10:52:00,90.1,70.1,29.98,South,185,0.0,9.0,52,0.00,,FEW031,0.00,VWS V14.01,2013-08-06 15:52:00,
2013-08-06 10:53:00,90.1,70.7,29.98,South,190,9.0,9.0,53,0.00,,FEW031,0.00,VWS V14.01,2013-08-06 15:53:00,
2013-08-06 10:54:00,90.1,70.1,29.98,South,178,5.0,12.0,52,0.00,,FEW031,0.00,VWS V14.01,2013-08-06 15:54:00,
2013-08-06 10:55:00,90.1,70.1,29.98,SSW,198,0.0,12.0,52,0.00,,FEW031,0.00,VWS V14.01,2013-08-06 15:55:00,
2013-08-06 10:56:00,89.5,70.1,29.98,SSW,206,6.0,11.0,53,0.00,,FEW031,0.00,VWS V14.01,2013-08-06 15:56:00,
2013-08-06 10:57:00,90.1,70.7,29.98,SSW,196,9.0,17.0,53,0.00,,FEW031,0.00,VWS V14.01,2013-08-06 15:57:00,
2013-08-06 10:58:00,90.1,70.7,29.98,SSW,196,6.0,17.0,53,0.00,,FEW031,0.00,VWS V14.01,2013-08-06 15:58:00,
2013-08-06 10:59:00,90.1,70.1,29.98,SSE,159,0.0,17.0,52,0.00,,FEW031,0.00,VWS V14.01,2013-08-06 15:59:00,
2013-08-06 11:00:00,90.1,70.1,29.98,SSE,159,0.0,0.0,52,0.00,,FEW031,0.00,VWS V14.01,2013-08-06 16:00:00,
2013-08-06 11:01:00,90.1,70.1,29.98,South,171,6.0,7.0,52,0.00,,FEW031,0.00,VWS V14.01,2013-08-06 16:01:00,
2013-08-06 11:02:00,90.1,70.1,29.98,SSE,159,0.0,0.0,52,0.00,,FEW031,0.00,VWS V14.01,2013-08-06 16:02:00,
2013-08-06 11:03:00,90.1,70.1,29.98,SSE,159,0.0,0.0,52,0.00,,FEW031,0.00,VWS V14.01,2013-08-06 16:03:00,
2013-08-06 11:04:00,90.1,70.1,29.98,SSE,159,0.0,0.0,52,0.00,,FEW031,0.00,VWS V14.01,2013-08-06 16:04:00,
2013-08-06 11:05:00,90.1,70.1,29.98,SSE,159,0.0,0.0,52,0.00,,FEW031,0.00,VWS V14.01,2013-08-06 16:05:00,
2013-08-06 11:06:00,90.1,70.1,29.98,South,175,3.0,17.0,52,0.00,,FEW031,0.00,VWS V14.01,2013-08-06 16:06:00,
2013-08-06 11:07:00,90.3,70.3,29.98,SSE,159,2.0,10.0,52,0.00,,FEW031,0.00,VWS V14.01,2013-08-06 16:07:00,
2013-08-06 11:08:00,90.3,70.3,29.98,South,171,2.0,10.0,52,0.00,,FEW031,0.00,VWS V14.01,2013-08-06 16:08:00,
2013-08-06 11:09:00,90.5,70.5,29.98,SSW,194,5.0,10.0,52,0.00,,FEW031,0.00,VWS V14.01,2013-08-06 16:09:00,
2013-08-06 11:10:00,90.7,70.7,29.98,SE,124,1.0,7.0,52,0.00,,FEW031,0.00,VWS V14.01,2013-08-06 16:10:00,
2013-08-06 11:11:00,90.1,70.1,29.98,SSE,159,0.0,0.0,52,0.00,,FEW031,0.00,VWS V14.01,2013-08-06 16:11:00,
2013-08-06 11:12:00,91.0,70.4,29.98,South,174,6.0,12.0,51,0.00,,FEW031,0.00,VWS V14.01,2013-08-06 16:12:00,
2013-08-06 11:13:00,91.0,69.8,29.98,SSW,194,6.0,12.0,50,0.00,,FEW031,0.00,VWS V14.01,2013-08-06 16:13:00,
2013-08-06 11:14:00,91.0,69.8,29.98,SSW,209,11.0,12.0,50,0.00,,FEW031,0.00,VWS V14.01,2013-08-06 16:14:00,
2013-08-06 11:15:00,91.0,69.8,29.98,South,185,5.0,13.0,50,0.00,,FEW031,0.00,VWS V14.01,2013-08-06 16:15:00,
2013-08-06 11:16:00,90.3,70.3,29.98,SE,140,4.0,10.0,52,0.00,,FEW031,0.00,VWS V14.01,2013-08-06 16:16:00,
2013-08-06 11:17:00,90.7,69.5,29.98,SE,142,2.0,13.0,50,0.00,,FEW031,0.00,VWS V14.01,2013-08-06 16:17:00,
2013-08-06 11:18:00,90.7,69.5,29.98,SSW,194,1.0,13.0,50,0.00,,FEW031,0.00,VWS V14.01,2013-08-06 16:18:00,
2013-08-06 11:19:00,91.0,70.4,29.98,South,182,2.0,13.0,51,0.00,,FEW031,0.00,VWS V14.01,2013-08-06 16:19:00,
2013-08-06 11:20:00,91.0,69.2,29.98,South,176,4.0,5.0,49,0.00,,FEW031,0.00,VWS V14.01,2013-08-06 16:20:00,
2013-08-06 11:21:00,91.0,70.4,29.98,South,190,12.0,12.0,51,0.00,,FEW031,0.00,VWS V14.01,2013-08-06 16:21:00,
2013-08-06 11:22:00,91.4,69.6,29.98,SSW,192,5.0,6.0,49,0.00,,FEW031,0.00,VWS V14.01,2013-08-06 16:22:00,
2013-08-06 11:23:00,91.6,69.8,29.98,SE,132,6.0,7.0,49,0.00,,FEW031,0.00,VWS V14.01,2013-08-06 16:23:00,
2013-08-06 11:24:00,91.8,69.3,29.98,SSW,198,5.0,9.0,48,0.00,,FEW031,0.00,VWS V14.01,2013-08-06 16:24:00,
2013-08-06 11:25:00,91.8,69.9,29.98,South,173,10.0,10.0,49,0.00,,FEW031,0.00,VWS V14.01,2013-08-06 16:25:00,
2013-08-06 11:26:00,90.7,69.5,29.98,SSE,167,2.0,13.0,50,0.00,,FEW031,0.00,VWS V14.01,2013-08-06 16:26:00,
2013-08-06 11:27:00,92.1,69.6,29.98,South,177,1.0,10.0,48,0.00,,FEW031,0.00,VWS V14.01,2013-08-06 16:27:00,
2013-08-06 11:28:00,92.1,69.6,29.98,SSE,166,1.0,10.0,48,0.00,,FEW031,0.00,VWS V14.01,2013-08-06 16:28:00,
2013-08-06 11:29:00,92.1,69.6,29.97,SSW,203,0.0,10.0,48,0.00,,FEW031,0.00,VWS V14.01,2013-08-06 16:29:00,
2013-08-06 11:30:00,92.1,69.6,29.97,South,182,0.0,0.0,48,0.00,,FEW031,0.00,VWS V14.01,2013-08-06 16:30:00,
2013-08-06 11:31:00,91.4,69.6,29.98,South,175,4.0,6.0,49,0.00,,FEW031,0.00,VWS V14.01,2013-08-06 16:31:00,
2013-08-06 11:32:00,92.5,69.3,29.97,ESE,106,7.0,11.0,47,0.00,,FEW031,0.00,VWS V14.01,2013-08-06 16:32:00,
2013-08-06 11:33:00,92.7,69.5,29.97,SE,140,8.0,11.0,47,0.00,,FEW031,0.00,VWS V14.01,2013-08-06 16:33:00,
2013-08-06 11:34:00,92.7,68.9,29.97,SSE,167,3.0,11.0,46,0.00,,FEW031,0.00,VWS V14.01,2013-08-06 16:34:00,
2013-08-06 11:35:00,92.7,68.9,29.97,SSE,161,10.0,15.0,46,0.00,,FEW031,0.00,VWS V14.01,2013-08-06 16:35:00,
2013-08-06 11:36:00,91.8,69.9,29.98,SSE,152,4.0,10.0,49,0.00,,FEW031,0.00,VWS V14.01,2013-08-06 16:36:00,
2013-08-06 11:37:00,92.5,68.7,29.97,SSE,159,9.0,15.0,46,0.00,,FEW031,0.00,VWS V14.01,2013-08-06 16:37:00,
2013-08-06 11:38:00,92.5,68.7,29.97,SSE,164,11.0,15.0,46,0.00,,FEW031,0.00,VWS V14.01,2013-08-06 16:38:00,
2013-08-06 11:39:00,92.3,68.5,29.97,SSE,167,0.0,15.0,46,0.00,,FEW031,0.00,VWS V14.01,2013-08-06 16:39:00,
2013-08-06 11:40:00,92.3,68.5,29.97,South,188,9.0,9.0,46,0.00,,FEW031,0.00,VWS V14.01,2013-08-06 16:40:00,
2013-08-06 11:41:00,92.3,69.8,29.97,SSW,199,3.0,11.0,48,0.00,,FEW031,0.00,VWS V14.01,2013-08-06 16:41:00,
2013-08-06 11:42:00,92.1,69.0,29.97,South,187,0.0,14.0,47,0.00,,FEW031,0.00,VWS V14.01,2013-08-06 16:42:00,
2013-08-06 11:43:00,92.3,68.5,29.97,SSW,193,10.0,14.0,46,0.00,,FEW031,0.00,VWS V14.01,2013-08-06 16:43:00,
2013-08-06 11:44:00,92.5,68.7,29.97,South,188,4.0,14.0,46,0.00,,FEW031,0.00,VWS V14.01,2013-08-06 16:44:00,
2013-08-06 11:45:00,92.5,68.7,29.97,SSW,196,5.0,14.0,46,0.00,,FEW031,0.00,VWS V14.01,2013-08-06 16:45:00,
2013-08-06 11:46:00,92.7,68.3,29.97,South,178,6.0,15.0,45,0.00,,FEW031,0.00,VWS V14.01,2013-08-06 16:46:00,
2013-08-06 11:47:00,92.7,68.3,29.97,South,189,5.0,14.0,45,0.00,,CLR,0.00,VWS V14.01,2013-08-06 16:47:00,
2013-08-06 11:48:00,92.7,68.3,29.97,SSW,194,6.0,14.0,45,0.00,,CLR,0.00,VWS V14.01,2013-08-06 16:48:00,
2013-08-06 11:49:00,92.9,68.4,29.97,SE,130,2.0,14.0,45,0.00,,CLR,0.00,VWS V14.01,2013-08-06 16:49:00,
2013-08-06 11:50:00,92.9,67.8,29.97,SE,132,4.0,9.0,44,0.00,,CLR,0.00,VWS V14.01,2013-08-06 16:50:00,
2013-08-06 11:51:00,92.1,68.4,29.97,South,187,0.0,14.0,46,0.00,,FEW031,0.00,VWS V14.01,2013-08-06 16:51:00,
2013-08-06 11:52:00,93.2,68.1,29.97,SSE,147,12.0,15.0,44,0.00,,CLR,0.00,VWS V14.01,2013-08-06 16:52:00,
2013-08-06 11:53:00,92.9,67.8,29.97,SE,134,0.0,15.0,44,0.00,,CLR,0.00,VWS V14.01,2013-08-06 16:53:00,
2013-08-06 11:54:00,92.9,67.8,29.97,South,178,1.0,15.0,44,0.00,,CLR,0.00,VWS V14.01,2013-08-06 16:54:00,
2013-08-06 11:55:00,93.2,68.1,29.97,SSE,161,0.0,15.0,44,0.00,,CLR,0.00,VWS V14.01,2013-08-06 16:55:00,
2013-08-06 11:56:00,92.5,68.1,29.97,South,182,3.0,14.0,45,0.00,,CLR,0.00,VWS V14.01,2013-08-06 16:56:00,
2013-08-06 11:57:00,93.4,68.2,29.97,South,178,1.0,15.0,44,0.00,,CLR,0.00,VWS V14.01,2013-08-06 16:57:00,
2013-08-06 11:58:00,93.6,68.4,29.97,SSW,202,0.0,15.0,44,0.00,,CLR,0.00,VWS V14.01,2013-08-06 16:58:00,
2013-08-06 11:59:00,93.6,68.4,29.96,SW,217,9.0,15.0,44,0.00,,CLR,0.00,VWS V14.01,2013-08-06 16:59:00,
2013-08-06 12:00:00,93.8,67.9,29.96,SSE,157,9.0,10.0,43,0.00,,CLR,0.00,VWS V14.01,2013-08-06 17:00:00,
2013-08-06 12:01:00,93.2,68.1,29.97,SSE,166,4.0,9.0,44,0.00,,CLR,0.00,VWS V14.01,2013-08-06 17:01:00,
2013-08-06 12:02:00,93.8,67.9,29.96,SSE,166,0.0,10.0,43,0.00,,CLR,0.00,VWS V14.01,2013-08-06 17:02:00,
2013-08-06 12:03:00,93.6,67.8,29.96,SE,144,4.0,10.0,43,0.00,,CLR,0.00,VWS V14.01,2013-08-06 17:03:00,
2013-08-06 12:04:00,93.6,68.4,29.96,SSW,211,4.0,10.0,44,0.00,,CLR,0.00,VWS V14.01,2013-08-06 17:04:00,
2013-08-06 12:05:00,93.8,68.6,29.96,SE,134,5.0,10.0,44,0.00,,CLR,0.00,VWS V14.01,2013-08-06 17:05:00,
2013-08-06 12:06:00,93.4,68.2,29.97,South,169,6.0,15.0,44,0.00,,CLR,0.00,VWS V14.01,2013-08-06 17:06:00,
2013-08-06 12:07:00,94.0,68.1,29.96,South,170,3.0,10.0,43,0.00,,CLR,0.00,VWS V14.01,2013-08-06 17:07:00,
2013-08-06 12:08:00,94.0,68.1,29.96,SSE,165,5.0,10.0,43,0.00,,CLR,0.00,VWS V14.01,2013-08-06 17:08:00,
2013-08-06 12:09:00,94.0,68.1,29.96,South,188,5.0,10.0,43,0.00,,CLR,0.00,VWS V14.01,2013-08-06 17:09:00,
2013-08-06 12:10:00,94.3,68.4,29.96,SSE,156,1.0,3.0,43,0.00,,CLR,0.00,VWS V14.01,2013-08-06 17:10:00,
2013-08-06 12:11:00,93.8,67.9,29.96,SSE,159,0.0,10.0,43,0.00,,CLR,0.00,VWS V14.01,2013-08-06 17:11:00,
2013-08-06 12:12:00,94.5,67.9,29.96,South,190,1.0,6.0,42,0.00,,CLR,0.00,VWS V14.01,2013-08-06 17:12:00,
2013-08-06 12:13:00,94.7,66.6,29.96,SE,136,4.0,12.0,40,0.00,,CLR,0.00,VWS V14.01,2013-08-06 17:13:00,
2013-08-06 12:14:00,94.9,67.5,29.96,SSE,167,5.0,12.0,41,0.00,,CLR,0.00,VWS V14.01,2013-08-06 17:14:00,
2013-08-06 12:15:00,94.9,66.8,29.96,SSW,208,9.0,13.0,40,0.00,,CLR,0.00,VWS V14.01,2013-08-06 17:15:00,
2013-08-06 12:16:00,94.0,68.8,29.96,SSW,193,0.0,10.0,44,0.00,,CLR,0.00,VWS V14.01,2013-08-06 17:16:00,
2013-08-06 12:17:00,94.9,66.8,29.96,South,180,2.0,13.0,40,0.00,,CLR,0.00,VWS V14.01,2013-08-06 17:17:00,
2013-08-06 12:18:00,94.9,66.8,29.96,South,178,0.0,13.0,40,0.00,,CLR,0.00,VWS V14.01,2013-08-06 17:18:00,
2013-08-06 12:19:00,95.1,67.0,29.96,SSE,159,5.0,13.0,40,0.00,,CLR,0.00,VWS V14.01,2013-08-06 17:19:00,
2013-08-06 12:20:00,95.1,66.3,29.96,SSW,192,10.0,10.0,39,0.00,,CLR,0.00,VWS V14.01,2013-08-06 17:20:00,
2013-08-06 12:21:00,94.3,67.7,29.96,SSE,151,0.0,6.0,42,0.00,,CLR,0.00,VWS V14.01,2013-08-06 17:21:00,
2013-08-06 12:22:00,95.1,66.3,29.96,SW,227,1.0,10.0,39,0.00,,CLR,0.00,VWS V14.01,2013-08-06 17:22:00,
2013-08-06 12:23:00,95.4,66.5,29.96,South,185,2.0,10.0,39,0.00,,CLR,0.00,VWS V14.01,2013-08-06 17:23:00,
2013-08-06 12:24:00,95.4,66.5,29.96,South,180,6.0,10.0,39,0.00,,CLR,0.00,VWS V14.01,2013-08-06 17:24:00,
2013-08-06 12:25:00,95.6,66.7,29.96,South,176,4.0,10.0,39,0.00,,CLR,0.00,VWS V14.01,2013-08-06 17:25:00,
2013-08-06 12:26:00,94.9,66.8,29.96,South,180,0.0,13.0,40,0.00,,CLR,0.00,VWS V14.01,2013-08-06 17:26:00,
2013-08-06 12:27:00,95.6,67.4,29.96,South,184,3.0,10.0,40,0.00,,CLR,0.00,VWS V14.01,2013-08-06 17:27:00,
2013-08-06 12:28:00,95.1,67.0,29.96,SSE,164,8.0,13.0,40,0.00,,CLR,0.00,VWS V14.01,2013-08-06 17:28:00,
2013-08-06 12:29:00,95.6,67.4,29.96,South,181,6.0,10.0,40,0.00,,CLR,0.00,VWS V14.01,2013-08-06 17:29:00,
2013-08-06 12:30:00,95.6,67.4,29.96,SSE,154,2.0,5.0,40,0.00,,CLR,0.00,VWS V14.01,2013-08-06 17:30:00,
2013-08-06 12:31:00,95.6,67.4,29.96,ESE,102,0.0,9.0,40,0.00,,CLR,0.00,VWS V14.01,2013-08-06 17:31:00,
2013-08-06 12:32:00,95.6,66.7,29.96,SSE,148,10.0,10.0,39,0.00,,CLR,0.00,VWS V14.01,2013-08-06 17:32:00,
2013-08-06 12:33:00,95.4,66.5,29.96,South,173,4.0,10.0,39,0.00,,CLR,0.00,VWS V14.01,2013-08-06 17:33:00,
2013-08-06 12:34:00,95.1,67.0,29.96,SSE,166,2.0,11.0,40,0.00,,CLR,0.00,VWS V14.01,2013-08-06 17:34:00,
2013-08-06 12:35:00,94.9,66.8,29.96,ESE,123,4.0,11.0,40,0.00,,CLR,0.00,VWS V14.01,2013-08-06 17:35:00,
2013-08-06 12:36:00,95.1,67.0,29.96,South,171,8.0,11.0,40,0.00,,CLR,0.00,VWS V14.01,2013-08-06 17:36:00,
2013-08-06 12:37:00,95.1,67.0,29.96,South,180,3.0,11.0,40,0.00,,CLR,0.00,VWS V14.01,2013-08-06 17:37:00,
2013-08-06 12:38:00,95.6,67.4,29.96,SSE,156,5.0,10.0,40,0.00,,CLR,0.00,VWS V14.01,2013-08-06 17:38:00,
2013-08-06 12:39:00,95.9,67.0,29.96,ESE,117,0.0,11.0,39,0.00,,CLR,0.00,VWS V14.01,2013-08-06 17:39:00,
2013-08-06 12:40:00,96.1,66.4,29.96,SW,225,4.0,6.0,38,0.00,,CLR,0.00,VWS V14.01,2013-08-06 17:40:00,
2013-08-06 12:41:00,96.1,66.4,29.96,SSW,197,3.0,9.0,38,0.00,,CLR,0.00,VWS V14.01,2013-08-06 17:41:00,
2013-08-06 12:42:00,96.3,66.6,29.96,South,180,3.0,9.0,38,0.00,,CLR,0.00,VWS V14.01,2013-08-06 17:42:00,
2013-08-06 12:43:00,95.1,67.0,29.96,South,170,0.0,11.0,40,0.00,,CLR,0.00,VWS V14.01,2013-08-06 17:43:00,
2013-08-06 12:44:00,96.6,66.8,29.95,SE,143,2.0,9.0,38,0.00,,CLR,0.00,VWS V14.01,2013-08-06 17:44:00,
2013-08-06 12:45:00,96.6,66.1,29.95,SE,133,2.0,12.0,37,0.00,,CLR,0.00,VWS V14.01,2013-08-06 17:45:00,
2013-08-06 12:46:00,96.3,65.8,29.95,South,173,5.0,12.0,37,0.00,,CLR,0.00,VWS V14.01,2013-08-06 17:46:00,
2013-08-06 12:47:00,96.3,66.6,29.95,SW,220,0.0,12.0,38,0.00,,CLR,0.00,VWS V14.01,2013-08-06 17:47:00,
2013-08-06 12:48:00,95.6,66.7,29.96,South,181,2.0,11.0,39,0.00,,CLR,0.00,VWS V14.01,2013-08-06 17:48:00,
2013-08-06 12:49:00,96.3,66.6,29.95,SSE,159,3.0,12.0,38,0.00,,CLR,0.00,VWS V14.01,2013-08-06 17:49:00,
2013-08-06 12:50:00,96.3,65.8,29.95,SSW,196,5.0,9.0,37,0.00,,CLR,0.00,VWS V14.01,2013-08-06 17:50:00,
2013-08-06 12:51:00,96.6,66.1,29.95,NE,51,0.0,9.0,37,0.00,,CLR,0.00,VWS V14.01,2013-08-06 17:51:00,
2013-08-06 12:52:00,96.8,66.2,29.95,SSW,199,4.0,9.0,37,0.00,,CLR,0.00,VWS V14.01,2013-08-06 17:52:00,
2013-08-06 12:53:00,96.6,66.8,29.95,SSE,163,2.0,9.0,38,0.00,,CLR,0.00,VWS V14.01,2013-08-06 17:53:00,
2013-08-06 12:54:00,96.8,65.5,29.95,WSW,241,1.0,10.0,36,0.00,,CLR,0.00,VWS V14.01,2013-08-06 17:54:00,
2013-08-06 12:55:00,96.8,65.5,29.95,SSW,193,4.0,10.0,36,0.00,,CLR,0.00,VWS V14.01,2013-08-06 17:55:00,
2013-08-06 12:56:00,96.8,65.5,29.95,South,175,2.0,10.0,36,0.00,,CLR,0.00,VWS V14.01,2013-08-06 17:56:00,
2013-08-06 12:57:00,96.8,65.5,29.95,SSW,192,0.0,10.0,36,0.00,,CLR,0.00,VWS V14.01,2013-08-06 17:57:00,
2013-08-06 12:58:00,96.3,66.6,29.95,South,170,2.0,12.0,38,0.00,,CLR,0.00,VWS V14.01,2013-08-06 17:58:00,
2013-08-06 12:59:00,97.1,65.7,29.94,SE,145,0.0,10.0,36,0.00,,CLR,0.00,VWS V14.01,2013-08-06 17:59:00,
2013-08-06 13:00:00,97.3,65.1,29.94,SSW,195,5.0,9.0,35,0.00,,CLR,0.00,VWS V14.01,2013-08-06 18:00:00,
2013-08-06 13:01:00,97.5,65.3,29.94,SSW,198,5.0,9.0,35,0.00,,CLR,0.00,VWS V14.01,2013-08-06 18:01:00,
2013-08-06 13:02:00,97.8,64.7,29.94,SSW,196,3.0,9.0,34,0.00,,CLR,0.00,VWS V14.01,2013-08-06 18:02:00,
2013-08-06 13:03:00,96.8,66.2,29.95,West,268,4.0,10.0,37,0.00,,CLR,0.00,VWS V14.01,2013-08-06 18:03:00,
2013-08-06 13:04:00,98.0,64.0,29.94,SE,138,2.0,10.0,33,0.00,,CLR,0.00,VWS V14.01,2013-08-06 18:04:00,
2013-08-06 13:05:00,98.2,64.2,29.94,SE,132,0.0,10.0,33,0.00,,CLR,0.00,VWS V14.01,2013-08-06 18:05:00,
2013-08-06 13:06:00,98.2,64.2,29.94,SSW,213,1.0,10.0,33,0.00,,CLR,0.00,VWS V14.01,2013-08-06 18:06:00,
2013-08-06 13:07:00,98.5,64.4,29.94,SSW,194,5.0,10.0,33,0.00,,CLR,0.00,VWS V14.01,2013-08-06 18:07:00,
2013-08-06 13:08:00,97.1,66.5,29.94,SE,142,0.0,10.0,37,0.00,,CLR,0.00,VWS V14.01,2013-08-06 18:08:00,
2013-08-06 13:09:00,98.2,65.1,29.94,South,182,1.0,10.0,34,0.00,,CLR,0.00,VWS V14.01,2013-08-06 18:09:00,
2013-08-06 13:10:00,98.2,65.1,29.94,ESE,105,2.0,10.0,34,0.00,,CLR,0.00,VWS V14.01,2013-08-06 18:10:00,
2013-08-06 13:11:00,98.0,65.7,29.94,SE,127,2.0,10.0,35,0.00,,CLR,0.00,VWS V14.01,2013-08-06 18:11:00,
2013-08-06 13:12:00,98.0,65.7,29.94,SE,129,2.0,10.0,35,0.00,,CLR,0.00,VWS V14.01,2013-08-06 18:12:00,
2013-08-06 13:13:00,98.0,64.0,29.94,ESE,115,6.0,10.0,33,0.00,,CLR,0.00,VWS V14.01,2013-08-06 18:13:00,
2013-08-06 13:14:00,98.0,64.9,29.93,SE,134,3.0,10.0,34,0.00,,CLR,0.00,VWS V14.01,2013-08-06 18:14:00,
2013-08-06 13:15:00,98.0,64.9,29.93,South,188,4.0,10.0,34,0.00,,CLR,0.00,VWS V14.01,2013-08-06 18:15:00,
2013-08-06 13:16:00,98.0,64.9,29.93,SW,229,11.0,11.0,34,0.00,,CLR,0.00,VWS V14.01,2013-08-06 18:16:00,
2013-08-06 13:17:00,98.0,64.9,29.93,SE,129,6.0,18.0,34,0.00,,CLR,0.00,VWS V14.01,2013-08-06 18:17:00,
2013-08-06 13:18:00,98.2,65.1,29.94,South,184,3.0,10.0,34,0.00,,CLR,0.00,VWS V14.01,2013-08-06 18:18:00,
2013-08-06 13:19:00,98.5,63.6,29.93,SSE,153,5.0,18.0,32,0.00,,CLR,0.00,VWS V14.01,2013-08-06 18:19:00,
2013-08-06 13:20:00,98.2,63.3,29.93,East,98,1.0,3.0,32,0.00,,CLR,0.00,VWS V14.01,2013-08-06 18:20:00,
2013-08-06 13:21:00,98.5,63.6,29.93,SSE,164,6.0,6.0,32,0.00,,CLR,0.00,VWS V14.01,2013-08-06 18:21:00,
2013-08-06 13:22:00,98.7,63.8,29.93,SSE,161,6.0,7.0,32,0.00,,CLR,0.00,VWS V14.01,2013-08-06 18:22:00,
2013-08-06 13:23:00,98.0,64.9,29.93,SE,140,8.0,10.0,34,0.00,,CLR,0.00,VWS V14.01,2013-08-06 18:23:00,
2013-08-06 13:24:00,99.0,63.1,29.93,SSW,198,4.0,12.0,31,0.00,,CLR,0.00,VWS V14.01,2013-08-06 18:24:00,
2013-08-06 13:25:00,99.0,63.1,29.93,SSE,159,3.0,13.0,31,0.00,,CLR,0.00,VWS V14.01,2013-08-06 18:25:00,
2013-08-06 13:26:00,98.7,62.8,29.93,South,180,11.0,13.0,31,0.00,,CLR,0.00,VWS V14.01,2013-08-06 18:26:00,
2013-08-06 13:27:00,98.7,62.8,29.93,WSW,244,4.0,13.0,31,0.00,,CLR,0.00,VWS V14.01,2013-08-06 18:27:00,
2013-08-06 13:28:00,98.5,63.6,29.93,SE,146,6.0,18.0,32,0.00,,CLR,0.00,VWS V14.01,2013-08-06 18:28:00,
2013-08-06 13:29:00,98.5,63.6,29.93,South,187,7.0,13.0,32,0.00,,CLR,0.00,VWS V14.01,2013-08-06 18:29:00,
2013-08-06 13:30:00,98.5,63.6,29.93,SSE,159,0.0,6.0,32,0.00,,CLR,0.00,VWS V14.01,2013-08-06 18:30:00,
2013-08-06 13:31:00,98.7,63.8,29.93,SW,228,7.0,7.0,32,0.00,,CLR,0.00,VWS V14.01,2013-08-06 18:31:00,
2013-08-06 13:32:00,98.7,62.8,29.93,South,188,11.0,11.0,31,0.00,,CLR,0.00,VWS V14.01,2013-08-06 18:32:00,
2013-08-06 13:33:00,99.0,63.1,29.93,SSW,196,2.0,12.0,31,0.00,,CLR,0.00,VWS V14.01,2013-08-06 18:33:00,
2013-08-06 13:34:00,99.0,64.0,29.93,South,171,4.0,11.0,32,0.00,,CLR,0.00,VWS V14.01,2013-08-06 18:34:00,
2013-08-06 13:35:00,99.2,64.2,29.93,SW,227,4.0,11.0,32,0.00,,CLR,0.00,VWS V14.01,2013-08-06 18:35:00,
2013-08-06 13:36:00,99.2,64.2,29.93,SSW,194,10.0,11.0,32,0.00,,CLR,0.00,VWS V14.01,2013-08-06 18:36:00,
2013-08-06 13:37:00,99.2,64.2,29.93,SW,229,2.0,12.0,32,0.00,,CLR,0.00,VWS V14.01,2013-08-06 18:37:00,
2013-08-06 13:38:00,98.5,62.7,29.93,South,184,8.0,13.0,31,0.00,,CLR,0.00,VWS V14.01,2013-08-06 18:38:00,
2013-08-06 13:39:00,99.0,64.0,29.93,SSE,163,4.0,12.0,32,0.00,,CLR,0.00,VWS V14.01,2013-08-06 18:39:00,
2013-08-06 13:40:00,98.7,63.8,29.93,SSW,192,5.0,5.0,32,0.00,,CLR,0.00,VWS V14.01,2013-08-06 18:40:00,
2013-08-06 13:41:00,98.7,63.8,29.93,South,185,2.0,11.0,32,0.00,,CLR,0.00,VWS V14.01,2013-08-06 18:41:00,
2013-08-06 13:42:00,98.7,62.8,29.93,SSE,154,4.0,11.0,31,0.00,,CLR,0.00,VWS V14.01,2013-08-06 18:42:00,
2013-08-06 13:43:00,99.0,63.1,29.93,South,188,4.0,11.0,31,0.00,,CLR,0.00,VWS V14.01,2013-08-06 18:43:00,
2013-08-06 13:44:00,99.2,62.3,29.92,SSW,202,4.0,11.0,30,0.00,,CLR,0.00,VWS V14.01,2013-08-06 18:44:00,
2013-08-06 13:45:00,99.4,62.5,29.92,West,262,0.0,11.0,30,0.00,,CLR,0.00,VWS V14.01,2013-08-06 18:45:00,
2013-08-06 13:46:00,99.7,62.8,29.92,SW,218,0.0,11.0,30,0.00,,CLR,0.00,VWS V14.01,2013-08-06 18:46:00,
2013-08-06 13:47:00,99.7,62.8,29.92,SW,218,0.0,11.0,30,0.00,,CLR,0.00,VWS V14.01,2013-08-06 18:47:00,
2013-08-06 13:48:00,99.0,64.0,29.93,SSE,147,0.0,12.0,32,0.00,,CLR,0.00,VWS V14.01,2013-08-06 18:48:00,
2013-08-06 13:49:00,99.7,62.8,29.92,SW,218,0.0,11.0,30,0.00,,CLR,0.00,VWS V14.01,2013-08-06 18:49:00,
2013-08-06 13:50:00,100.4,63.4,29.92,South,185,0.0,5.0,30,0.00,,CLR,0.00,VWS V14.01,2013-08-06 18:50:00,
2013-08-06 13:51:00,100.7,63.6,29.92,South,183,9.0,9.0,30,0.00,,CLR,0.00,VWS V14.01,2013-08-06 18:51:00,
2013-08-06 13:52:00,100.7,62.7,29.92,SW,218,13.0,13.0,29,0.00,,CLR,0.00,VWS V14.01,2013-08-06 18:52:00,
2013-08-06 13:53:00,99.2,62.3,29.92,SSE,165,0.0,11.0,30,0.00,,CLR,0.00,VWS V14.01,2013-08-06 18:53:00,
2013-08-06 13:54:00,100.2,63.2,29.92,SSE,157,12.0,17.0,30,0.00,,CLR,0.00,VWS V14.01,2013-08-06 18:54:00,
2013-08-06 13:55:00,100.2,63.2,29.92,SSE,157,12.0,17.0,30,0.00,,CLR,0.00,VWS V14.01,2013-08-06 18:55:00,
2013-08-06 13:56:00,100.2,63.2,29.92,SSE,157,12.0,17.0,30,0.00,,CLR,0.00,VWS V14.01,2013-08-06 18:56:00,
2013-08-06 13:57:00,100.2,63.2,29.92,SSE,157,12.0,17.0,30,0.00,,CLR,0.00,VWS V14.01,2013-08-06 18:57:00,
2013-08-06 13:58:00,99.7,62.8,29.92,SW,218,0.0,11.0,30,0.00,,CLR,0.00,VWS V14.01,2013-08-06 18:58:00,
2013-08-06 13:59:00,100.2,62.2,29.91,South,176,0.0,17.0,29,0.00,,CLR,0.00,VWS V14.01,2013-08-06 18:59:00,
2013-08-06 14:00:00,100.2,62.2,29.91,South,169,2.0,11.0,29,0.00,,CLR,0.00,VWS V14.01,2013-08-06 19:00:00,
2013-08-06 14:01:00,100.2,62.2,29.91,SSW,192,10.0,12.0,29,0.00,,CLR,0.00,VWS V14.01,2013-08-06 19:01:00,
2013-08-06 14:02:00,100.2,63.2,29.91,South,169,9.0,12.0,30,0.00,,CLR,0.00,VWS V14.01,2013-08-06 19:02:00,
2013-08-06 14:03:00,100.2,63.2,29.92,SSE,157,12.0,17.0,30,0.00,,CLR,0.00,VWS V14.01,2013-08-06 19:03:00,
2013-08-06 14:04:00,99.9,62.0,29.91,South,175,0.0,12.0,29,0.00,,CLR,0.00,VWS V14.01,2013-08-06 19:04:00,
2013-08-06 14:05:00,99.9,62.0,29.91,SW,220,7.0,12.0,29,0.00,,CLR,0.00,VWS V14.01,2013-08-06 19:05:00,
2013-08-06 14:06:00,100.2,62.2,29.91,South,190,4.0,12.0,29,0.00,,CLR,0.00,VWS V14.01,2013-08-06 19:06:00,
2013-08-06 14:07:00,100.2,61.2,29.91,ESE,109,9.0,13.0,28,0.00,,CLR,0.00,VWS V14.01,2013-08-06 19:07:00,
2013-08-06 14:08:00,100.2,62.2,29.91,SSE,165,1.0,17.0,29,0.00,,CLR,0.00,VWS V14.01,2013-08-06 19:08:00,
2013-08-06 14:09:00,99.9,62.0,29.91,SE,140,5.0,13.0,29,0.00,,CLR,0.00,VWS V14.01,2013-08-06 19:09:00,
2013-08-06 14:10:00,99.7,61.8,29.91,South,176,7.0,16.0,29,0.00,,CLR,0.00,VWS V14.01,2013-08-06 19:10:00,
2013-08-06 14:11:00,99.7,61.8,29.91,SSE,151,6.0,16.0,29,0.00,,CLR,0.00,VWS V14.01,2013-08-06 19:11:00,
2013-08-06 14:12:00,99.7,61.8,29.91,SSE,157,3.0,16.0,29,0.00,,CLR,0.00,VWS V14.01,2013-08-06 19:12:00,
2013-08-06 14:13:00,99.9,62.9,29.91,South,175,0.0,12.0,30,0.00,,CLR,0.00,VWS V14.01,2013-08-06 19:13:00,
2013-08-06 14:14:00,99.7,61.8,29.91,SSE,158,3.0,16.0,29,0.00,,CLR,0.00,VWS V14.01,2013-08-06 19:14:00,
2013-08-06 14:15:00,99.7,61.8,29.91,SSE,158,3.0,16.0,29,0.00,,CLR,0.00,VWS V14.01,2013-08-06 19:15:00,
2013-08-06 14:16:00,100.2,62.2,29.91,SE,145,9.0,16.0,29,0.00,,CLR,0.00,VWS V14.01,2013-08-06 19:16:00,
2013-08-06 14:17:00,100.4,61.4,29.91,South,186,4.0,16.0,28,0.00,,CLR,0.00,VWS V14.01,2013-08-06 19:17:00,
2013-08-06 14:18:00,99.9,62.0,29.91,SSE,159,5.0,13.0,29,0.00,,CLR,0.00,VWS V14.01,2013-08-06 19:18:00,
2013-08-06 14:19:00,101.0,61.9,29.91,SSE,151,1.0,16.0,28,0.00,,CLR,0.00,VWS V14.01,2013-08-06 19:19:00,
2013-08-06 14:20:00,101.0,61.9,29.91,South,178,0.0,0.0,28,0.00,,CLR,0.00,VWS V14.01,2013-08-06 19:20:00,
2013-08-06 14:21:00,101.2,62.1,29.91,SE,128,0.0,3.0,28,0.00,,CLR,0.00,VWS V14.01,2013-08-06 19:21:00,
2013-08-06 14:22:00,101.2,62.1,29.91,SW,214,0.0,3.0,28,0.00,,CLR,0.00,VWS V14.01,2013-08-06 19:22:00,
2013-08-06 14:23:00,99.7,61.8,29.91,SSE,158,3.0,16.0,29,0.00,,CLR,0.00,VWS V14.01,2013-08-06 19:23:00,
2013-08-06 14:24:00,101.5,62.3,29.91,SSW,212,5.0,10.0,28,0.00,,CLR,0.00,VWS V14.01,2013-08-06 19:24:00,
2013-08-06 14:25:00,101.7,61.5,29.91,SE,127,5.0,10.0,27,0.00,,CLR,0.00,VWS V14.01,2013-08-06 19:25:00,
2013-08-06 14:26:00,101.7,62.5,29.91,SSW,207,5.0,10.0,28,0.00,,CLR,0.00,VWS V14.01,2013-08-06 19:26:00,
2013-08-06 14:27:00,101.7,61.5,29.91,SSW,194,7.0,10.0,27,0.00,,CLR,0.00,VWS V14.01,2013-08-06 19:27:00,
2013-08-06 14:28:00,101.0,61.9,29.91,ESE,121,3.0,16.0,28,0.00,,CLR,0.00,VWS V14.01,2013-08-06 19:28:00,
2013-08-06 14:29:00,101.5,62.3,29.90,WSW,241,5.0,10.0,28,0.00,,CLR,0.00,VWS V14.01,2013-08-06 19:29:00,
2013-08-06 14:30:00,101.5,62.3,29.90,WSW,240,5.0,6.0,28,0.00,,CLR,0.00,VWS V14.01,2013-08-06 19:30:00,
2013-08-06 14:31:00,101.5,61.3,29.90,SSW,198,11.0,11.0,27,0.00,,CLR,0.00,VWS V14.01,2013-08-06 19:31:00,
2013-08-06 14:32:00,101.5,61.3,29.90,South,173,3.0,13.0,27,0.00,,CLR,0.00,VWS V14.01,2013-08-06 19:32:00,
2013-08-06 14:33:00,101.5,62.3,29.91,North,355,8.0,10.0,28,0.00,,CLR,0.00,VWS V14.01,2013-08-06 19:33:00,
2013-08-06 14:34:00,101.2,61.1,29.90,West,271,0.0,14.0,27,0.00,,CLR,0.00,VWS V14.01,2013-08-06 19:34:00,
2013-08-06 14:35:00,101.5,61.3,29.90,SSE,159,3.0,14.0,27,0.00,,CLR,0.00,VWS V14.01,2013-08-06 19:35:00,
2013-08-06 14:36:00,101.5,61.3,29.90,South,182,0.0,14.0,27,0.00,,CLR,0.00,VWS V14.01,2013-08-06 19:36:00,
2013-08-06 14:37:00,101.5,61.3,29.90,East,96,0.0,14.0,27,0.00,,CLR,0.00,VWS V14.01,2013-08-06 19:37:00,
2013-08-06 14:38:00,101.5,62.3,29.90,South,188,0.0,10.0,28,0.00,,CLR,0.00,VWS V14.01,2013-08-06 19:38:00,
2013-08-06 14:39:00,101.7,61.5,29.90,SE,130,2.0,14.0,27,0.00,,CLR,0.00,VWS V14.01,2013-08-06 19:39:00,
2013-08-06 14:40:00,102.0,60.7,29.90,SE,129,0.0,0.0,26,0.00,,CLR,0.00,VWS V14.01,2013-08-06 19:40:00,
2013-08-06 14:41:00,102.0,60.7,29.90,SSE,157,4.0,8.0,26,0.00,,CLR,0.00,VWS V14.01,2013-08-06 19:41:00,
2013-08-06 14:42:00,102.0,61.7,29.90,South,169,2.0,8.0,27,0.00,,CLR,0.00,VWS V14.01,2013-08-06 19:42:00,
2013-08-06 14:43:00,101.2,61.1,29.90,West,271,0.0,14.0,27,0.00,,CLR,0.00,VWS V14.01,2013-08-06 19:43:00,
2013-08-06 14:44:00,102.0,59.6,29.90,South,189,4.0,10.0,25,0.00,,CLR,0.00,VWS V14.01,2013-08-06 19:44:00,
2013-08-06 14:45:00,102.0,59.6,29.90,South,186,6.0,10.0,25,0.00,,CLR,0.00,VWS V14.01,2013-08-06 19:45:00,
2013-08-06 14:46:00,102.3,59.8,29.90,SSW,200,5.0,10.0,25,0.00,,CLR,0.00,VWS V14.01,2013-08-06 19:46:00,
2013-08-06 14:47:00,102.3,59.8,29.90,SSE,157,1.0,11.0,25,0.00,,CLR,0.00,VWS V14.01,2013-08-06 19:47:00,
2013-08-06 14:48:00,101.7,61.5,29.90,ESE,103,0.0,14.0,27,0.00,,CLR,0.00,VWS V14.01,2013-08-06 19:48:00,
2013-08-06 14:49:00,102.5,60.0,29.90,SSW,201,7.0,11.0,25,0.00,,CLR,0.00,VWS V14.01,2013-08-06 19:49:00,
2013-08-06 14:50:00,102.3,60.9,29.90,WSW,241,3.0,4.0,26,0.00,,CLR,0.00,VWS V14.01,2013-08-06 19:50:00,
2013-08-06 14:51:00,102.3,62.0,29.90,SW,214,4.0,6.0,27,0.00,,CLR,0.00,VWS V14.01,2013-08-06 19:51:00,
2013-08-06 14:52:00,102.3,62.0,29.90,SSE,159,2.0,6.0,27,0.00,,CLR,0.00,VWS V14.01,2013-08-06 19:52:00,
2013-08-06 14:53:00,102.0,60.7,29.90,SSE,167,4.0,10.0,26,0.00,,CLR,0.00,VWS V14.01,2013-08-06 19:53:00,
2013-08-06 14:54:00,102.3,59.8,29.90,SE,144,11.0,11.0,25,0.00,,CLR,0.00,VWS V14.01,2013-08-06 19:54:00,
2013-08-06 14:55:00,102.3,59.8,29.90,SSE,168,3.0,12.0,25,0.00,,CLR,0.00,VWS V14.01,2013-08-06 19:55:00,
2013-08-06 14:56:00,102.3,59.8,29.90,South,178,4.0,12.0,25,0.00,,CLR,0.00,VWS V14.01,2013-08-06 19:56:00,
2013-08-06 14:57:00,102.3,60.9,29.90,SE,144,3.0,12.0,26,0.00,,CLR,0.00,VWS V14.01,2013-08-06 19:57:00,
2013-08-06 14:58:00,102.5,60.0,29.90,South,186,6.0,11.0,25,0.00,,CLR,0.00,VWS V14.01,2013-08-06 19:58:00,
2013-08-06 14:59:00,102.0,60.7,29.89,South,175,4.0,12.0,26,0.00,,CLR,0.00,VWS V14.01,2013-08-06 19:59:00,
2013-08-06 15:00:00,102.0,60.7,29.89,SSE,168,3.0,10.0,26,0.00,,CLR,0.00,VWS V14.01,2013-08-06 20:00:00,
2013-08-06 15:01:00,102.0,60.7,29.89,SSE,161,4.0,10.0,26,0.00,,CLR,0.00,VWS V14.01,2013-08-06 20:01:00,
2013-08-06 15:02:00,102.0,60.7,29.89,SSE,161,4.0,10.0,26,0.00,,CLR,0.00,VWS V14.01,2013-08-06 20:02:00,
2013-08-06 15:03:00,102.3,59.8,29.90,SE,145,4.0,9.0,25,0.00,,CLR,0.00,VWS V14.01,2013-08-06 20:03:00,
2013-08-06 15:04:00,102.3,60.9,29.89,NE,44,0.0,10.0,26,0.00,,CLR,0.00,VWS V14.01,2013-08-06 20:04:00,
2013-08-06 15:05:00,102.3,60.9,29.89,ESE,104,0.0,10.0,26,0.00,,CLR,0.00,VWS V14.01,2013-08-06 20:05:00,
2013-08-06 15:06:00,102.5,61.1,29.89,SE,139,2.0,10.0,26,0.00,,CLR,0.00,VWS V14.01,2013-08-06 20:06:00,
2013-08-06 15:07:00,102.5,61.1,29.89,SSE,150,2.0,10.0,26,0.00,,CLR,0.00,VWS V14.01,2013-08-06 20:07:00,
2013-08-06 15:08:00,102.3,60.9,29.89,SSE,150,3.0,12.0,26,0.00,,CLR,0.00,VWS V14.01,2013-08-06 20:08:00,
2013-08-06 15:09:00,102.8,60.2,29.89,SSE,162,0.0,10.0,25,0.00,,CLR,0.00,VWS V14.01,2013-08-06 20:09:00,
2013-08-06 15:10:00,102.8,61.3,29.89,SSE,161,13.0,13.0,26,0.00,,CLR,0.00,VWS V14.01,2013-08-06 20:10:00,
2013-08-06 15:11:00,102.5,61.1,29.89,SSW,200,6.0,13.0,26,0.00,,CLR,0.00,VWS V14.01,2013-08-06 20:11:00,
2013-08-06 15:12:00,102.5,61.1,29.89,SSW,195,6.0,13.0,26,0.00,,CLR,0.00,VWS V14.01,2013-08-06 20:12:00,
2013-08-06 15:13:00,102.0,60.7,29.89,NNE,31,3.0,10.0,26,0.00,,CLR,0.00,VWS V14.01,2013-08-06 20:13:00,
2013-08-06 15:14:00,102.5,61.1,29.88,SSE,163,7.0,13.0,26,0.00,,CLR,0.00,VWS V14.01,2013-08-06 20:14:00,
2013-08-06 15:15:00,102.5,61.1,29.88,South,170,7.0,13.0,26,0.00,,CLR,0.00,VWS V14.01,2013-08-06 20:15:00,
2013-08-06 15:16:00,102.3,60.9,29.88,ESE,105,8.0,13.0,26,0.00,,CLR,0.00,VWS V14.01,2013-08-06 20:16:00,
2013-08-06 15:17:00,102.0,60.7,29.88,SSE,151,4.0,13.0,26,0.00,,CLR,0.00,VWS V14.01,2013-08-06 20:17:00,
2013-08-06 15:18:00,102.8,60.2,29.89,SSE,162,1.0,10.0,25,0.00,,CLR,0.00,VWS V14.01,2013-08-06 20:18:00,
2013-08-06 15:19:00,102.0,60.7,29.88,SSE,167,2.0,13.0,26,0.00,,CLR,0.00,VWS V14.01,2013-08-06 20:19:00,
2013-08-06 15:20:00,102.0,60.7,29.88,South,185,0.0,5.0,26,0.00,,CLR,0.00,VWS V14.01,2013-08-06 20:20:00,
2013-08-06 15:21:00,102.0,60.7,29.88,South,184,3.0,5.0,26,0.00,,CLR,0.00,VWS V14.01,2013-08-06 20:21:00,
2013-08-06 15:22:00,102.3,60.9,29.88,ESE,110,3.0,7.0,26,0.00,,CLR,0.00,VWS V14.01,2013-08-06 20:22:00,
2013-08-06 15:23:00,102.5,61.1,29.88,South,177,5.0,13.0,26,0.00,,CLR,0.00,VWS V14.01,2013-08-06 20:23:00,
2013-08-06 15:24:00,102.8,60.2,29.88,SSE,160,3.0,11.0,25,0.00,,CLR,0.00,VWS V14.01,2013-08-06 20:24:00,
2013-08-06 15:25:00,102.8,60.2,29.88,SE,131,13.0,14.0,25,0.00,,CLR,0.00,VWS V14.01,2013-08-06 20:25:00,
2013-08-06 15:26:00,102.5,60.0,29.88,SE,132,8.0,14.0,25,0.00,,CLR,0.00,VWS V14.01,2013-08-06 20:26:00,
2013-08-06 15:27:00,102.3,59.8,29.88,SE,133,7.0,14.0,25,0.00,,CLR,0.00,VWS V14.01,2013-08-06 20:27:00,
2013-08-06 15:28:00,101.7,60.4,29.88,South,176,3.0,13.0,26,0.00,,CLR,0.00,VWS V14.01,2013-08-06 20:28:00,
2013-08-06 15:29:00,102.3,59.8,29.88,SSE,152,0.0,14.0,25,0.00,,CLR,0.00,VWS V14.01,2013-08-06 20:29:00,
2013-08-06 15:30:00,102.3,59.8,29.88,SSE,160,5.0,6.0,25,0.00,,CLR,0.00,VWS V14.01,2013-08-06 20:30:00,
2013-08-06 15:31:00,102.5,60.0,29.88,South,171,6.0,6.0,25,0.00,,CLR,0.00,VWS V14.01,2013-08-06 20:31:00,
2013-08-06 15:32:00,102.3,60.9,29.88,ESE,122,9.0,10.0,26,0.00,,CLR,0.00,VWS V14.01,2013-08-06 20:32:00,
2013-08-06 15:33:00,102.8,60.2,29.88,SSE,150,2.0,6.0,25,0.00,,CLR,0.00,VWS V14.01,2013-08-06 20:33:00,
2013-08-06 15:34:00,102.8,60.2,29.88,SE,133,5.0,7.0,25,0.00,,CLR,0.00,VWS V14.01,2013-08-06 20:34:00,
2013-08-06 15:35:00,103.1,60.5,29.88,SSE,161,9.0,11.0,25,0.00,,CLR,0.00,VWS V14.01,2013-08-06 20:35:00,
2013-08-06 15:36:00,102.8,60.2,29.88,SSW,200,6.0,11.0,25,0.00,,CLR,0.00,VWS V14.01,2013-08-06 20:36:00,
2013-08-06 15:37:00,102.3,59.8,29.88,SSE,148,7.0,14.0,25,0.00,,CLR,0.00,VWS V14.01,2013-08-06 20:37:00,
2013-08-06 15:38:00,103.1,60.5,29.88,SSE,165,14.0,14.0,25,0.00,,CLR,0.00,VWS V14.01,2013-08-06 20:38:00,
2013-08-06 15:39:00,102.8,60.2,29.88,SSE,157,2.0,14.0,25,0.00,,CLR,0.00,VWS V14.01,2013-08-06 20:39:00,
2013-08-06 15:40:00,102.8,61.3,29.88,SSW,194,4.0,5.0,26,0.00,,CLR,0.00,VWS V14.01,2013-08-06 20:40:00,
2013-08-06 15:41:00,102.8,61.3,29.88,South,188,1.0,6.0,26,0.00,,CLR,0.00,VWS V14.01,2013-08-06 20:41:00,
2013-08-06 15:42:00,102.8,60.2,29.88,South,169,4.0,6.0,25,0.00,,CLR,0.00,VWS V14.01,2013-08-06 20:42:00,
2013-08-06 15:43:00,102.8,60.2,29.88,SSE,161,0.0,6.0,25,0.00,,CLR,0.00,VWS V14.01,2013-08-06 20:43:00,
2013-08-06 15:44:00,103.1,60.5,29.86,SSE,161,0.0,6.0,25,0.00,,CLR,0.00,VWS V14.01,2013-08-06 20:44:00,
2013-08-06 15:45:00,103.1,60.5,29.86,East,96,4.0,6.0,25,0.00,,CLR,0.00,VWS V14.01,2013-08-06 20:45:00,
2013-08-06 15:46:00,103.1,60.5,29.86,South,177,1.0,6.0,25,0.00,,CLR,0.00,VWS V14.01,2013-08-06 20:46:00,
2013-08-06 15:47:00,103.1,60.5,29.88,South,173,9.0,14.0,25,0.00,,CLR,0.00,VWS V14.01,2013-08-06 20:47:00,
2013-08-06 15:48:00,103.1,60.5,29.86,NE,45,10.0,15.0,25,0.00,,CLR,0.00,VWS V14.01,2013-08-06 20:48:00,
2013-08-06 15:49:00,102.8,60.2,29.86,SE,138,5.0,15.0,25,0.00,,CLR,0.00,VWS V14.01,2013-08-06 20:49:00,
2013-08-06 15:50:00,102.8,60.2,29.86,South,177,5.0,11.0,25,0.00,,CLR,0.00,VWS V14.01,2013-08-06 20:50:00,
2013-08-06 15:51:00,102.8,60.2,29.86,South,172,6.0,11.0,25,0.00,,CLR,0.00,VWS V14.01,2013-08-06 20:51:00,
2013-08-06 15:52:00,102.8,61.3,29.88,SSE,162,0.0,6.0,26,0.00,,CLR,0.00,VWS V14.01,2013-08-06 20:52:00,
2013-08-06 15:53:00,102.8,60.2,29.86,South,175,4.0,11.0,25,0.00,,CLR,0.00,VWS V14.01,2013-08-06 20:53:00,
2013-08-06 15:54:00,103.1,59.3,29.86,ESE,113,7.0,11.0,24,0.00,,CLR,0.00,VWS V14.01,2013-08-06 20:54:00,
2013-08-06 15:55:00,103.1,59.3,29.86,SSW,200,6.0,11.0,24,0.00,,CLR,0.00,VWS V14.01,2013-08-06 20:55:00,
2013-08-06 15:56:00,103.3,59.5,29.86,South,174,5.0,11.0,24,0.00,,CLR,0.00,VWS V14.01,2013-08-06 20:56:00,
2013-08-06 15:57:00,103.1,60.5,29.86,SSE,158,13.0,13.0,25,0.00,,CLR,0.00,VWS V14.01,2013-08-06 20:57:00,
2013-08-06 15:58:00,103.6,59.8,29.86,South,188,3.0,11.0,24,0.00,,CLR,0.00,VWS V14.01,2013-08-06 20:58:00,
2013-08-06 15:59:00,103.8,59.9,29.86,SSE,154,0.0,11.0,24,0.00,,CLR,0.00,VWS V14.01,2013-08-06 20:59:00,
2013-08-06 16:00:00,103.8,59.9,29.86,South,175,1.0,4.0,24,0.00,,CLR,0.00,VWS V14.01,2013-08-06 21:00:00,
2013-08-06 16:01:00,104.1,60.2,29.86,SSE,150,7.0,11.0,24,0.00,,CLR,0.00,VWS V14.01,2013-08-06 21:01:00,
2013-08-06 16:02:00,102.8,60.2,29.86,South,186,4.0,11.0,25,0.00,,CLR,0.00,VWS V14.01,2013-08-06 21:02:00,
2013-08-06 16:03:00,103.8,59.9,29.86,SSE,166,2.0,11.0,24,0.00,,CLR,0.00,VWS V14.01,2013-08-06 21:03:00,
2013-08-06 16:04:00,103.8,59.9,29.86,SSE,155,5.0,11.0,24,0.00,,CLR,0.00,VWS V14.01,2013-08-06 21:04:00,
2013-08-06 16:05:00,103.8,59.9,29.86,SSE,151,4.0,11.0,24,0.00,,CLR,0.00,VWS V14.01,2013-08-06 21:05:00,
2013-08-06 16:06:00,103.8,59.9,29.86,South,172,10.0,12.0,24,0.00,,CLR,0.00,VWS V14.01,2013-08-06 21:06:00,
2013-08-06 16:07:00,103.6,59.8,29.86,South,173,5.0,11.0,24,0.00,,CLR,0.00,VWS V14.01,2013-08-06 21:07:00,
2013-08-06 16:08:00,103.6,59.8,29.86,South,190,5.0,15.0,24,0.00,,CLR,0.00,VWS V14.01,2013-08-06 21:08:00,
2013-08-06 16:09:00,103.3,59.5,29.86,SSW,211,6.0,15.0,24,0.00,,CLR,0.00,VWS V14.01,2013-08-06 21:09:00,
2013-08-06 16:10:00,103.1,59.3,29.86,SSW,201,9.0,9.0,24,0.00,,CLR,0.00,VWS V14.01,2013-08-06 21:10:00,
2013-08-06 16:11:00,103.1,59.3,29.86,South,176,0.0,9.0,24,0.00,,CLR,0.00,VWS V14.01,2013-08-06 21:11:00,
2013-08-06 16:12:00,104.1,60.2,29.86,SSE,155,5.0,11.0,24,0.00,,CLR,0.00,VWS V14.01,2013-08-06 21:12:00,
2013-08-06 16:13:00,103.3,59.5,29.86,South,188,4.0,9.0,24,0.00,,CLR,0.00,VWS V14.01,2013-08-06 21:13:00,
2013-08-06 16:14:00,103.3,59.5,29.85,South,175,4.0,9.0,24,0.00,,CLR,0.00,VWS V14.01,2013-08-06 21:14:00,
2013-08-06 16:15:00,103.8,59.9,29.85,South,180,2.0,9.0,24,0.00,,CLR,0.00,VWS V14.01,2013-08-06 21:15:00,
2013-08-06 16:16:00,103.8,59.9,29.85,SSE,165,1.0,9.0,24,0.00,,CLR,0.00,VWS V14.01,2013-08-06 21:16:00,
2013-08-06 16:17:00,103.6,59.8,29.86,SSW,207,8.0,15.0,24,0.00,,CLR,0.00,VWS V14.01,2013-08-06 21:17:00,
2013-08-06 16:18:00,104.1,59.0,29.85,SSW,202,4.0,11.0,23,0.00,,CLR,0.00,VWS V14.01,2013-08-06 21:18:00,
2013-08-06 16:19:00,104.1,59.0,29.85,SSW,196,7.0,11.0,23,0.00,,CLR,0.00,VWS V14.01,2013-08-06 21:19:00,
2013-08-06 16:20:00,104.1,59.0,29.85,SE,136,3.0,7.0,23,0.00,,CLR,0.00,VWS V14.01,2013-08-06 21:20:00,
2013-08-06 16:21:00,104.1,59.0,29.85,SSE,167,1.0,7.0,23,0.00,,CLR,0.00,VWS V14.01,2013-08-06 21:21:00,
2013-08-06 16:22:00,103.3,59.5,29.86,SSW,193,7.0,9.0,24,0.00,,CLR,0.00,VWS V14.01,2013-08-06 21:22:00,
2013-08-06 16:23:00,104.1,59.0,29.85,SSE,168,6.0,12.0,23,0.00,,CLR,0.00,VWS V14.01,2013-08-06 21:23:00,
2013-08-06 16:24:00,104.1,59.0,29.85,South,186,0.0,12.0,23,0.00,,CLR,0.00,VWS V14.01,2013-08-06 21:24:00,
2013-08-06 16:25:00,104.1,60.2,29.85,South,176,4.0,12.0,24,0.00,,CLR,0.00,VWS V14.01,2013-08-06 21:25:00,
2013-08-06 16:26:00,103.8,58.7,29.85,SE,140,4.0,12.0,23,0.00,,CLR,0.00,VWS V14.01,2013-08-06 21:26:00,
2013-08-06 16:27:00,104.1,59.0,29.85,SSW,196,3.0,9.0,23,0.00,,CLR,0.00,VWS V14.01,2013-08-06 21:27:00,
2013-08-06 16:28:00,103.8,58.7,29.85,South,187,5.0,12.0,23,0.00,,CLR,0.00,VWS V14.01,2013-08-06 21:28:00,
2013-08-06 16:29:00,104.1,60.2,29.85,SE,126,12.0,12.0,24,0.00,,CLR,0.00,VWS V14.01,2013-08-06 21:29:00,
2013-08-06 16:30:00,103.8,59.9,29.85,SW,219,8.0,9.0,24,0.00,,CLR,0.00,VWS V14.01,2013-08-06 21:30:00,
2013-08-06 16:31:00,103.8,59.9,29.85,South,189,5.0,9.0,24,0.00,,CLR,0.00,VWS V14.01,2013-08-06 21:31:00,
2013-08-06 16:32:00,104.4,59.2,29.85,SSE,168,5.0,12.0,23,0.00,,CLR,0.00,VWS V14.01,2013-08-06 21:32:00,
2013-08-06 16:33:00,103.8,59.9,29.85,SSE,151,2.0,11.0,24,0.00,,CLR,0.00,VWS V14.01,2013-08-06 21:33:00,
2013-08-06 16:34:00,103.8,59.9,29.85,SE,126,0.0,11.0,24,0.00,,CLR,0.00,VWS V14.01,2013-08-06 21:34:00,
2013-08-06 16:35:00,103.8,58.7,29.85,SSE,148,3.0,11.0,23,0.00,,CLR,0.00,VWS V14.01,2013-08-06 21:35:00,
2013-08-06 16:36:00,103.8,58.7,29.85,ENE,67,4.0,11.0,23,0.00,,CLR,0.00,VWS V14.01,2013-08-06 21:36:00,
2013-08-06 16:37:00,103.8,58.7,29.85,South,191,6.0,12.0,23,0.00,,CLR,0.00,VWS V14.01,2013-08-06 21:37:00,
2013-08-06 16:38:00,103.8,59.9,29.85,SE,142,6.0,11.0,24,0.00,,CLR,0.00,VWS V14.01,2013-08-06 21:38:00,
2013-08-06 16:39:00,103.8,59.9,29.85,SSE,150,9.0,11.0,24,0.00,,CLR,0.00,VWS V14.01,2013-08-06 21:39:00,
2013-08-06 16:40:00,103.8,59.9,29.85,SSE,165,5.0,9.0,24,0.00,,CLR,0.00,VWS V14.01,2013-08-06 21:40:00,
2013-08-06 16:41:00,103.8,59.9,29.85,South,182,4.0,9.0,24,0.00,,CLR,0.00,VWS V14.01,2013-08-06 21:41:00,
2013-08-06 16:42:00,103.8,59.9,29.85,SSE,168,4.0,10.0,24,0.00,,CLR,0.00,VWS V14.01,2013-08-06 21:42:00,
2013-08-06 16:43:00,103.6,59.8,29.85,SSE,157,3.0,9.0,24,0.00,,CLR,0.00,VWS V14.01,2013-08-06 21:43:00,
2013-08-06 16:44:00,103.6,59.8,29.85,SSE,166,2.0,9.0,24,0.00,,CLR,0.00,VWS V14.01,2013-08-06 21:44:00,
2013-08-06 16:45:00,103.6,59.8,29.85,South,175,3.0,9.0,24,0.00,,CLR,0.00,VWS V14.01,2013-08-06 21:45:00,
2013-08-06 16:46:00,103.6,59.8,29.85,SSE,163,5.0,11.0,24,0.00,,CLR,0.00,VWS V14.01,2013-08-06 21:46:00,
2013-08-06 16:47:00,103.8,58.7,29.85,SSW,192,9.0,11.0,23,0.00,,CLR,0.00,VWS V14.01,2013-08-06 21:47:00,
2013-08-06 16:48:00,103.6,59.8,29.85,ESE,119,3.0,11.0,24,0.00,,CLR,0.00,VWS V14.01,2013-08-06 21:48:00,
2013-08-06 16:49:00,103.6,59.8,29.85,SE,128,4.0,11.0,24,0.00,,CLR,0.00,VWS V14.01,2013-08-06 21:49:00,
2013-08-06 16:50:00,103.6,59.8,29.85,SW,223,2.0,7.0,24,0.00,,CLR,0.00,VWS V14.01,2013-08-06 21:50:00,
2013-08-06 16:51:00,103.6,58.6,29.85,ESE,115,2.0,7.0,23,0.00,,CLR,0.00,VWS V14.01,2013-08-06 21:51:00,
2013-08-06 16:52:00,103.6,59.8,29.85,SSW,197,4.0,9.0,24,0.00,,CLR,0.00,VWS V14.01,2013-08-06 21:52:00,
2013-08-06 16:53:00,103.3,58.3,29.85,SSE,167,4.0,12.0,23,0.00,,CLR,0.00,VWS V14.01,2013-08-06 21:53:00,
2013-08-06 16:54:00,103.3,59.5,29.85,SE,145,5.0,12.0,24,0.00,,CLR,0.00,VWS V14.01,2013-08-06 21:54:00,
2013-08-06 16:55:00,103.3,58.3,29.85,SE,144,9.0,12.0,23,0.00,,CLR,0.00,VWS V14.01,2013-08-06 21:55:00,
2013-08-06 16:56:00,103.3,58.3,29.85,South,185,6.0,12.0,23,0.00,,CLR,0.00,VWS V14.01,2013-08-06 21:56:00,
2013-08-06 16:57:00,103.6,59.8,29.85,SSE,148,3.0,11.0,24,0.00,,CLR,0.00,VWS V14.01,2013-08-06 21:57:00,
2013-08-06 16:58:00,103.3,59.5,29.85,SSE,167,2.0,12.0,24,0.00,,CLR,0.00,VWS V14.01,2013-08-06 21:58:00,
2013-08-06 16:59:00,103.6,59.8,29.84,South,180,5.0,12.0,24,0.00,,CLR,0.00,VWS V14.01,2013-08-06 21:59:00,
2013-08-06 17:00:00,103.6,59.8,29.84,SSW,195,3.0,6.0,24,0.00,,CLR,0.00,VWS V14.01,2013-08-06 22:00:00,
2013-08-06 17:01:00,103.6,59.8,29.84,SSW,202,6.0,14.0,24,0.00,,CLR,0.00,VWS V14.01,2013-08-06 22:01:00,
2013-08-06 17:02:00,103.3,58.3,29.85,SSE,165,6.0,12.0,23,0.00,,CLR,0.00,VWS V14.01,2013-08-06 22:02:00,
2013-08-06 17:03:00,103.6,59.8,29.84,SE,146,1.0,14.0,24,0.00,,CLR,0.00,VWS V14.01,2013-08-06 22:03:00,
2013-08-06 17:04:00,103.6,59.8,29.84,SSE,168,6.0,14.0,24,0.00,,CLR,0.00,VWS V14.01,2013-08-06 22:04:00,
2013-08-06 17:05:00,103.6,58.6,29.84,ESE,117,4.0,14.0,23,0.00,,CLR,0.00,VWS V14.01,2013-08-06 22:05:00,
2013-08-06 17:06:00,103.3,58.3,29.84,SE,140,0.0,14.0,23,0.00,,CLR,0.00,VWS V14.01,2013-08-06 22:06:00,
2013-08-06 17:07:00,103.3,59.5,29.85,SSE,161,6.0,12.0,24,0.00,,CLR,0.00,VWS V14.01,2013-08-06 22:07:00,
2013-08-06 17:08:00,103.3,58.3,29.84,SSW,207,1.0,14.0,23,0.00,,CLR,0.00,VWS V14.01,2013-08-06 22:08:00,
2013-08-06 17:09:00,103.6,58.6,29.84,SSE,164,6.0,14.0,23,0.00,,CLR,0.00,VWS V14.01,2013-08-06 22:09:00,
2013-08-06 17:10:00,103.6,59.8,29.84,SE,140,5.0,9.0,24,0.00,,CLR,0.00,VWS V14.01,2013-08-06 22:10:00,
2013-08-06 17:11:00,103.6,59.8,29.84,SE,142,1.0,9.0,24,0.00,,CLR,0.00,VWS V14.01,2013-08-06 22:11:00,
2013-08-06 17:12:00,103.6,59.8,29.84,South,169,6.0,14.0,24,0.00,,CLR,0.00,VWS V14.01,2013-08-06 22:12:00,
2013-08-06 17:13:00,103.6,59.8,29.84,SE,125,7.0,9.0,24,0.00,,CLR,0.00,VWS V14.01,2013-08-06 22:13:00,
2013-08-06 17:14:00,103.6,59.8,29.84,SE,133,3.0,10.0,24,0.00,,CLR,0.00,VWS V14.01,2013-08-06 22:14:00,
2013-08-06 17:15:00,103.6,59.8,29.84,SSE,168,10.0,14.0,24,0.00,,CLR,0.00,VWS V14.01,2013-08-06 22:15:00,
2013-08-06 17:16:00,103.3,59.5,29.84,South,169,4.0,14.0,24,0.00,,CLR,0.00,VWS V14.01,2013-08-06 22:16:00,
2013-08-06 17:17:00,103.3,58.3,29.84,South,183,3.0,14.0,23,0.00,,CLR,0.00,VWS V14.01,2013-08-06 22:17:00,
2013-08-06 17:18:00,103.1,59.3,29.84,SSE,151,4.0,14.0,24,0.00,,CLR,0.00,VWS V14.01,2013-08-06 22:18:00,
2013-08-06 17:19:00,103.1,59.3,29.84,South,175,4.0,14.0,24,0.00,,CLR,0.00,VWS V14.01,2013-08-06 22:19:00,
2013-08-06 17:20:00,103.1,59.3,29.84,South,176,4.0,4.0,24,0.00,,CLR,0.00,VWS V14.01,2013-08-06 22:20:00,
2013-08-06 17:21:00,103.1,59.3,29.84,SSE,157,2.0,11.0,24,0.00,,CLR,0.00,VWS V14.01,2013-08-06 22:21:00,
2013-08-06 17:22:00,103.6,59.8,29.84,ENE,74,6.0,9.0,24,0.00,,CLR,0.00,VWS V14.01,2013-08-06 22:22:00,
2013-08-06 17:23:00,103.1,59.3,29.84,South,169,1.0,11.0,24,0.00,,CLR,0.00,VWS V14.01,2013-08-06 22:23:00,
2013-08-06 17:24:00,103.1,59.3,29.84,ESE,105,4.0,11.0,24,0.00,,CLR,0.00,VWS V14.01,2013-08-06 22:24:00,
2013-08-06 17:25:00,103.1,59.3,29.84,South,182,4.0,11.0,24,0.00,,CLR,0.00,VWS V14.01,2013-08-06 22:25:00,
2013-08-06 17:26:00,103.1,59.3,29.84,SSE,159,1.0,11.0,24,0.00,,CLR,0.00,VWS V14.01,2013-08-06 22:26:00,
2013-08-06 17:27:00,103.1,59.3,29.84,SE,143,6.0,14.0,24,0.00,,CLR,0.00,VWS V14.01,2013-08-06 22:27:00,
2013-08-06 17:28:00,103.3,59.5,29.84,South,187,6.0,11.0,24,0.00,,CLR,0.00,VWS V14.01,2013-08-06 22:28:00,
2013-08-06 17:29:00,103.3,60.7,29.83,SSE,161,3.0,13.0,25,0.00,,CLR,0.00,VWS V14.01,2013-08-06 22:29:00,
2013-08-06 17:30:00,103.3,60.7,29.83,SE,146,3.0,6.0,25,0.00,,CLR,0.00,VWS V14.01,2013-08-06 22:30:00,
2013-08-06 17:31:00,103.3,60.7,29.83,ESE,113,1.0,6.0,25,0.00,,CLR,0.00,VWS V14.01,2013-08-06 22:31:00,
2013-08-06 17:32:00,103.1,59.3,29.84,South,174,4.0,11.0,24,0.00,,CLR,0.00,VWS V14.01,2013-08-06 22:32:00,
2013-08-06 17:33:00,103.3,60.7,29.83,South,178,7.0,9.0,25,0.00,,CLR,0.00,VWS V14.01,2013-08-06 22:33:00,
2013-08-06 17:34:00,103.3,60.7,29.83,ESE,118,1.0,9.0,25,0.00,,CLR,0.00,VWS V14.01,2013-08-06 22:34:00,
2013-08-06 17:35:00,103.3,60.7,29.83,SE,134,2.0,9.0,25,0.00,,CLR,0.00,VWS V14.01,2013-08-06 22:35:00,
2013-08-06 17:36:00,103.3,60.7,29.83,SSE,164,1.0,9.0,25,0.00,,CLR,0.00,VWS V14.01,2013-08-06 22:36:00,
2013-08-06 17:37:00,103.1,59.3,29.84,South,184,5.0,11.0,24,0.00,,CLR,0.00,VWS V14.01,2013-08-06 22:37:00,
2013-08-06 17:38:00,103.3,60.7,29.83,SSE,156,4.0,9.0,25,0.00,,CLR,0.00,VWS V14.01,2013-08-06 22:38:00,
2013-08-06 17:39:00,103.3,60.7,29.83,SSE,148,5.0,9.0,25,0.00,,CLR,0.00,VWS V14.01,2013-08-06 22:39:00,
2013-08-06 17:40:00,103.3,61.8,29.83,SE,138,1.0,6.0,26,0.00,,CLR,0.00,VWS V14.01,2013-08-06 22:40:00,
2013-08-06 17:41:00,103.3,60.7,29.83,SSE,150,11.0,12.0,25,0.00,,CLR,0.00,VWS V14.01,2013-08-06 22:41:00,
2013-08-06 17:42:00,103.3,60.7,29.83,SSW,192,7.0,7.0,25,0.00,,CLR,0.00,VWS V14.01,2013-08-06 22:42:00,
2013-08-06 17:43:00,102.8,60.2,29.83,SSE,163,7.0,15.0,25,0.00,,CLR,0.00,VWS V14.01,2013-08-06 22:43:00,
2013-08-06 17:44:00,102.8,61.3,29.83,SSE,158,3.0,15.0,26,0.00,,CLR,0.00,VWS V14.01,2013-08-06 22:44:00,
2013-08-06 17:45:00,102.8,61.3,29.83,SSE,156,9.0,15.0,26,0.00,,CLR,0.00,VWS V14.01,2013-08-06 22:45:00,
2013-08-06 17:46:00,102.8,61.3,29.83,SSE,148,4.0,15.0,26,0.00,,CLR,0.00,VWS V14.01,2013-08-06 22:46:00,
2013-08-06 17:47:00,103.3,60.7,29.83,SSE,152,6.0,9.0,25,0.00,,CLR,0.00,VWS V14.01,2013-08-06 22:47:00,
2013-08-06 17:48:00,102.5,61.1,29.83,SSE,155,5.0,15.0,26,0.00,,CLR,0.00,VWS V14.01,2013-08-06 22:48:00,
2013-08-06 17:49:00,102.5,61.1,29.83,South,178,6.0,15.0,26,0.00,,CLR,0.00,VWS V14.01,2013-08-06 22:49:00,
2013-08-06 17:50:00,102.5,61.1,29.83,SE,140,1.0,2.0,26,0.00,,CLR,0.00,VWS V14.01,2013-08-06 22:50:00,
2013-08-06 17:51:00,102.5,61.1,29.83,ESE,118,4.0,4.0,26,0.00,,CLR,0.00,VWS V14.01,2013-08-06 22:51:00,
2013-08-06 17:52:00,103.1,60.5,29.83,South,182,15.0,15.0,25,0.00,,CLR,0.00,VWS V14.01,2013-08-06 22:52:00,
2013-08-06 17:53:00,102.8,61.3,29.83,SSE,149,0.0,4.0,26,0.00,,CLR,0.00,VWS V14.01,2013-08-06 22:53:00,
2013-08-06 17:54:00,102.8,61.3,29.83,SSE,163,3.0,4.0,26,0.00,,CLR,0.00,VWS V14.01,2013-08-06 22:54:00,
2013-08-06 17:55:00,102.8,61.3,29.83,SSW,199,3.0,5.0,26,0.00,,CLR,0.00,VWS V14.01,2013-08-06 22:55:00,
2013-08-06 17:56:00,103.1,60.5,29.83,SSE,168,5.0,10.0,25,0.00,,CLR,0.00,VWS V14.01,2013-08-06 22:56:00,
2013-08-06 17:57:00,102.5,61.1,29.83,South,189,5.0,15.0,26,0.00,,CLR,0.00,VWS V14.01,2013-08-06 22:57:00,
2013-08-06 17:58:00,103.1,59.3,29.83,SSE,167,5.0,10.0,24,0.00,,CLR,0.00,VWS V14.01,2013-08-06 22:58:00,
2013-08-06 17:59:00,103.1,58.2,29.82,SSE,165,0.0,10.0,23,0.00,,CLR,0.00,VWS V14.01,2013-08-06 22:59:00,
2013-08-06 18:00:00,103.3,59.5,29.82,South,169,2.0,5.0,24,0.00,,CLR,0.00,VWS V14.01,2013-08-06 23:00:00,
2013-08-06 18:01:00,103.3,59.5,29.82,South,176,1.0,6.0,24,0.00,,CLR,0.00,VWS V14.01,2013-08-06 23:01:00,
2013-08-06 18:02:00,102.5,61.1,29.83,SSE,148,1.0,4.0,26,0.00,,CLR,0.00,VWS V14.01,2013-08-06 23:02:00,
2013-08-06 18:03:00,103.3,59.5,29.82,SE,146,6.0,7.0,24,0.00,,CLR,0.00,VWS V14.01,2013-08-06 23:03:00,
2013-08-06 18:04:00,103.3,60.7,29.82,SSE,161,1.0,7.0,25,0.00,,CLR,0.00,VWS V14.01,2013-08-06 23:04:00,
2013-08-06 18:05:00,103.3,60.7,29.82,SSE,158,0.0,7.0,25,0.00,,CLR,0.00,VWS V14.01,2013-08-06 23:05:00,
2013-08-06 18:06:00,103.6,60.9,29.82,SE,134,5.0,12.0,25,0.00,,CLR,0.00,VWS V14.01,2013-08-06 23:06:00,
2013-08-06 18:07:00,103.1,60.5,29.83,South,182,3.0,10.0,25,0.00,,CLR,0.00,VWS V14.01,2013-08-06 23:07:00,
2013-08-06 18:08:00,103.1,60.5,29.82,South,175,5.0,12.0,25,0.00,,CLR,0.00,VWS V14.01,2013-08-06 23:08:00,
2013-08-06 18:09:00,102.8,61.3,29.82,ESE,111,5.0,12.0,26,0.00,,CLR,0.00,VWS V14.01,2013-08-06 23:09:00,
2013-08-06 18:10:00,102.5,61.1,29.82,SSE,151,4.0,8.0,26,0.00,,CLR,0.00,VWS V14.01,2013-08-06 23:10:00,
2013-08-06 18:11:00,102.5,61.1,29.82,SSE,157,10.0,10.0,26,0.00,,CLR,0.00,VWS V14.01,2013-08-06 23:11:00,
2013-08-06 18:12:00,103.3,59.5,29.82,South,175,5.0,6.0,24,0.00,,CLR,0.00,VWS V14.01,2013-08-06 23:12:00,
2013-08-06 18:13:00,102.5,61.1,29.82,SSE,161,5.0,10.0,26,0.00,,CLR,0.00,VWS V14.01,2013-08-06 23:13:00,
2013-08-06 18:14:00,102.5,61.1,29.82,SE,140,3.0,10.0,26,0.00,,CLR,0.00,VWS V14.01,2013-08-06 23:14:00,
2013-08-06 18:15:00,102.5,61.1,29.82,SSE,160,3.0,11.0,26,0.00,,CLR,0.00,VWS V14.01,2013-08-06 23:15:00,
2013-08-06 18:16:00,102.3,60.9,29.82,SSE,150,4.0,11.0,26,0.00,,CLR,0.00,VWS V14.01,2013-08-06 23:16:00,
2013-08-06 18:17:00,103.3,60.7,29.82,SSE,156,12.0,12.0,25,0.00,,CLR,0.00,VWS V14.01,2013-08-06 23:17:00,
2013-08-06 18:18:00,102.3,60.9,29.82,SE,141,0.0,11.0,26,0.00,,CLR,0.00,VWS V14.01,2013-08-06 23:18:00,
2013-08-06 18:19:00,102.3,60.9,29.82,SSE,168,3.0,11.0,26,0.00,,CLR,0.00,VWS V14.01,2013-08-06 23:19:00,
2013-08-06 18:20:00,102.5,61.1,29.82,ESE,107,2.0,9.0,26,0.00,,CLR,0.00,VWS V14.01,2013-08-06 23:20:00,
2013-08-06 18:21:00,102.5,61.1,29.82,SE,125,5.0,10.0,26,0.00,,CLR,0.00,VWS V14.01,2013-08-06 23:21:00,
2013-08-06 18:22:00,102.5,61.1,29.82,SE,136,0.0,10.0,26,0.00,,CLR,0.00,VWS V14.01,2013-08-06 23:22:00,
2013-08-06 18:23:00,102.5,61.1,29.82,South,180,8.0,10.0,26,0.00,,CLR,0.00,VWS V14.01,2013-08-06 23:23:00,
2013-08-06 18:24:00,102.3,60.9,29.82,SSE,160,6.0,10.0,26,0.00,,CLR,0.00,VWS V14.01,2013-08-06 23:24:00,
2013-08-06 18:25:00,102.3,60.9,29.82,SSE,147,0.0,10.0,26,0.00,,CLR,0.00,VWS V14.01,2013-08-06 23:25:00,
2013-08-06 18:26:00,102.3,60.9,29.82,South,187,2.0,10.0,26,0.00,,CLR,0.00,VWS V14.01,2013-08-06 23:26:00,
2013-08-06 18:27:00,102.3,60.9,29.82,SE,145,2.0,11.0,26,0.00,,CLR,0.00,VWS V14.01,2013-08-06 23:27:00,
2013-08-06 18:28:00,102.3,60.9,29.82,SE,127,5.0,10.0,26,0.00,,CLR,0.00,VWS V14.01,2013-08-06 23:28:00,
2013-08-06 18:29:00,102.3,60.9,29.82,SE,127,5.0,10.0,26,0.00,,CLR,0.00,VWS V14.01,2013-08-06 23:29:00,
2013-08-06 18:30:00,102.3,60.9,29.82,SE,127,5.0,5.0,26,0.00,,CLR,0.00,VWS V14.01,2013-08-06 23:30:00,
2013-08-06 18:31:00,102.3,60.9,29.82,SE,127,5.0,5.0,26,0.00,,CLR,0.00,VWS V14.01,2013-08-06 23:31:00,
2013-08-06 18:32:00,102.5,61.1,29.82,NNW,346,4.0,10.0,26,0.00,,CLR,0.00,VWS V14.01,2013-08-06 23:32:00,
2013-08-06 18:33:00,102.8,60.2,29.82,South,169,1.0,5.0,25,0.00,,CLR,0.00,VWS V14.01,2013-08-06 23:33:00,
2013-08-06 18:34:00,102.8,60.2,29.82,South,174,6.0,7.0,25,0.00,,CLR,0.00,VWS V14.01,2013-08-06 23:34:00,
2013-08-06 18:35:00,102.8,60.2,29.82,SE,140,0.0,7.0,25,0.00,,CLR,0.00,VWS V14.01,2013-08-06 23:35:00,
2013-08-06 18:36:00,102.8,60.2,29.82,South,180,5.0,7.0,25,0.00,,CLR,0.00,VWS V14.01,2013-08-06 23:36:00,
2013-08-06 18:37:00,102.3,60.9,29.82,South,169,3.0,10.0,26,0.00,,CLR,0.00,VWS V14.01,2013-08-06 23:37:00,
2013-08-06 18:38:00,102.8,59.1,29.82,South,173,0.0,11.0,24,0.00,,CLR,0.00,VWS V14.01,2013-08-06 23:38:00,
2013-08-06 18:39:00,102.5,58.8,29.82,South,191,5.0,11.0,24,0.00,,CLR,0.00,VWS V14.01,2013-08-06 23:39:00,
2013-08-06 18:40:00,102.5,58.8,29.82,South,186,0.0,1.0,24,0.00,,CLR,0.00,VWS V14.01,2013-08-06 23:40:00,
2013-08-06 18:41:00,102.5,58.8,29.82,South,185,0.0,4.0,24,0.00,,CLR,0.00,VWS V14.01,2013-08-06 23:41:00,
2013-08-06 18:42:00,102.5,60.0,29.82,South,170,0.0,5.0,25,0.00,,CLR,0.00,VWS V14.01,2013-08-06 23:42:00,
2013-08-06 18:43:00,102.5,58.8,29.82,SSE,164,4.0,5.0,24,0.00,,CLR,0.00,VWS V14.01,2013-08-06 23:43:00,
2013-08-06 18:44:00,102.5,58.8,29.81,SSE,154,0.0,5.0,24,0.00,,CLR,0.00,VWS V14.01,2013-08-06 23:44:00,
2013-08-06 18:45:00,102.5,60.0,29.81,SSE,161,3.0,7.0,25,0.00,,CLR,0.00,VWS V14.01,2013-08-06 23:45:00,
2013-08-06 18:46:00,102.5,60.0,29.81,SSW,196,5.0,10.0,25,0.00,,CLR,0.00,VWS V14.01,2013-08-06 23:46:00,
2013-08-06 18:47:00,102.8,59.1,29.82,South,186,2.0,11.0,24,0.00,,CLR,0.00,VWS V14.01,2013-08-06 23:47:00,
2013-08-06 18:48:00,102.3,59.8,29.81,South,182,7.0,10.0,25,0.00,,CLR,0.00,VWS V14.01,2013-08-06 23:48:00,
2013-08-06 18:49:00,102.3,59.8,29.81,SSE,167,3.0,10.0,25,0.00,,CLR,0.00,VWS V14.01,2013-08-06 23:49:00,
2013-08-06 18:50:00,102.3,59.8,29.81,SSE,153,2.0,4.0,25,0.00,,CLR,0.00,VWS V14.01,2013-08-06 23:50:00,
2013-08-06 18:51:00,102.3,59.8,29.81,SSE,157,1.0,4.0,25,0.00,,CLR,0.00,VWS V14.01,2013-08-06 23:51:00,
2013-08-06 18:52:00,102.5,58.8,29.82,South,189,0.0,5.0,24,0.00,,CLR,0.00,VWS V14.01,2013-08-06 23:52:00,
2013-08-06 18:53:00,102.3,59.8,29.81,SE,130,2.0,5.0,25,0.00,,CLR,0.00,VWS V14.01,2013-08-06 23:53:00,
2013-08-06 18:54:00,102.3,59.8,29.81,SSE,155,2.0,5.0,25,0.00,,CLR,0.00,VWS V14.01,2013-08-06 23:54:00,
2013-08-06 18:55:00,102.3,60.9,29.81,SSE,160,4.0,5.0,26,0.00,,CLR,0.00,VWS V14.01,2013-08-06 23:55:00,
2013-08-06 18:56:00,102.3,60.9,29.81,SSE,161,2.0,5.0,26,0.00,,CLR,0.00,VWS V14.01,2013-08-06 23:56:00,
2013-08-06 18:57:00,102.3,59.8,29.81,SSE,163,6.0,10.0,25,0.00,,CLR,0.00,VWS V14.01,2013-08-06 23:57:00,
2013-08-06 18:58:00,102.3,60.9,29.81,SE,146,6.0,6.0,26,0.00,,CLR,0.00,VWS V14.01,2013-08-06 23:58:00,
2013-08-06 18:59:00,102.0,60.7,29.81,South,178,6.0,7.0,26,0.00,,CLR,0.00,VWS V14.01,2013-08-06 23:59:00,
2013-08-06 19:00:00,101.7,60.4,29.81,ESE,117,4.0,7.0,26,0.00,,CLR,0.00,VWS V14.01,2013-08-07 00:00:00,
2013-08-06 19:01:00,101.7,60.4,29.81,SE,134,1.0,9.0,26,0.00,,CLR,0.00,VWS V14.01,2013-08-07 00:01:00,
2013-08-06 19:02:00,102.3,59.8,29.81,SSE,161,4.0,5.0,25,0.00,,CLR,0.00,VWS V14.01,2013-08-07 00:02:00,
2013-08-06 19:03:00,101.5,61.3,29.81,South,181,4.0,10.0,27,0.00,,CLR,0.00,VWS V14.01,2013-08-07 00:03:00,
2013-08-06 19:04:00,101.2,61.1,29.81,SSE,159,7.0,10.0,27,0.00,,CLR,0.00,VWS V14.01,2013-08-07 00:04:00,
2013-08-06 19:05:00,101.0,60.9,29.81,SE,126,4.0,12.0,27,0.00,,CLR,0.00,VWS V14.01,2013-08-07 00:05:00,
2013-08-06 19:06:00,101.0,61.9,29.81,ESE,120,10.0,12.0,28,0.00,,CLR,0.00,VWS V14.01,2013-08-07 00:06:00,
2013-08-06 19:07:00,102.3,60.9,29.81,NNE,22,4.0,6.0,26,0.00,,CLR,0.00,VWS V14.01,2013-08-07 00:07:00,
2013-08-06 19:08:00,100.7,61.7,29.81,SE,139,5.0,12.0,28,0.00,,CLR,0.00,VWS V14.01,2013-08-07 00:08:00,
2013-08-06 19:09:00,100.4,61.4,29.81,ESE,119,9.0,12.0,28,0.00,,CLR,0.00,VWS V14.01,2013-08-07 00:09:00,
2013-08-06 19:10:00,100.4,61.4,29.81,ESE,119,9.0,9.0,28,0.00,,CLR,0.00,VWS V14.01,2013-08-07 00:10:00,
2013-08-06 19:11:00,100.2,61.2,29.81,SSE,153,1.0,9.0,28,0.00,,CLR,0.00,VWS V14.01,2013-08-07 00:11:00,
2013-08-06 19:12:00,101.5,61.3,29.81,South,180,3.0,10.0,27,0.00,,CLR,0.00,VWS V14.01,2013-08-07 00:12:00,
2013-08-06 19:13:00,100.2,62.2,29.81,South,180,7.0,9.0,29,0.00,,CLR,0.00,VWS V14.01,2013-08-07 00:13:00,
2013-08-06 19:14:00,99.9,62.9,29.81,ESE,106,4.0,10.0,30,0.00,,CLR,0.00,VWS V14.01,2013-08-07 00:14:00,
2013-08-06 19:15:00,99.9,63.9,29.81,ESE,116,5.0,10.0,31,0.00,,CLR,0.00,VWS V14.01,2013-08-07 00:15:00,
2013-08-06 19:16:00,99.9,64.8,29.81,East,84,5.0,12.0,32,0.00,,CLR,0.00,VWS V14.01,2013-08-07 00:16:00,
2013-08-06 19:17:00,100.7,60.6,29.81,SSE,164,6.0,12.0,27,0.00,,CLR,0.00,VWS V14.01,2013-08-07 00:17:00,
2013-08-06 19:18:00,99.4,66.9,29.81,South,171,10.0,12.0,35,0.00,,CLR,0.00,VWS V14.01,2013-08-07 00:18:00,
2013-08-06 19:19:00,99.2,67.6,29.81,SE,142,7.0,12.0,36,0.00,,CLR,0.00,VWS V14.01,2013-08-07 00:19:00,
2013-08-06 19:20:00,99.0,68.2,29.81,ESE,121,9.0,14.0,37,0.00,,CLR,0.00,VWS V14.01,2013-08-07 00:20:00,
2013-08-06 19:21:00,98.7,67.9,29.81,SSE,156,3.0,15.0,37,0.00,,CLR,0.00,VWS V14.01,2013-08-07 00:21:00,
2013-08-06 19:22:00,100.2,62.2,29.81,ESE,115,1.0,9.0,29,0.00,,CLR,0.00,VWS V14.01,2013-08-07 00:22:00,
2013-08-06 19:23:00,98.5,68.5,29.81,SSE,163,4.0,15.0,38,0.00,,CLR,0.00,VWS V14.01,2013-08-07 00:23:00,
2013-08-06 19:24:00,98.2,68.3,29.81,South,190,6.0,15.0,38,0.00,,CLR,0.00,VWS V14.01,2013-08-07 00:24:00,
2013-08-06 19:25:00,98.0,68.8,29.81,South,171,7.0,15.0,39,0.00,,CLR,0.00,VWS V14.01,2013-08-07 00:25:00,
2013-08-06 19:26:00,98.0,68.8,29.81,East,98,9.0,15.0,39,0.00,,CLR,0.00,VWS V14.01,2013-08-07 00:26:00,
2013-08-06 19:27:00,99.7,67.2,29.81,SE,134,6.0,12.0,35,0.00,,CLR,0.00,VWS V14.01,2013-08-07 00:27:00,
2013-08-06 19:28:00,97.8,69.4,29.81,South,179,5.0,15.0,40,0.00,,CLR,0.00,VWS V14.01,2013-08-07 00:28:00,
2013-08-06 19:29:00,97.5,69.1,29.82,SSE,159,7.0,15.0,40,0.00,,CLR,0.00,VWS V14.01,2013-08-07 00:29:00,
2013-08-06 19:30:00,97.5,69.1,29.82,SE,130,0.0,2.0,40,0.00,,CLR,0.00,VWS V14.01,2013-08-07 00:30:00,
2013-08-06 19:31:00,97.3,69.7,29.82,SE,144,4.0,8.0,41,0.00,,CLR,0.00,VWS V14.01,2013-08-07 00:31:00,
2013-08-06 19:32:00,98.5,68.5,29.81,ENE,69,2.0,15.0,38,0.00,,CLR,0.00,VWS V14.01,2013-08-07 00:32:00,
2013-08-06 19:33:00,97.1,69.5,29.82,SSE,166,10.0,15.0,41,0.00,,CLR,0.00,VWS V14.01,2013-08-07 00:33:00,
2013-08-06 19:34:00,97.1,69.5,29.82,ESE,107,7.0,15.0,41,0.00,,CLR,0.00,VWS V14.01,2013-08-07 00:34:00,
2013-08-06 19:35:00,96.8,69.9,29.82,SSE,157,7.0,15.0,42,0.00,,CLR,0.00,VWS V14.01,2013-08-07 00:35:00,
2013-08-06 19:36:00,96.8,69.9,29.82,SE,124,10.0,15.0,42,0.00,,CLR,0.00,VWS V14.01,2013-08-07 00:36:00,
2013-08-06 19:37:00,97.8,69.4,29.81,SE,126,1.0,15.0,40,0.00,,CLR,0.00,VWS V14.01,2013-08-07 00:37:00,
2013-08-06 19:38:00,96.6,70.4,29.82,SSE,153,13.0,16.0,43,0.00,,CLR,0.00,VWS V14.01,2013-08-07 00:38:00,
2013-08-06 19:39:00,96.3,70.2,29.82,SE,125,10.0,16.0,43,0.00,,CLR,0.00,VWS V14.01,2013-08-07 00:39:00,
2013-08-06 19:40:00,96.3,70.2,29.82,SSE,165,12.0,12.0,43,0.00,,CLR,0.00,VWS V14.01,2013-08-07 00:40:00,
2013-08-06 19:41:00,96.1,70.0,29.82,SE,127,9.0,12.0,43,0.00,,CLR,0.00,VWS V14.01,2013-08-07 00:41:00,
2013-08-06 19:42:00,97.1,69.5,29.82,SSE,166,10.0,15.0,41,0.00,,CLR,0.00,VWS V14.01,2013-08-07 00:42:00,
2013-08-06 19:43:00,95.9,70.5,29.82,SSW,194,7.0,12.0,44,0.00,,CLR,0.00,VWS V14.01,2013-08-07 00:43:00,
2013-08-06 19:44:00,95.9,70.5,29.82,SE,140,16.0,16.0,44,0.00,,CLR,0.00,VWS V14.01,2013-08-07 00:44:00,
2013-08-06 19:45:00,95.9,70.5,29.82,South,183,5.0,16.0,44,0.00,,CLR,0.00,VWS V14.01,2013-08-07 00:45:00,
2013-08-06 19:46:00,95.6,70.2,29.82,South,179,9.0,17.0,44,0.00,,CLR,0.00,VWS V14.01,2013-08-07 00:46:00,
2013-08-06 19:47:00,96.6,69.8,29.82,South,175,3.0,16.0,42,0.00,,CLR,0.00,VWS V14.01,2013-08-07 00:47:00,
2013-08-06 19:48:00,95.4,70.7,29.82,SE,142,4.0,17.0,45,0.00,,CLR,0.00,VWS V14.01,2013-08-07 00:48:00,
2013-08-06 19:49:00,95.4,70.7,29.82,SSE,155,0.0,17.0,45,0.00,,CLR,0.00,VWS V14.01,2013-08-07 00:49:00,
2013-08-06 19:50:00,95.1,70.4,29.82,SW,220,7.0,10.0,45,0.00,,CLR,0.00,VWS V14.01,2013-08-07 00:50:00,
2013-08-06 19:51:00,95.1,70.4,29.82,SE,140,4.0,11.0,45,0.00,,CLR,0.00,VWS V14.01,2013-08-07 00:51:00,
2013-08-06 19:52:00,96.1,70.7,29.82,South,188,5.0,12.0,44,0.00,,CLR,0.00,VWS V14.01,2013-08-07 00:52:00,
2013-08-06 19:53:00,94.9,70.9,29.82,South,182,3.0,11.0,46,0.00,,CLR,0.00,VWS V14.01,2013-08-07 00:53:00,
2013-08-06 19:54:00,94.9,70.9,29.82,SSE,158,9.0,12.0,46,0.00,,CLR,0.00,VWS V14.01,2013-08-07 00:54:00,
2013-08-06 19:55:00,94.7,70.7,29.82,ESE,118,4.0,12.0,46,0.00,,CLR,0.00,VWS V14.01,2013-08-07 00:55:00,
2013-08-06 19:56:00,94.7,71.3,29.82,South,180,12.0,12.0,47,0.00,,CLR,0.00,VWS V14.01,2013-08-07 00:56:00,
2013-08-06 19:57:00,95.4,70.7,29.82,SSE,157,8.0,17.0,45,0.00,,CLR,0.00,VWS V14.01,2013-08-07 00:57:00,
2013-08-06 19:58:00,94.5,71.2,29.82,SE,142,1.0,12.0,47,0.00,,CLR,0.00,VWS V14.01,2013-08-07 00:58:00,
2013-08-06 19:59:00,94.5,71.2,29.82,South,169,6.0,12.0,47,0.00,,CLR,0.00,VWS V14.01,2013-08-07 00:59:00,
2013-08-06 20:00:00,94.3,71.0,29.82,SE,130,3.0,7.0,47,0.00,,CLR,0.00,VWS V14.01,2013-08-07 01:00:00,
2013-08-06 20:01:00,94.3,71.0,29.82,SE,132,0.0,7.0,47,0.00,,CLR,0.00,VWS V14.01,2013-08-07 01:01:00,
2013-08-06 20:02:00,95.1,71.1,29.82,ESE,122,5.0,11.0,46,0.00,,CLR,0.00,VWS V14.01,2013-08-07 01:02:00,
2013-08-06 20:03:00,94.3,71.0,29.82,East,95,5.0,10.0,47,0.00,,CLR,0.00,VWS V14.01,2013-08-07 01:03:00,
2013-08-06 20:04:00,94.0,70.7,29.82,SSE,167,4.0,10.0,47,0.00,,CLR,0.00,VWS V14.01,2013-08-07 01:04:00,
2013-08-06 20:05:00,94.0,71.3,29.82,South,175,6.0,10.0,48,0.00,,CLR,0.00,VWS V14.01,2013-08-07 01:05:00,
2013-08-06 20:06:00,94.0,71.3,29.82,SSE,150,6.0,12.0,48,0.00,,CLR,0.00,VWS V14.01,2013-08-07 01:06:00,
2013-08-06 20:07:00,94.5,71.2,29.82,SSE,163,9.0,12.0,47,0.00,,CLR,0.00,VWS V14.01,2013-08-07 01:07:00,
2013-08-06 20:08:00,93.8,71.2,29.82,East,98,9.0,14.0,48,0.00,,CLR,0.00,VWS V14.01,2013-08-07 01:08:00,
2013-08-06 20:09:00,93.8,71.2,29.82,SSE,166,1.0,14.0,48,0.00,,CLR,0.00,VWS V14.01,2013-08-07 01:09:00,
2013-08-06 20:10:00,93.8,71.2,29.82,SSE,157,5.0,9.0,48,0.00,,CLR,0.00,VWS V14.01,2013-08-07 01:10:00,
2013-08-06 20:11:00,93.6,71.0,29.82,South,178,5.0,12.0,48,0.00,,CLR,0.00,VWS V14.01,2013-08-07 01:11:00,
2013-08-06 20:12:00,94.3,71.0,29.82,SSE,163,3.0,10.0,47,0.00,,CLR,0.00,VWS V14.01,2013-08-07 01:12:00,
2013-08-06 20:13:00,93.4,70.8,29.82,ESE,122,5.0,19.0,48,0.00,,CLR,0.00,VWS V14.01,2013-08-07 01:13:00,
2013-08-06 20:14:00,93.4,70.8,29.83,SSE,161,9.0,19.0,48,0.00,,CLR,0.00,VWS V14.01,2013-08-07 01:14:00,
2013-08-06 20:15:00,93.4,70.8,29.83,SSE,150,9.0,19.0,48,0.00,,CLR,0.00,VWS V14.01,2013-08-07 01:15:00,
2013-08-06 20:16:00,93.2,70.6,29.83,SSE,153,7.0,19.0,48,0.00,,CLR,0.00,VWS V14.01,2013-08-07 01:16:00,
2013-08-06 20:17:00,93.8,71.2,29.82,South,182,5.0,14.0,48,0.00,,CLR,0.00,VWS V14.01,2013-08-07 01:17:00,
2013-08-06 20:18:00,93.2,70.6,29.83,SE,129,4.0,19.0,48,0.00,,CLR,0.00,VWS V14.01,2013-08-07 01:18:00,
2013-08-06 20:19:00,93.2,70.6,29.83,South,173,6.0,19.0,48,0.00,,CLR,0.00,VWS V14.01,2013-08-07 01:19:00,
2013-08-06 20:20:00,93.2,71.2,29.83,SSE,154,10.0,10.0,49,0.00,,CLR,0.00,VWS V14.01,2013-08-07 01:20:00,
2013-08-06 20:21:00,92.9,70.9,29.83,ESE,113,2.0,10.0,49,0.00,,CLR,0.00,VWS V14.01,2013-08-07 01:21:00,
2013-08-06 20:22:00,93.6,71.0,29.82,South,186,5.0,19.0,48,0.00,,CLR,0.00,VWS V14.01,2013-08-07 01:22:00,
2013-08-06 20:23:00,92.9,70.9,29.83,SSE,149,16.0,16.0,49,0.00,,CLR,0.00,VWS V14.01,2013-08-07 01:23:00,
2013-08-06 20:24:00,92.9,70.9,29.83,South,169,9.0,16.0,49,0.00,,CLR,0.00,VWS V14.01,2013-08-07 01:24:00,
2013-08-06 20:25:00,92.9,70.9,29.83,South,169,6.0,16.0,49,0.00,,CLR,0.00,VWS V14.01,2013-08-07 01:25:00,
2013-08-06 20:26:00,92.7,70.8,29.83,SSW,198,6.0,16.0,49,0.00,,CLR,0.00,VWS V14.01,2013-08-07 01:26:00,
2013-08-06 20:27:00,93.2,70.6,29.83,SSE,156,4.0,19.0,48,0.00,,CLR,0.00,VWS V14.01,2013-08-07 01:27:00,
2013-08-06 20:28:00,92.7,70.8,29.83,SE,140,5.0,16.0,49,0.00,,CLR,0.00,VWS V14.01,2013-08-07 01:28:00,
2013-08-06 20:29:00,92.5,70.6,29.84,SSW,199,16.0,16.0,49,0.00,,CLR,0.00,VWS V14.01,2013-08-07 01:29:00,
2013-08-06 20:30:00,92.5,70.6,29.84,South,182,13.0,13.0,49,0.00,,CLR,0.00,VWS V14.01,2013-08-07 01:30:00,
2013-08-06 20:31:00,92.5,71.2,29.84,SE,142,9.0,13.0,50,0.00,,CLR,0.00,VWS V14.01,2013-08-07 01:31:00,
2013-08-06 20:32:00,92.9,70.9,29.83,SE,136,3.0,10.0,49,0.00,,CLR,0.00,VWS V14.01,2013-08-07 01:32:00,
2013-08-06 20:33:00,92.3,71.0,29.84,SSE,167,5.0,13.0,50,0.00,,CLR,0.00,VWS V14.01,2013-08-07 01:33:00,
2013-08-06 20:34:00,92.3,71.0,29.84,SSW,208,3.0,13.0,50,0.00,,CLR,0.00,VWS V14.01,2013-08-07 01:34:00,
2013-08-06 20:35:00,92.3,71.0,29.84,ESE,122,3.0,13.0,50,0.00,,CLR,0.00,VWS V14.01,2013-08-07 01:35:00,
2013-08-06 20:36:00,92.1,70.8,29.84,SSW,212,9.0,13.0,50,0.00,,CLR,0.00,VWS V14.01,2013-08-07 01:36:00,
2013-08-06 20:37:00,92.7,70.8,29.83,ESE,119,15.0,16.0,49,0.00,,CLR,0.00,VWS V14.01,2013-08-07 01:37:00,
2013-08-06 20:38:00,92.1,70.8,29.84,SSW,194,7.0,13.0,50,0.00,,CLR,0.00,VWS V14.01,2013-08-07 01:38:00,
2013-08-06 20:39:00,91.8,71.1,29.84,South,178,7.0,14.0,51,0.00,,CLR,0.00,VWS V14.01,2013-08-07 01:39:00,
2013-08-06 20:40:00,91.8,71.1,29.84,South,186,6.0,15.0,51,0.00,,CLR,0.00,VWS V14.01,2013-08-07 01:40:00,
2013-08-06 20:41:00,91.6,70.9,29.84,South,179,5.0,15.0,51,0.00,,CLR,0.00,VWS V14.01,2013-08-07 01:41:00,
2013-08-06 20:42:00,92.3,71.0,29.84,SSE,153,4.0,13.0,50,0.00,,CLR,0.00,VWS V14.01,2013-08-07 01:42:00,
2013-08-06 20:43:00,91.6,70.9,29.84,SE,142,0.0,15.0,51,0.00,,CLR,0.00,VWS V14.01,2013-08-07 01:43:00,
2013-08-06 20:44:00,91.6,70.9,29.84,SE,140,4.0,15.0,51,0.00,,CLR,0.00,VWS V14.01,2013-08-07 01:44:00,
2013-08-06 20:45:00,91.4,70.7,29.84,South,190,5.0,15.0,51,0.00,,CLR,0.00,VWS V14.01,2013-08-07 01:45:00,
2013-08-06 20:46:00,91.4,70.7,29.84,SE,144,5.0,15.0,51,0.00,,CLR,0.00,VWS V14.01,2013-08-07 01:46:00,
2013-08-06 20:47:00,92.1,70.8,29.84,ESE,111,4.0,13.0,50,0.00,,CLR,0.00,VWS V14.01,2013-08-07 01:47:00,
2013-08-06 20:48:00,91.4,71.3,29.84,SE,137,2.0,15.0,52,0.00,,CLR,0.00,VWS V14.01,2013-08-07 01:48:00,
2013-08-06 20:49:00,91.4,71.3,29.84,SSE,153,7.0,15.0,52,0.00,,CLR,0.00,VWS V14.01,2013-08-07 01:49:00,
2013-08-06 20:50:00,91.2,71.1,29.84,SSW,197,10.0,11.0,52,0.00,,CLR,0.00,VWS V14.01,2013-08-07 01:50:00,
2013-08-06 20:51:00,91.2,71.1,29.84,SSE,156,10.0,12.0,52,0.00,,CLR,0.00,VWS V14.01,2013-08-07 01:51:00,
2013-08-06 20:52:00,91.6,70.9,29.84,SE,145,0.0,15.0,51,0.00,,CLR,0.00,VWS V14.01,2013-08-07 01:52:00,
2013-08-06 20:53:00,91.0,70.9,29.84,SE,126,11.0,13.0,52,0.00,,CLR,0.00,VWS V14.01,2013-08-07 01:53:00,
2013-08-06 20:54:00,91.0,70.9,29.84,SSE,164,0.0,13.0,52,0.00,,CLR,0.00,VWS V14.01,2013-08-07 01:54:00,
2013-08-06 20:55:00,91.0,72.1,29.84,SE,133,3.0,13.0,54,0.00,,CLR,0.00,VWS V14.01,2013-08-07 01:55:00,
2013-08-06 20:56:00,91.0,72.1,29.84,SSE,160,7.0,13.0,54,0.00,,CLR,0.00,VWS V14.01,2013-08-07 01:56:00,
2013-08-06 20:57:00,91.4,71.3,29.84,SE,134,2.0,15.0,52,0.00,,CLR,0.00,VWS V14.01,2013-08-07 01:57:00,
2013-08-06 20:58:00,90.7,71.2,29.84,SSE,168,6.0,13.0,53,0.00,,CLR,0.00,VWS V14.01,2013-08-07 01:58:00,
2013-08-06 20:59:00,90.7,71.2,29.85,SSE,147,3.0,13.0,53,0.00,,CLR,0.00,VWS V14.01,2013-08-07 01:59:00,
2013-08-06 21:00:00,90.7,71.2,29.85,South,176,3.0,4.0,53,0.00,,CLR,0.00,VWS V14.01,2013-08-07 02:00:00,
2013-08-06 21:01:00,90.7,71.2,29.85,ESE,111,2.0,10.0,53,0.00,,CLR,0.00,VWS V14.01,2013-08-07 02:01:00,
2013-08-06 21:02:00,91.0,70.9,29.84,SE,144,5.0,13.0,52,0.00,,CLR,0.00,VWS V14.01,2013-08-07 02:02:00,
2013-08-06 21:03:00,90.5,71.1,29.85,SSE,168,6.0,10.0,53,0.00,,CLR,0.00,VWS V14.01,2013-08-07 02:03:00,
2013-08-06 21:04:00,90.5,71.1,29.85,South,180,9.0,10.0,53,0.00,,CLR,0.00,VWS V14.01,2013-08-07 02:04:00,
2013-08-06 21:05:00,90.5,71.1,29.85,SSE,158,4.0,10.0,53,0.00,,CLR,0.00,VWS V14.01,2013-08-07 02:05:00,
2013-08-06 21:06:00,90.3,70.9,29.85,SE,136,3.0,10.0,53,0.00,,CLR,0.00,VWS V14.01,2013-08-07 02:06:00,
2013-08-06 21:07:00,90.7,71.2,29.84,South,190,9.0,13.0,53,0.00,,CLR,0.00,VWS V14.01,2013-08-07 02:07:00,
2013-08-06 21:08:00,90.3,70.9,29.85,ESE,111,10.0,10.0,53,0.00,,CLR,0.00,VWS V14.01,2013-08-07 02:08:00,
2013-08-06 21:09:00,90.1,70.7,29.85,South,175,0.0,11.0,53,0.00,,CLR,0.00,VWS V14.01,2013-08-07 02:09:00,
2013-08-06 21:10:00,90.1,70.7,29.85,SSE,156,7.0,13.0,53,0.00,,CLR,0.00,VWS V14.01,2013-08-07 02:10:00,
2013-08-06 21:11:00,89.9,71.0,29.85,East,88,2.0,13.0,54,0.00,,CLR,0.00,VWS V14.01,2013-08-07 02:11:00,
2013-08-06 21:12:00,90.5,71.1,29.85,ESE,119,6.0,10.0,53,0.00,,CLR,0.00,VWS V14.01,2013-08-07 02:12:00,
2013-08-06 21:13:00,89.9,71.0,29.85,SE,124,1.0,13.0,54,0.00,,CLR,0.00,VWS V14.01,2013-08-07 02:13:00,
2013-08-06 21:14:00,89.9,71.0,29.85,SE,138,0.0,13.0,54,0.00,,CLR,0.00,VWS V14.01,2013-08-07 02:14:00,
2013-08-06 21:15:00,89.7,70.9,29.85,SSE,147,1.0,13.0,54,0.00,,CLR,0.00,VWS V14.01,2013-08-07 02:15:00,
2013-08-06 21:16:00,89.7,70.9,29.85,East,88,4.0,13.0,54,0.00,,CLR,0.00,VWS V14.01,2013-08-07 02:16:00,
2013-08-06 21:17:00,90.3,70.9,29.85,South,169,1.0,10.0,53,0.00,,CLR,0.00,VWS V14.01,2013-08-07 02:17:00,
2013-08-06 21:18:00,89.7,70.9,29.85,SSW,192,3.0,13.0,54,0.00,,CLR,0.00,VWS V14.01,2013-08-07 02:18:00,
2013-08-06 21:19:00,89.5,70.7,29.85,South,173,4.0,13.0,54,0.00,,CLR,0.00,VWS V14.01,2013-08-07 02:19:00,
2013-08-06 21:20:00,89.5,71.2,29.85,South,173,8.0,8.0,55,0.00,,CLR,0.00,VWS V14.01,2013-08-07 02:20:00,
2013-08-06 21:21:00,89.3,71.0,29.85,SSW,196,10.0,11.0,55,0.00,,CLR,0.00,VWS V14.01,2013-08-07 02:21:00,
2013-08-06 21:22:00,89.9,71.0,29.85,East,92,9.0,13.0,54,0.00,,CLR,0.00,VWS V14.01,2013-08-07 02:22:00,
2013-08-06 21:23:00,89.3,71.0,29.85,SW,233,4.0,11.0,55,0.00,,CLR,0.00,VWS V14.01,2013-08-07 02:23:00,
2013-08-06 21:24:00,89.3,71.0,29.85,SSE,148,11.0,11.0,55,0.00,,CLR,0.00,VWS V14.01,2013-08-07 02:24:00,
2013-08-06 21:25:00,89.0,70.8,29.85,East,101,1.0,11.0,55,0.00,,CLR,0.00,VWS V14.01,2013-08-07 02:25:00,
2013-08-06 21:26:00,89.0,70.8,29.85,SSE,163,8.0,11.0,55,0.00,,CLR,0.00,VWS V14.01,2013-08-07 02:26:00,
2013-08-06 21:27:00,89.7,70.9,29.85,SE,138,0.0,13.0,54,0.00,,CLR,0.00,VWS V14.01,2013-08-07 02:27:00,
2013-08-06 21:28:00,88.8,70.6,29.85,SE,135,1.0,11.0,55,0.00,,CLR,0.00,VWS V14.01,2013-08-07 02:28:00,
2013-08-06 21:29:00,88.8,71.1,29.86,SW,224,1.0,11.0,56,0.00,,CLR,0.00,VWS V14.01,2013-08-07 02:29:00,
2013-08-06 21:30:00,88.8,71.1,29.86,SE,136,17.0,17.0,56,0.00,,CLR,0.00,VWS V14.01,2013-08-07 02:30:00,
2013-08-06 21:31:00,88.8,71.1,29.86,ESE,121,6.0,17.0,56,0.00,,CLR,0.00,VWS V14.01,2013-08-07 02:31:00,
2013-08-06 21:32:00,89.3,71.0,29.85,SE,132,5.0,11.0,55,0.00,,CLR,0.00,VWS V14.01,2013-08-07 02:32:00,
2013-08-06 21:33:00,88.6,70.9,29.86,SSE,148,3.0,17.0,56,0.00,,CLR,0.00,VWS V14.01,2013-08-07 02:33:00,
2013-08-06 21:34:00,88.6,71.4,29.86,South,172,0.0,17.0,57,0.00,,CLR,0.00,VWS V14.01,2013-08-07 02:34:00,
2013-08-06 21:35:00,88.4,71.2,29.86,ESE,115,4.0,17.0,57,0.00,,CLR,0.00,VWS V14.01,2013-08-07 02:35:00,
2013-08-06 21:36:00,88.4,71.2,29.86,ESE,115,4.0,17.0,57,0.00,,CLR,0.00,VWS V14.01,2013-08-07 02:36:00,
2013-08-06 21:37:00,89.0,70.8,29.85,SSE,163,3.0,11.0,55,0.00,,CLR,0.00,VWS V14.01,2013-08-07 02:37:00,
2013-08-06 21:38:00,88.4,71.2,29.86,SE,128,0.0,17.0,57,0.00,,CLR,0.00,VWS V14.01,2013-08-07 02:38:00,
2013-08-06 21:39:00,88.2,71.1,29.86,South,182,6.0,17.0,57,0.00,,CLR,0.00,VWS V14.01,2013-08-07 02:39:00,
2013-08-06 21:40:00,88.2,71.1,29.86,ESE,117,3.0,4.0,57,0.00,,CLR,0.00,VWS V14.01,2013-08-07 02:40:00,
2013-08-06 21:41:00,88.2,71.1,29.86,ESE,109,5.0,10.0,57,0.00,,CLR,0.00,VWS V14.01,2013-08-07 02:41:00,
2013-08-06 21:42:00,88.6,70.9,29.86,ESE,122,3.0,17.0,56,0.00,,CLR,0.00,VWS V14.01,2013-08-07 02:42:00,
2013-08-06 21:43:00,88.2,71.1,29.86,SE,124,0.0,10.0,57,0.00,,CLR,0.00,VWS V14.01,2013-08-07 02:43:00,
2013-08-06 21:44:00,88.0,70.9,29.87,SE,146,6.0,10.0,57,0.00,,CLR,0.00,VWS V14.01,2013-08-07 02:44:00,
2013-08-06 21:45:00,88.0,70.9,29.87,SSE,150,3.0,11.0,57,0.00,,CLR,0.00,VWS V14.01,2013-08-07 02:45:00,
2013-08-06 21:46:00,88.0,70.9,29.87,SSE,159,3.0,11.0,57,0.00,,CLR,0.00,VWS V14.01,2013-08-07 02:46:00,
2013-08-06 21:47:00,88.4,71.2,29.86,ESE,112,5.0,17.0,57,0.00,,CLR,0.00,VWS V14.01,2013-08-07 02:47:00,
2013-08-06 21:48:00,87.8,71.2,29.87,ESE,113,4.0,13.0,58,0.00,,CLR,0.00,VWS V14.01,2013-08-07 02:48:00,
2013-08-06 21:49:00,87.8,71.2,29.87,South,186,3.0,13.0,58,0.00,,CLR,0.00,VWS V14.01,2013-08-07 02:49:00,
2013-08-06 21:50:00,87.8,71.2,29.87,SE,134,9.0,12.0,58,0.00,,CLR,0.00,VWS V14.01,2013-08-07 02:50:00,
2013-08-06 21:51:00,87.8,71.2,29.87,South,177,6.0,12.0,58,0.00,,CLR,0.00,VWS V14.01,2013-08-07 02:51:00,
2013-08-06 21:52:00,88.2,71.1,29.86,ESE,107,0.0,10.0,57,0.00,,CLR,0.00,VWS V14.01,2013-08-07 02:52:00,
2013-08-06 21:53:00,87.6,71.0,29.87,South,178,6.0,12.0,58,0.00,,CLR,0.00,VWS V14.01,2013-08-07 02:53:00,
2013-08-06 21:54:00,87.6,71.5,29.87,SSE,168,0.0,12.0,59,0.00,,CLR,0.00,VWS V14.01,2013-08-07 02:54:00,
2013-08-06 21:55:00,87.4,71.3,29.87,SE,128,0.0,12.0,59,0.00,,CLR,0.00,VWS V14.01,2013-08-07 02:55:00,
2013-08-06 21:56:00,87.4,71.3,29.87,ENE,71,3.0,12.0,59,0.00,,CLR,0.00,VWS V14.01,2013-08-07 02:56:00,
2013-08-06 21:57:00,87.8,70.7,29.87,ESE,122,5.0,13.0,57,0.00,,CLR,0.00,VWS V14.01,2013-08-07 02:57:00,
2013-08-06 21:58:00,87.4,71.3,29.87,ESE,123,1.0,12.0,59,0.00,,CLR,0.00,VWS V14.01,2013-08-07 02:58:00,
2013-08-06 21:59:00,87.4,71.3,29.88,SE,130,0.0,12.0,59,0.00,,CLR,0.00,VWS V14.01,2013-08-07 02:59:00,
2013-08-06 22:00:00,87.2,71.1,29.88,East,99,10.0,10.0,59,0.00,,CLR,0.00,VWS V14.01,2013-08-07 03:00:00,
2013-08-06 22:01:00,87.2,71.1,29.88,ESE,106,4.0,11.0,59,0.00,,CLR,0.00,VWS V14.01,2013-08-07 03:01:00,
2013-08-06 22:02:00,87.6,71.0,29.87,SE,126,4.0,12.0,58,0.00,,CLR,0.00,VWS V14.01,2013-08-07 03:02:00,
2013-08-06 22:03:00,87.6,71.0,29.87,ESE,119,4.0,12.0,58,0.00,,CLR,0.00,VWS V14.01,2013-08-07 03:03:00,
2013-08-06 22:04:00,87.0,71.4,29.88,South,174,5.0,11.0,60,0.00,,CLR,0.00,VWS V14.01,2013-08-07 03:04:00,
2013-08-06 22:05:00,87.0,71.4,29.88,SE,126,5.0,11.0,60,0.00,,CLR,0.00,VWS V14.01,2013-08-07 03:05:00,
2013-08-06 22:06:00,87.0,71.4,29.88,ESE,113,3.0,12.0,60,0.00,,CLR,0.00,VWS V14.01,2013-08-07 03:06:00,
2013-08-06 22:07:00,87.0,71.4,29.88,ESE,104,4.0,12.0,60,0.00,,CLR,0.00,VWS V14.01,2013-08-07 03:07:00,
2013-08-06 22:08:00,87.4,71.3,29.87,ESE,121,6.0,12.0,59,0.00,,CLR,0.00,VWS V14.01,2013-08-07 03:08:00,
2013-08-06 22:09:00,86.7,71.7,29.88,East,90,4.0,12.0,61,0.00,,CLR,0.00,VWS V14.01,2013-08-07 03:09:00,
2013-08-06 22:10:00,86.7,71.7,29.88,SE,138,0.0,4.0,61,0.00,,CLR,0.00,VWS V14.01,2013-08-07 03:10:00,
2013-08-06 22:11:00,86.7,71.7,29.88,SE,130,3.0,11.0,61,0.00,,CLR,0.00,VWS V14.01,2013-08-07 03:11:00,
2013-08-06 22:12:00,86.5,71.5,29.88,SE,132,0.0,11.0,61,0.00,,CLR,0.00,VWS V14.01,2013-08-07 03:12:00,
2013-08-06 22:13:00,87.0,71.4,29.88,ESE,118,5.0,11.0,60,0.00,,CLR,0.00,VWS V14.01,2013-08-07 03:13:00,
2013-08-06 22:14:00,86.5,71.5,29.89,SE,141,0.0,11.0,61,0.00,,CLR,0.00,VWS V14.01,2013-08-07 03:14:00,
2013-08-06 22:15:00,86.5,71.9,29.89,ESE,113,7.0,11.0,62,0.00,,CLR,0.00,VWS V14.01,2013-08-07 03:15:00,
2013-08-06 22:16:00,86.3,71.8,29.89,South,180,4.0,11.0,62,0.00,,CLR,0.00,VWS V14.01,2013-08-07 03:16:00,
2013-08-06 22:17:00,86.3,71.8,29.89,SE,127,5.0,11.0,62,0.00,,CLR,0.00,VWS V14.01,2013-08-07 03:17:00,
2013-08-06 22:18:00,86.7,71.7,29.88,ESE,118,4.0,12.0,61,0.00,,CLR,0.00,VWS V14.01,2013-08-07 03:18:00,
2013-08-06 22:19:00,86.3,71.8,29.89,SE,136,5.0,11.0,62,0.00,,CLR,0.00,VWS V14.01,2013-08-07 03:19:00,
2013-08-06 22:20:00,86.1,71.6,29.89,South,179,5.0,7.0,62,0.00,,CLR,0.00,VWS V14.01,2013-08-07 03:20:00,
2013-08-06 22:21:00,86.1,71.6,29.89,ESE,107,5.0,7.0,62,0.00,,CLR,0.00,VWS V14.01,2013-08-07 03:21:00,
2013-08-06 22:22:00,86.1,72.0,29.89,ESE,111,10.0,13.0,63,0.00,,CLR,0.00,VWS V14.01,2013-08-07 03:22:00,
2013-08-06 22:23:00,86.5,71.5,29.88,SSE,151,0.0,11.0,61,0.00,,CLR,0.00,VWS V14.01,2013-08-07 03:23:00,
2013-08-06 22:24:00,85.9,71.8,29.89,SE,136,1.0,13.0,63,0.00,,CLR,0.00,VWS V14.01,2013-08-07 03:24:00,
2013-08-06 22:25:00,85.9,71.8,29.89,SE,136,1.0,13.0,63,0.00,,CLR,0.00,VWS V14.01,2013-08-07 03:25:00,
2013-08-06 22:26:00,85.7,71.7,29.89,SSE,163,7.0,13.0,63,0.00,,CLR,0.00,VWS V14.01,2013-08-07 03:26:00,
2013-08-06 22:27:00,85.7,72.1,29.89,South,180,4.0,13.0,64,0.00,,CLR,0.00,VWS V14.01,2013-08-07 03:27:00,
2013-08-06 22:28:00,86.3,71.8,29.89,East,92,1.0,11.0,62,0.00,,CLR,0.00,VWS V14.01,2013-08-07 03:28:00,
2013-08-06 22:29:00,85.7,72.1,29.90,East,88,4.0,13.0,64,0.00,,CLR,0.00,VWS V14.01,2013-08-07 03:29:00,
2013-08-06 22:30:00,85.5,71.9,29.90,SE,132,0.0,4.0,64,0.00,,CLR,0.00,VWS V14.01,2013-08-07 03:30:00,
2013-08-06 22:31:00,85.5,71.9,29.90,SE,130,0.0,4.0,64,0.00,,CLR,0.00,VWS V14.01,2013-08-07 03:31:00,
2013-08-06 22:32:00,85.5,71.9,29.90,SSE,147,0.0,5.0,64,0.00,,CLR,0.00,VWS V14.01,2013-08-07 03:32:00,
2013-08-06 22:33:00,85.9,71.8,29.89,SE,137,3.0,13.0,63,0.00,,CLR,0.00,VWS V14.01,2013-08-07 03:33:00,
2013-08-06 22:34:00,85.5,72.4,29.90,South,177,9.0,9.0,65,0.00,,CLR,0.00,VWS V14.01,2013-08-07 03:34:00,
2013-08-06 22:35:00,85.5,72.4,29.90,South,177,9.0,9.0,65,0.00,,CLR,0.00,VWS V14.01,2013-08-07 03:35:00,
2013-08-06 22:36:00,85.3,72.2,29.90,SE,125,0.0,9.0,65,0.00,,CLR,0.00,VWS V14.01,2013-08-07 03:36:00,
2013-08-06 22:37:00,85.3,72.2,29.90,South,173,6.0,9.0,65,0.00,,CLR,0.00,VWS V14.01,2013-08-07 03:37:00,
2013-08-06 22:38:00,85.7,72.1,29.89,SE,135,5.0,13.0,64,0.00,,CLR,0.00,VWS V14.01,2013-08-07 03:38:00,
2013-08-06 22:39:00,85.3,72.2,29.90,SSE,158,1.0,9.0,65,0.00,,CLR,0.00,VWS V14.01,2013-08-07 03:39:00,
2013-08-06 22:40:00,85.1,72.0,29.90,SSW,194,3.0,10.0,65,0.00,,CLR,0.00,VWS V14.01,2013-08-07 03:40:00,
2013-08-06 22:41:00,85.1,72.0,29.90,SE,146,0.0,10.0,65,0.00,,CLR,0.00,VWS V14.01,2013-08-07 03:41:00,
2013-08-06 22:42:00,85.1,72.0,29.90,SSE,168,2.0,10.0,65,0.00,,CLR,0.00,VWS V14.01,2013-08-07 03:42:00,
2013-08-06 22:43:00,85.5,72.4,29.90,South,175,1.0,6.0,65,0.00,,CLR,0.00,VWS V14.01,2013-08-07 03:43:00,
2013-08-06 22:44:00,85.1,72.5,29.90,East,96,0.0,10.0,66,0.00,,CLR,0.00,VWS V14.01,2013-08-07 03:44:00,
2013-08-06 22:45:00,84.9,72.3,29.90,ESE,113,2.0,10.0,66,0.00,,CLR,0.00,VWS V14.01,2013-08-07 03:45:00,
2013-08-06 22:46:00,84.9,72.3,29.90,ESE,115,6.0,10.0,66,0.00,,CLR,0.00,VWS V14.01,2013-08-07 03:46:00,
2013-08-06 22:47:00,84.9,72.3,29.90,SE,128,1.0,10.0,66,0.00,,CLR,0.00,VWS V14.01,2013-08-07 03:47:00,
2013-08-06 22:48:00,85.3,72.2,29.90,SE,136,0.0,9.0,65,0.00,,CLR,0.00,VWS V14.01,2013-08-07 03:48:00,
2013-08-06 22:49:00,84.7,72.1,29.90,South,171,3.0,10.0,66,0.00,,CLR,0.00,VWS V14.01,2013-08-07 03:49:00,
2013-08-06 22:50:00,84.7,72.1,29.90,SE,134,6.0,6.0,66,0.00,,CLR,0.00,VWS V14.01,2013-08-07 03:50:00,
2013-08-06 22:51:00,84.7,72.1,29.90,SE,126,5.0,12.0,66,0.00,,CLR,0.00,VWS V14.01,2013-08-07 03:51:00,
2013-08-06 22:52:00,84.5,71.9,29.90,SE,125,5.0,12.0,66,0.00,,CLR,0.00,VWS V14.01,2013-08-07 03:52:00,
2013-08-06 22:53:00,85.1,72.0,29.90,East,93,2.0,10.0,65,0.00,,CLR,0.00,VWS V14.01,2013-08-07 03:53:00,
2013-08-06 22:54:00,84.5,72.3,29.90,East,101,12.0,13.0,67,0.00,,CLR,0.00,VWS V14.01,2013-08-07 03:54:00,
2013-08-06 22:55:00,84.3,72.2,29.90,South,182,9.0,13.0,67,0.00,,CLR,0.00,VWS V14.01,2013-08-07 03:55:00,
2013-08-06 22:56:00,84.3,72.2,29.90,ESE,123,0.0,13.0,67,0.00,,CLR,0.00,VWS V14.01,2013-08-07 03:56:00,
2013-08-06 22:57:00,84.3,72.2,29.90,South,169,8.0,13.0,67,0.00,,CLR,0.00,VWS V14.01,2013-08-07 03:57:00,
2013-08-06 22:58:00,84.7,72.1,29.90,South,181,0.0,10.0,66,0.00,,CLR,0.00,VWS V14.01,2013-08-07 03:58:00,
2013-08-06 22:59:00,84.3,72.2,29.91,South,180,4.0,13.0,67,0.00,,CLR,0.00,VWS V14.01,2013-08-07 03:59:00,
2013-08-06 23:00:00,84.1,72.0,29.91,SSW,193,6.0,6.0,67,0.00,,CLR,0.00,VWS V14.01,2013-08-07 04:00:00,
2013-08-06 23:01:00,84.5,71.9,29.90,SE,134,7.0,12.0,66,0.00,,CLR,0.00,VWS V14.01,2013-08-07 04:01:00,
2013-08-06 23:02:00,84.1,72.0,29.91,South,175,5.0,7.0,67,0.00,,CLR,0.00,VWS V14.01,2013-08-07 04:02:00,
2013-08-06 23:03:00,84.1,72.0,29.91,SE,130,0.0,7.0,67,0.00,,CLR,0.00,VWS V14.01,2013-08-07 04:03:00,
2013-08-06 23:04:00,84.1,72.0,29.91,South,180,6.0,13.0,67,0.00,,CLR,0.00,VWS V14.01,2013-08-07 04:04:00,
2013-08-06 23:05:00,84.0,72.3,29.91,SSE,152,7.0,13.0,68,0.00,,CLR,0.00,VWS V14.01,2013-08-07 04:05:00,
2013-08-06 23:06:00,84.3,72.2,29.90,SE,138,1.0,13.0,67,0.00,,CLR,0.00,VWS V14.01,2013-08-07 04:06:00,
2013-08-06 23:07:00,84.0,72.3,29.91,South,175,6.0,14.0,68,0.00,,CLR,0.00,VWS V14.01,2013-08-07 04:07:00,
2013-08-06 23:08:00,84.0,72.3,29.91,SE,135,4.0,14.0,68,0.00,,CLR,0.00,VWS V14.01,2013-08-07 04:08:00,
2013-08-06 23:09:00,83.8,72.1,29.91,SE,140,2.0,14.0,68,0.00,,CLR,0.00,VWS V14.01,2013-08-07 04:09:00,
2013-08-06 23:10:00,83.8,72.1,29.91,SSE,161,6.0,11.0,68,0.00,,CLR,0.00,VWS V14.01,2013-08-07 04:10:00,
2013-08-06 23:11:00,84.1,72.0,29.91,SE,141,3.0,7.0,67,0.00,,CLR,0.00,VWS V14.01,2013-08-07 04:11:00,
2013-08-06 23:12:00,83.8,72.1,29.91,East,101,0.0,11.0,68,0.00,,CLR,0.00,VWS V14.01,2013-08-07 04:12:00,
2013-08-06 23:13:00,83.8,72.1,29.91,SE,126,9.0,12.0,68,0.00,,CLR,0.00,VWS V14.01,2013-08-07 04:13:00,
2013-08-06 23:14:00,83.8,72.1,29.91,ESE,118,1.0,12.0,68,0.00,,CLR,0.00,VWS V14.01,2013-08-07 04:14:00,
2013-08-06 23:15:00,83.8,72.1,29.91,South,173,10.0,12.0,68,0.00,,CLR,0.00,VWS V14.01,2013-08-07 04:15:00,
2013-08-06 23:16:00,84.0,72.3,29.91,East,101,14.0,14.0,68,0.00,,CLR,0.00,VWS V14.01,2013-08-07 04:16:00,
2013-08-06 23:17:00,83.6,71.9,29.91,ESE,115,10.0,12.0,68,0.00,,CLR,0.00,VWS V14.01,2013-08-07 04:17:00,
2013-08-06 23:18:00,83.6,71.9,29.91,SSE,167,9.0,13.0,68,0.00,,CLR,0.00,VWS V14.01,2013-08-07 04:18:00,
2013-08-06 23:19:00,83.6,71.9,29.91,East,89,5.0,13.0,68,0.00,,CLR,0.00,VWS V14.01,2013-08-07 04:19:00,
2013-08-06 23:20:00,83.6,71.9,29.91,SE,144,0.0,0.0,68,0.00,,CLR,0.00,VWS V14.01,2013-08-07 04:20:00,
2013-08-06 23:21:00,83.8,72.1,29.91,South,178,0.0,11.0,68,0.00,,CLR,0.00,VWS V14.01,2013-08-07 04:21:00,
2013-08-06 23:22:00,83.4,71.7,29.91,SSE,147,0.0,6.0,68,0.00,,CLR,0.00,VWS V14.01,2013-08-07 04:22:00,
2013-08-06 23:23:00,83.4,71.7,29.91,SSE,165,7.0,7.0,68,0.00,,CLR,0.00,VWS V14.01,2013-08-07 04:23:00,
2013-08-06 23:24:00,83.4,71.7,29.91,ESE,109,4.0,7.0,68,0.00,,CLR,0.00,VWS V14.01,2013-08-07 04:24:00,
2013-08-06 23:25:00,83.4,72.2,29.91,East,101,5.0,7.0,69,0.00,,CLR,0.00,VWS V14.01,2013-08-07 04:25:00,
2013-08-06 23:26:00,83.6,71.9,29.91,SSE,159,11.0,12.0,68,0.00,,CLR,0.00,VWS V14.01,2013-08-07 04:26:00,
2013-08-06 23:27:00,83.4,72.2,29.91,SSE,157,5.0,7.0,69,0.00,,CLR,0.00,VWS V14.01,2013-08-07 04:27:00,
2013-08-06 23:28:00,83.4,72.2,29.91,SE,146,4.0,9.0,69,0.00,,CLR,0.00,VWS V14.01,2013-08-07 04:28:00,
2013-08-06 23:29:00,83.2,72.0,29.91,SSE,163,4.0,9.0,69,0.00,,CLR,0.00,VWS V14.01,2013-08-07 04:29:00,
2013-08-06 23:30:00,83.2,72.0,29.91,SE,139,0.0,0.0,69,0.00,,CLR,0.00,VWS V14.01,2013-08-07 04:30:00,
2013-08-06 23:31:00,83.4,71.7,29.91,SE,143,3.0,6.0,68,0.00,,CLR,0.00,VWS V14.01,2013-08-07 04:31:00,
2013-08-06 23:32:00,83.2,72.0,29.91,South,176,0.0,9.0,69,0.00,,CLR,0.00,VWS V14.01,2013-08-07 04:32:00,
2013-08-06 23:33:00,83.2,72.0,29.91,SSE,161,0.0,9.0,69,0.00,,CLR,0.00,VWS V14.01,2013-08-07 04:33:00,
2013-08-06 23:34:00,83.2,72.0,29.91,SE,128,3.0,9.0,69,0.00,,CLR,0.00,VWS V14.01,2013-08-07 04:34:00,
2013-08-06 23:35:00,83.2,72.0,29.91,SE,144,0.0,9.0,69,0.00,,CLR,0.00,VWS V14.01,2013-08-07 04:35:00,
2013-08-06 23:36:00,83.4,72.2,29.91,SSE,163,0.0,7.0,69,0.00,,CLR,0.00,VWS V14.01,2013-08-07 04:36:00,
2013-08-06 23:37:00,83.2,72.0,29.91,SSE,153,0.0,9.0,69,0.00,,CLR,0.00,VWS V14.01,2013-08-07 04:37:00,
2013-08-06 23:38:00,83.2,72.0,29.91,SE,146,0.0,9.0,69,0.00,,CLR,0.00,VWS V14.01,2013-08-07 04:38:00,
2013-08-06 23:39:00,83.0,71.8,29.91,East,80,1.0,9.0,69,0.00,,CLR,0.00,VWS V14.01,2013-08-07 04:39:00,
2013-08-06 23:40:00,83.0,71.8,29.91,SE,128,1.0,5.0,69,0.00,,CLR,0.00,VWS V14.01,2013-08-07 04:40:00,
2013-08-06 23:41:00,83.2,72.0,29.91,SSE,148,4.0,9.0,69,0.00,,CLR,0.00,VWS V14.01,2013-08-07 04:41:00,
2013-08-06 23:42:00,83.0,72.2,29.91,SSE,153,5.0,9.0,70,0.00,,CLR,0.00,VWS V14.01,2013-08-07 04:42:00,
2013-08-06 23:43:00,83.0,72.2,29.91,ESE,115,5.0,9.0,70,0.00,,CLR,0.00,VWS V14.01,2013-08-07 04:43:00,
2013-08-06 23:44:00,82.8,72.0,29.91,ESE,122,4.0,12.0,70,0.00,,CLR,0.00,VWS V14.01,2013-08-07 04:44:00,
2013-08-06 23:45:00,82.8,72.0,29.91,SSE,154,6.0,12.0,70,0.00,,CLR,0.00,VWS V14.01,2013-08-07 04:45:00,
2013-08-06 23:46:00,83.2,72.0,29.91,SSE,153,0.0,9.0,69,0.00,,CLR,0.00,VWS V14.01,2013-08-07 04:46:00,
2013-08-06 23:47:00,82.8,72.0,29.91,SE,146,5.0,12.0,70,0.00,,CLR,0.00,VWS V14.01,2013-08-07 04:47:00,
2013-08-06 23:48:00,82.6,71.8,29.91,SSE,159,3.0,12.0,70,0.00,,CLR,0.00,VWS V14.01,2013-08-07 04:48:00,
2013-08-06 23:49:00,82.6,71.8,29.91,SE,142,5.0,12.0,70,0.00,,CLR,0.00,VWS V14.01,2013-08-07 04:49:00,
2013-08-06 23:50:00,82.6,71.8,29.91,SSE,167,3.0,3.0,70,0.00,,CLR,0.00,VWS V14.01,2013-08-07 04:50:00,
2013-08-06 23:51:00,83.0,72.2,29.91,East,88,6.0,9.0,70,0.00,,CLR,0.00,VWS V14.01,2013-08-07 04:51:00,
2013-08-06 23:52:00,82.6,71.8,29.91,SE,131,6.0,13.0,70,0.00,,CLR,0.00,VWS V14.01,2013-08-07 04:52:00,
2013-08-06 23:53:00,82.6,71.8,29.91,SE,144,3.0,13.0,70,0.00,,CLR,0.00,VWS V14.01,2013-08-07 04:53:00,
2013-08-06 23:54:00,82.4,71.6,29.91,SE,132,0.0,13.0,70,0.00,,CLR,0.00,VWS V14.01,2013-08-07 04:54:00,
2013-08-06 23:55:00,82.4,71.6,29.91,ESE,114,7.0,13.0,70,0.00,,CLR,0.00,VWS V14.01,2013-08-07 04:55:00,
2013-08-06 23:56:00,82.8,72.0,29.91,ESE,112,7.0,12.0,70,0.00,,CLR,0.00,VWS V14.01,2013-08-07 04:56:00,
2013-08-06 23:57:00,82.4,71.6,29.91,SSE,155,1.0,13.0,70,0.00,,CLR,0.00,VWS V14.01,2013-08-07 04:57:00,
2013-08-06 23:58:00,82.4,71.6,29.91,SE,128,0.0,13.0,70,0.00,,CLR,0.00,VWS V14.01,2013-08-07 04:58:00,
2013-08-06 23:59:00,82.4,71.6,29.91,SE,128,0.0,13.0,70,0.00,,CLR,0.00,VWS V14.01,2013-08-07 04:59:00,